<?xml version="1.0" encoding="UTF-8" standalone="no" ?>
<gpx xmlns="http://www.topografix.com/GPX/1/1" xmlns:xsi="http://www.w3.org/2001/XMLSchema-instance" xsi:schemaLocation="http://www.topografix.com/GPX/1/1 http://www.topografix.com/GPX/1/1/gpx.xsd" version="1.1" creator="VisuGPX - https://www.visugpx.com">
  <metadata>
    <name>Castillon Sentein Frechendech Cabanne D\'Illau Chapelle de l\'Isard</name>
    <desc><![CDATA[Castillon Sentein Frechendech sous le commandement de Gunther
 Cabanne D\'Illau propre table bancs pour manger cheminée
Chapelle de l\'Isard avec une partie bivouac bien équipée électricité sur batterie d\'éclairage minutée à 10mn répétitive  couchages cheminée tout pour cuisiner très propre
Beau temps sans pluie
J\'ai oublié l\'appareil photo dans ma voiture!!!!!!!!!!!]]></desc>
  </metadata>
  <trk>
    <name><![CDATA[2014-07-08 Fréchendech Cab Illau Chap Isard]]></name>
    <desc><![CDATA[<h1>OruxMaps</h1><br /><hr align="center" width="480" style="height: 2px; width: 517px"/><h2>Nom: 2014-07-08 Fréchendech Cab Illau Chap Isard</h2><br /><p>Temps de départ: 07/08/2014 08:34</p><p>Temps d'arrivée: 07/08/2014 15:15</p><p>Distance: 14 km (06:41)</p><p>Temps déplacement: 04:28</p><p>Vitesse moyenne: 2,1 km/h</p><p>Vitesse moyenne: 3,1 km/h</p><p>Vitess Max.: 87,2 km/h</p><p>Altitude minimale: 820 m</p><p>Altitude maximale: 1488 m</p><p>Vitesse d'élévation: 369 m/h</p><p>Vitesse de descente: -207,4 m/h</p><p>Gain Altitude: 868 m</p><p>Perte Altitude: -868 m</p><p>Temps d'élévation: 02:21</p><p>Temps de descente: 04:11</p><hr align="center" width="480" style="height: 2px; width: 517px"/>]]></desc>
    <trkseg>
      <trkpt lat="42.86771" lon="0.92746">
        <ele>827.67</ele>
        <time>2014-07-08T06:34:06Z</time>
      </trkpt>
      <trkpt lat="42.86773" lon="0.9274">
        <ele>823.74</ele>
        <time>2014-07-08T06:34:16Z</time>
      </trkpt>
      <trkpt lat="42.86777" lon="0.92735">
        <ele>820.75</ele>
        <time>2014-07-08T06:34:21Z</time>
      </trkpt>
      <trkpt lat="42.86781" lon="0.92731">
        <ele>820.26</ele>
        <time>2014-07-08T06:34:39Z</time>
      </trkpt>
      <trkpt lat="42.86784" lon="0.92735">
        <ele>825.42</ele>
        <time>2014-07-08T06:36:22Z</time>
      </trkpt>
      <trkpt lat="42.86787" lon="0.9273">
        <ele>824.98</ele>
        <time>2014-07-08T06:36:46Z</time>
      </trkpt>
      <trkpt lat="42.86789" lon="0.92724">
        <ele>826.83</ele>
        <time>2014-07-08T06:36:54Z</time>
      </trkpt>
      <trkpt lat="42.86791" lon="0.92718">
        <ele>826.35</ele>
        <time>2014-07-08T06:36:59Z</time>
      </trkpt>
      <trkpt lat="42.86794" lon="0.92712">
        <ele>828.97</ele>
        <time>2014-07-08T06:37:06Z</time>
      </trkpt>
      <trkpt lat="42.86798" lon="0.92706">
        <ele>827.82</ele>
        <time>2014-07-08T06:37:10Z</time>
      </trkpt>
      <trkpt lat="42.868" lon="0.927">
        <ele>829.9</ele>
        <time>2014-07-08T06:37:17Z</time>
      </trkpt>
      <trkpt lat="42.868" lon="0.92694">
        <ele>829.85</ele>
        <time>2014-07-08T06:37:47Z</time>
      </trkpt>
      <trkpt lat="42.86799" lon="0.92687">
        <ele>831.19</ele>
        <time>2014-07-08T06:37:50Z</time>
      </trkpt>
      <trkpt lat="42.86798" lon="0.9268">
        <ele>831.45</ele>
        <time>2014-07-08T06:37:54Z</time>
      </trkpt>
      <trkpt lat="42.86798" lon="0.92674">
        <ele>831.5</ele>
        <time>2014-07-08T06:37:58Z</time>
      </trkpt>
      <trkpt lat="42.868" lon="0.92667">
        <ele>830.31</ele>
        <time>2014-07-08T06:38:02Z</time>
      </trkpt>
      <trkpt lat="42.86801" lon="0.92661">
        <ele>828.31</ele>
        <time>2014-07-08T06:38:06Z</time>
      </trkpt>
      <trkpt lat="42.86802" lon="0.92653">
        <ele>827.88</ele>
        <time>2014-07-08T06:38:10Z</time>
      </trkpt>
      <trkpt lat="42.86801" lon="0.92645">
        <ele>826.82</ele>
        <time>2014-07-08T06:38:14Z</time>
      </trkpt>
      <trkpt lat="42.868" lon="0.92639">
        <ele>826.7</ele>
        <time>2014-07-08T06:38:18Z</time>
      </trkpt>
      <trkpt lat="42.868" lon="0.92632">
        <ele>828.16</ele>
        <time>2014-07-08T06:38:23Z</time>
      </trkpt>
      <trkpt lat="42.86799" lon="0.92625">
        <ele>830.45</ele>
        <time>2014-07-08T06:38:28Z</time>
      </trkpt>
      <trkpt lat="42.86796" lon="0.92618">
        <ele>831.81</ele>
        <time>2014-07-08T06:38:34Z</time>
      </trkpt>
      <trkpt lat="42.86797" lon="0.92612">
        <ele>834.02</ele>
        <time>2014-07-08T06:38:38Z</time>
      </trkpt>
      <trkpt lat="42.86798" lon="0.92605">
        <ele>836.06</ele>
        <time>2014-07-08T06:38:43Z</time>
      </trkpt>
      <trkpt lat="42.86798" lon="0.92599">
        <ele>835.92</ele>
        <time>2014-07-08T06:38:48Z</time>
      </trkpt>
      <trkpt lat="42.86799" lon="0.92592">
        <ele>835.63</ele>
        <time>2014-07-08T06:38:56Z</time>
      </trkpt>
      <trkpt lat="42.868" lon="0.92585">
        <ele>834.17</ele>
        <time>2014-07-08T06:39:03Z</time>
      </trkpt>
      <trkpt lat="42.86799" lon="0.92579">
        <ele>832.74</ele>
        <time>2014-07-08T06:39:07Z</time>
      </trkpt>
      <trkpt lat="42.86798" lon="0.92572">
        <ele>832.53</ele>
        <time>2014-07-08T06:39:11Z</time>
      </trkpt>
      <trkpt lat="42.86797" lon="0.92565">
        <ele>834.23</ele>
        <time>2014-07-08T06:39:15Z</time>
      </trkpt>
      <trkpt lat="42.86797" lon="0.92557">
        <ele>833.29</ele>
        <time>2014-07-08T06:39:19Z</time>
      </trkpt>
      <trkpt lat="42.86796" lon="0.9255">
        <ele>833.96</ele>
        <time>2014-07-08T06:39:23Z</time>
      </trkpt>
      <trkpt lat="42.86796" lon="0.92543">
        <ele>833.79</ele>
        <time>2014-07-08T06:39:27Z</time>
      </trkpt>
      <trkpt lat="42.86794" lon="0.92538">
        <ele>833.94</ele>
        <time>2014-07-08T06:39:31Z</time>
      </trkpt>
      <trkpt lat="42.86795" lon="0.92531">
        <ele>834.49</ele>
        <time>2014-07-08T06:39:36Z</time>
      </trkpt>
      <trkpt lat="42.86797" lon="0.92525">
        <ele>833.83</ele>
        <time>2014-07-08T06:39:42Z</time>
      </trkpt>
      <trkpt lat="42.86796" lon="0.92519">
        <ele>836.31</ele>
        <time>2014-07-08T06:39:46Z</time>
      </trkpt>
      <trkpt lat="42.86793" lon="0.92511">
        <ele>839.33</ele>
        <time>2014-07-08T06:39:50Z</time>
      </trkpt>
      <trkpt lat="42.86791" lon="0.92504">
        <ele>839.59</ele>
        <time>2014-07-08T06:39:54Z</time>
      </trkpt>
      <trkpt lat="42.8679" lon="0.92498">
        <ele>841.44</ele>
        <time>2014-07-08T06:39:58Z</time>
      </trkpt>
      <trkpt lat="42.8679" lon="0.9249">
        <ele>843.22</ele>
        <time>2014-07-08T06:40:03Z</time>
      </trkpt>
      <trkpt lat="42.8679" lon="0.92483">
        <ele>843.44</ele>
        <time>2014-07-08T06:40:08Z</time>
      </trkpt>
      <trkpt lat="42.86789" lon="0.92476">
        <ele>839.3</ele>
        <time>2014-07-08T06:40:14Z</time>
      </trkpt>
      <trkpt lat="42.86791" lon="0.9247">
        <ele>839.72</ele>
        <time>2014-07-08T06:40:20Z</time>
      </trkpt>
      <trkpt lat="42.86794" lon="0.92465">
        <ele>840.2</ele>
        <time>2014-07-08T06:40:26Z</time>
      </trkpt>
      <trkpt lat="42.86793" lon="0.92459">
        <ele>841.04</ele>
        <time>2014-07-08T06:40:33Z</time>
      </trkpt>
      <trkpt lat="42.86795" lon="0.92453">
        <ele>840.33</ele>
        <time>2014-07-08T06:40:39Z</time>
      </trkpt>
      <trkpt lat="42.86793" lon="0.92446">
        <ele>838.14</ele>
        <time>2014-07-08T06:40:45Z</time>
      </trkpt>
      <trkpt lat="42.86793" lon="0.92439">
        <ele>836.1</ele>
        <time>2014-07-08T06:40:50Z</time>
      </trkpt>
      <trkpt lat="42.86792" lon="0.92432">
        <ele>835.44</ele>
        <time>2014-07-08T06:40:55Z</time>
      </trkpt>
      <trkpt lat="42.86793" lon="0.92426">
        <ele>834.54</ele>
        <time>2014-07-08T06:40:59Z</time>
      </trkpt>
      <trkpt lat="42.86793" lon="0.92419">
        <ele>834.25</ele>
        <time>2014-07-08T06:41:05Z</time>
      </trkpt>
      <trkpt lat="42.86795" lon="0.92413">
        <ele>833.87</ele>
        <time>2014-07-08T06:41:11Z</time>
      </trkpt>
      <trkpt lat="42.86798" lon="0.92407">
        <ele>834.9</ele>
        <time>2014-07-08T06:41:16Z</time>
      </trkpt>
      <trkpt lat="42.86798" lon="0.92401">
        <ele>833.86</ele>
        <time>2014-07-08T06:41:21Z</time>
      </trkpt>
      <trkpt lat="42.86799" lon="0.92395">
        <ele>833.91</ele>
        <time>2014-07-08T06:41:27Z</time>
      </trkpt>
      <trkpt lat="42.86798" lon="0.92388">
        <ele>833.49</ele>
        <time>2014-07-08T06:41:32Z</time>
      </trkpt>
      <trkpt lat="42.86798" lon="0.92381">
        <ele>834.1</ele>
        <time>2014-07-08T06:41:37Z</time>
      </trkpt>
      <trkpt lat="42.86799" lon="0.92374">
        <ele>835.95</ele>
        <time>2014-07-08T06:41:41Z</time>
      </trkpt>
      <trkpt lat="42.86799" lon="0.92368">
        <ele>837.42</ele>
        <time>2014-07-08T06:41:45Z</time>
      </trkpt>
      <trkpt lat="42.86798" lon="0.92361">
        <ele>839.03</ele>
        <time>2014-07-08T06:41:50Z</time>
      </trkpt>
      <trkpt lat="42.86802" lon="0.92356">
        <ele>839.74</ele>
        <time>2014-07-08T06:41:54Z</time>
      </trkpt>
      <trkpt lat="42.86806" lon="0.92351">
        <ele>841.97</ele>
        <time>2014-07-08T06:41:58Z</time>
      </trkpt>
      <trkpt lat="42.86808" lon="0.92345">
        <ele>843.75</ele>
        <time>2014-07-08T06:42:03Z</time>
      </trkpt>
      <trkpt lat="42.86811" lon="0.92339">
        <ele>844.32</ele>
        <time>2014-07-08T06:42:08Z</time>
      </trkpt>
      <trkpt lat="42.86814" lon="0.92334">
        <ele>846.11</ele>
        <time>2014-07-08T06:42:13Z</time>
      </trkpt>
      <trkpt lat="42.86817" lon="0.92328">
        <ele>851.14</ele>
        <time>2014-07-08T06:42:19Z</time>
      </trkpt>
      <trkpt lat="42.86818" lon="0.92322">
        <ele>854.26</ele>
        <time>2014-07-08T06:42:27Z</time>
      </trkpt>
      <trkpt lat="42.8682" lon="0.92317">
        <ele>850.56</ele>
        <time>2014-07-08T06:42:36Z</time>
      </trkpt>
      <trkpt lat="42.86822" lon="0.92311">
        <ele>847.77</ele>
        <time>2014-07-08T06:42:41Z</time>
      </trkpt>
      <trkpt lat="42.86825" lon="0.92306">
        <ele>844.25</ele>
        <time>2014-07-08T06:43:03Z</time>
      </trkpt>
      <trkpt lat="42.86828" lon="0.923">
        <ele>846.59</ele>
        <time>2014-07-08T06:43:11Z</time>
      </trkpt>
      <trkpt lat="42.86831" lon="0.92294">
        <ele>849.92</ele>
        <time>2014-07-08T06:43:17Z</time>
      </trkpt>
      <trkpt lat="42.86833" lon="0.92288">
        <ele>850.81</ele>
        <time>2014-07-08T06:43:23Z</time>
      </trkpt>
      <trkpt lat="42.86836" lon="0.92282">
        <ele>851.44</ele>
        <time>2014-07-08T06:43:28Z</time>
      </trkpt>
      <trkpt lat="42.86838" lon="0.92276">
        <ele>854.09</ele>
        <time>2014-07-08T06:43:34Z</time>
      </trkpt>
      <trkpt lat="42.86834" lon="0.92271">
        <ele>850.02</ele>
        <time>2014-07-08T06:43:48Z</time>
      </trkpt>
      <trkpt lat="42.86832" lon="0.92265">
        <ele>851.9</ele>
        <time>2014-07-08T06:43:56Z</time>
      </trkpt>
      <trkpt lat="42.86831" lon="0.92258">
        <ele>852.95</ele>
        <time>2014-07-08T06:44:03Z</time>
      </trkpt>
      <trkpt lat="42.8683" lon="0.92251">
        <ele>853.74</ele>
        <time>2014-07-08T06:44:07Z</time>
      </trkpt>
      <trkpt lat="42.86829" lon="0.92244">
        <ele>854.06</ele>
        <time>2014-07-08T06:44:12Z</time>
      </trkpt>
      <trkpt lat="42.8683" lon="0.92236">
        <ele>854.89</ele>
        <time>2014-07-08T06:44:17Z</time>
      </trkpt>
      <trkpt lat="42.86829" lon="0.92229">
        <ele>856.06</ele>
        <time>2014-07-08T06:44:22Z</time>
      </trkpt>
      <trkpt lat="42.8683" lon="0.92222">
        <ele>855.89</ele>
        <time>2014-07-08T06:44:28Z</time>
      </trkpt>
      <trkpt lat="42.8683" lon="0.92215">
        <ele>854.88</ele>
        <time>2014-07-08T06:44:35Z</time>
      </trkpt>
      <trkpt lat="42.86831" lon="0.92209">
        <ele>855.19</ele>
        <time>2014-07-08T06:44:41Z</time>
      </trkpt>
      <trkpt lat="42.86832" lon="0.92202">
        <ele>857.69</ele>
        <time>2014-07-08T06:44:46Z</time>
      </trkpt>
      <trkpt lat="42.86832" lon="0.92195">
        <ele>858.91</ele>
        <time>2014-07-08T06:44:50Z</time>
      </trkpt>
      <trkpt lat="42.86831" lon="0.92187">
        <ele>860.73</ele>
        <time>2014-07-08T06:44:54Z</time>
      </trkpt>
      <trkpt lat="42.86832" lon="0.92181">
        <ele>861.39</ele>
        <time>2014-07-08T06:44:58Z</time>
      </trkpt>
      <trkpt lat="42.86834" lon="0.92176">
        <ele>860.63</ele>
        <time>2014-07-08T06:45:03Z</time>
      </trkpt>
      <trkpt lat="42.86837" lon="0.9217">
        <ele>860.36</ele>
        <time>2014-07-08T06:45:10Z</time>
      </trkpt>
      <trkpt lat="42.86839" lon="0.92164">
        <ele>861.72</ele>
        <time>2014-07-08T06:45:48Z</time>
      </trkpt>
      <trkpt lat="42.86842" lon="0.92159">
        <ele>861.33</ele>
        <time>2014-07-08T06:45:52Z</time>
      </trkpt>
      <trkpt lat="42.86845" lon="0.92154">
        <ele>860.03</ele>
        <time>2014-07-08T06:45:55Z</time>
      </trkpt>
      <trkpt lat="42.86848" lon="0.92148">
        <ele>861.11</ele>
        <time>2014-07-08T06:45:59Z</time>
      </trkpt>
      <trkpt lat="42.8685" lon="0.92142">
        <ele>861.89</ele>
        <time>2014-07-08T06:46:06Z</time>
      </trkpt>
      <trkpt lat="42.86853" lon="0.92137">
        <ele>862.64</ele>
        <time>2014-07-08T06:46:13Z</time>
      </trkpt>
      <trkpt lat="42.86856" lon="0.92132">
        <ele>862.66</ele>
        <time>2014-07-08T06:46:23Z</time>
      </trkpt>
      <trkpt lat="42.86858" lon="0.92127">
        <ele>865.84</ele>
        <time>2014-07-08T06:46:42Z</time>
      </trkpt>
      <trkpt lat="42.86861" lon="0.92122">
        <ele>864.68</ele>
        <time>2014-07-08T06:46:54Z</time>
      </trkpt>
      <trkpt lat="42.86864" lon="0.92115">
        <ele>867.07</ele>
        <time>2014-07-08T06:47:07Z</time>
      </trkpt>
      <trkpt lat="42.86867" lon="0.9211">
        <ele>868.33</ele>
        <time>2014-07-08T06:47:21Z</time>
      </trkpt>
      <trkpt lat="42.86868" lon="0.92104">
        <ele>867.54</ele>
        <time>2014-07-08T06:47:27Z</time>
      </trkpt>
      <trkpt lat="42.86871" lon="0.92099">
        <ele>870.09</ele>
        <time>2014-07-08T06:47:44Z</time>
      </trkpt>
      <trkpt lat="42.86872" lon="0.92092">
        <ele>872.68</ele>
        <time>2014-07-08T06:47:50Z</time>
      </trkpt>
      <trkpt lat="42.86875" lon="0.92086">
        <ele>872.48</ele>
        <time>2014-07-08T06:47:54Z</time>
      </trkpt>
      <trkpt lat="42.86877" lon="0.92081">
        <ele>874.03</ele>
        <time>2014-07-08T06:47:59Z</time>
      </trkpt>
      <trkpt lat="42.8688" lon="0.92076">
        <ele>875.14</ele>
        <time>2014-07-08T06:48:04Z</time>
      </trkpt>
      <trkpt lat="42.86882" lon="0.92069">
        <ele>872.33</ele>
        <time>2014-07-08T06:48:10Z</time>
      </trkpt>
      <trkpt lat="42.86881" lon="0.92063">
        <ele>876.25</ele>
        <time>2014-07-08T06:48:17Z</time>
      </trkpt>
      <trkpt lat="42.8688" lon="0.92057">
        <ele>878.3</ele>
        <time>2014-07-08T06:48:21Z</time>
      </trkpt>
      <trkpt lat="42.86879" lon="0.92051">
        <ele>876.94</ele>
        <time>2014-07-08T06:48:26Z</time>
      </trkpt>
      <trkpt lat="42.86878" lon="0.92044">
        <ele>875.53</ele>
        <time>2014-07-08T06:48:31Z</time>
      </trkpt>
      <trkpt lat="42.86878" lon="0.92038">
        <ele>872.04</ele>
        <time>2014-07-08T06:48:35Z</time>
      </trkpt>
      <trkpt lat="42.86878" lon="0.92031">
        <ele>868.11</ele>
        <time>2014-07-08T06:48:39Z</time>
      </trkpt>
      <trkpt lat="42.86877" lon="0.92025">
        <ele>867.82</ele>
        <time>2014-07-08T06:48:44Z</time>
      </trkpt>
      <trkpt lat="42.86876" lon="0.92019">
        <ele>871.46</ele>
        <time>2014-07-08T06:48:58Z</time>
      </trkpt>
      <trkpt lat="42.86875" lon="0.92012">
        <ele>874.21</ele>
        <time>2014-07-08T06:49:09Z</time>
      </trkpt>
      <trkpt lat="42.86874" lon="0.92006">
        <ele>877.02</ele>
        <time>2014-07-08T06:49:16Z</time>
      </trkpt>
      <trkpt lat="42.86874" lon="0.91998">
        <ele>877.95</ele>
        <time>2014-07-08T06:49:22Z</time>
      </trkpt>
      <trkpt lat="42.86873" lon="0.91992">
        <ele>880.38</ele>
        <time>2014-07-08T06:49:26Z</time>
      </trkpt>
      <trkpt lat="42.86873" lon="0.91984">
        <ele>880.83</ele>
        <time>2014-07-08T06:49:30Z</time>
      </trkpt>
      <trkpt lat="42.86872" lon="0.91978">
        <ele>882.97</ele>
        <time>2014-07-08T06:49:34Z</time>
      </trkpt>
      <trkpt lat="42.86872" lon="0.91971">
        <ele>885.37</ele>
        <time>2014-07-08T06:49:38Z</time>
      </trkpt>
      <trkpt lat="42.86872" lon="0.91964">
        <ele>887.11</ele>
        <time>2014-07-08T06:49:50Z</time>
      </trkpt>
      <trkpt lat="42.8687" lon="0.91958">
        <ele>885.71</ele>
        <time>2014-07-08T06:49:58Z</time>
      </trkpt>
      <trkpt lat="42.86869" lon="0.91952">
        <ele>888.32</ele>
        <time>2014-07-08T06:50:05Z</time>
      </trkpt>
      <trkpt lat="42.86869" lon="0.91945">
        <ele>889.05</ele>
        <time>2014-07-08T06:50:10Z</time>
      </trkpt>
      <trkpt lat="42.86871" lon="0.91939">
        <ele>889.49</ele>
        <time>2014-07-08T06:50:16Z</time>
      </trkpt>
      <trkpt lat="42.86872" lon="0.91933">
        <ele>892.26</ele>
        <time>2014-07-08T06:50:24Z</time>
      </trkpt>
      <trkpt lat="42.8687" lon="0.91927">
        <ele>890.94</ele>
        <time>2014-07-08T06:50:33Z</time>
      </trkpt>
      <trkpt lat="42.86871" lon="0.91921">
        <ele>889.67</ele>
        <time>2014-07-08T06:50:41Z</time>
      </trkpt>
      <trkpt lat="42.86869" lon="0.91915">
        <ele>889.15</ele>
        <time>2014-07-08T06:50:50Z</time>
      </trkpt>
      <trkpt lat="42.86867" lon="0.91909">
        <ele>890.24</ele>
        <time>2014-07-08T06:50:56Z</time>
      </trkpt>
      <trkpt lat="42.86867" lon="0.91903">
        <ele>890.91</ele>
        <time>2014-07-08T06:51:02Z</time>
      </trkpt>
      <trkpt lat="42.8687" lon="0.91897">
        <ele>893.96</ele>
        <time>2014-07-08T06:51:07Z</time>
      </trkpt>
      <trkpt lat="42.86874" lon="0.91892">
        <ele>895.18</ele>
        <time>2014-07-08T06:51:12Z</time>
      </trkpt>
      <trkpt lat="42.86874" lon="0.91885">
        <ele>894.86</ele>
        <time>2014-07-08T06:51:19Z</time>
      </trkpt>
      <trkpt lat="42.86875" lon="0.91879">
        <ele>895.03</ele>
        <time>2014-07-08T06:51:35Z</time>
      </trkpt>
      <trkpt lat="42.86873" lon="0.91873">
        <ele>893.6</ele>
        <time>2014-07-08T06:51:40Z</time>
      </trkpt>
      <trkpt lat="42.86872" lon="0.91865">
        <ele>893.07</ele>
        <time>2014-07-08T06:51:45Z</time>
      </trkpt>
      <trkpt lat="42.86869" lon="0.9186">
        <ele>894.22</ele>
        <time>2014-07-08T06:51:49Z</time>
      </trkpt>
      <trkpt lat="42.86866" lon="0.91854">
        <ele>896.12</ele>
        <time>2014-07-08T06:51:54Z</time>
      </trkpt>
      <trkpt lat="42.86864" lon="0.91848">
        <ele>897.88</ele>
        <time>2014-07-08T06:51:59Z</time>
      </trkpt>
      <trkpt lat="42.86863" lon="0.91842">
        <ele>898.69</ele>
        <time>2014-07-08T06:52:03Z</time>
      </trkpt>
      <trkpt lat="42.86863" lon="0.91836">
        <ele>899.51</ele>
        <time>2014-07-08T06:52:10Z</time>
      </trkpt>
      <trkpt lat="42.86862" lon="0.9183">
        <ele>900.66</ele>
        <time>2014-07-08T06:52:19Z</time>
      </trkpt>
      <trkpt lat="42.8686" lon="0.91824">
        <ele>899.74</ele>
        <time>2014-07-08T06:52:23Z</time>
      </trkpt>
      <trkpt lat="42.86859" lon="0.91817">
        <ele>900</ele>
        <time>2014-07-08T06:52:27Z</time>
      </trkpt>
      <trkpt lat="42.86858" lon="0.9181">
        <ele>900</ele>
        <time>2014-07-08T06:52:31Z</time>
      </trkpt>
      <trkpt lat="42.86859" lon="0.91803">
        <ele>900.57</ele>
        <time>2014-07-08T06:52:36Z</time>
      </trkpt>
      <trkpt lat="42.86858" lon="0.91797">
        <ele>902.35</ele>
        <time>2014-07-08T06:52:41Z</time>
      </trkpt>
      <trkpt lat="42.86858" lon="0.9179">
        <ele>903.32</ele>
        <time>2014-07-08T06:52:46Z</time>
      </trkpt>
      <trkpt lat="42.86857" lon="0.91783">
        <ele>905.96</ele>
        <time>2014-07-08T06:52:51Z</time>
      </trkpt>
      <trkpt lat="42.86857" lon="0.91776">
        <ele>906.58</ele>
        <time>2014-07-08T06:52:56Z</time>
      </trkpt>
      <trkpt lat="42.86855" lon="0.9177">
        <ele>906.97</ele>
        <time>2014-07-08T06:53:05Z</time>
      </trkpt>
      <trkpt lat="42.86858" lon="0.91765">
        <ele>906.52</ele>
        <time>2014-07-08T06:53:13Z</time>
      </trkpt>
      <trkpt lat="42.86855" lon="0.9176">
        <ele>910.46</ele>
        <time>2014-07-08T06:53:19Z</time>
      </trkpt>
      <trkpt lat="42.86852" lon="0.91756">
        <ele>913.22</ele>
        <time>2014-07-08T06:53:24Z</time>
      </trkpt>
      <trkpt lat="42.8685" lon="0.91749">
        <ele>913.81</ele>
        <time>2014-07-08T06:53:29Z</time>
      </trkpt>
      <trkpt lat="42.86848" lon="0.91743">
        <ele>914.37</ele>
        <time>2014-07-08T06:53:34Z</time>
      </trkpt>
      <trkpt lat="42.86848" lon="0.91737">
        <ele>914.93</ele>
        <time>2014-07-08T06:53:40Z</time>
      </trkpt>
      <trkpt lat="42.86848" lon="0.9173">
        <ele>916.85</ele>
        <time>2014-07-08T06:55:21Z</time>
      </trkpt>
      <trkpt lat="42.86847" lon="0.91724">
        <ele>917.69</ele>
        <time>2014-07-08T06:55:26Z</time>
      </trkpt>
      <trkpt lat="42.86844" lon="0.91718">
        <ele>918.67</ele>
        <time>2014-07-08T06:55:31Z</time>
      </trkpt>
      <trkpt lat="42.86843" lon="0.91712">
        <ele>917.18</ele>
        <time>2014-07-08T06:55:35Z</time>
      </trkpt>
      <trkpt lat="42.8684" lon="0.91706">
        <ele>916.73</ele>
        <time>2014-07-08T06:55:38Z</time>
      </trkpt>
      <trkpt lat="42.8684" lon="0.917">
        <ele>914.14</ele>
        <time>2014-07-08T06:55:43Z</time>
      </trkpt>
      <trkpt lat="42.86838" lon="0.91693">
        <ele>913.37</ele>
        <time>2014-07-08T06:55:49Z</time>
      </trkpt>
      <trkpt lat="42.86836" lon="0.91686">
        <ele>913.02</ele>
        <time>2014-07-08T06:55:54Z</time>
      </trkpt>
      <trkpt lat="42.86836" lon="0.9168">
        <ele>913.22</ele>
        <time>2014-07-08T06:55:58Z</time>
      </trkpt>
      <trkpt lat="42.86834" lon="0.91674">
        <ele>913.06</ele>
        <time>2014-07-08T06:56:02Z</time>
      </trkpt>
      <trkpt lat="42.86832" lon="0.91667">
        <ele>912.5</ele>
        <time>2014-07-08T06:56:06Z</time>
      </trkpt>
      <trkpt lat="42.8683" lon="0.91662">
        <ele>913.31</ele>
        <time>2014-07-08T06:56:10Z</time>
      </trkpt>
      <trkpt lat="42.86828" lon="0.91656">
        <ele>913.78</ele>
        <time>2014-07-08T06:56:14Z</time>
      </trkpt>
      <trkpt lat="42.86826" lon="0.91649">
        <ele>913</ele>
        <time>2014-07-08T06:56:19Z</time>
      </trkpt>
      <trkpt lat="42.86825" lon="0.91642">
        <ele>912.57</ele>
        <time>2014-07-08T06:56:24Z</time>
      </trkpt>
      <trkpt lat="42.86825" lon="0.91636">
        <ele>912.74</ele>
        <time>2014-07-08T06:56:29Z</time>
      </trkpt>
      <trkpt lat="42.86824" lon="0.91629">
        <ele>913.98</ele>
        <time>2014-07-08T06:56:34Z</time>
      </trkpt>
      <trkpt lat="42.86828" lon="0.91624">
        <ele>913.9</ele>
        <time>2014-07-08T06:56:41Z</time>
      </trkpt>
      <trkpt lat="42.8683" lon="0.91618">
        <ele>916.11</ele>
        <time>2014-07-08T06:56:48Z</time>
      </trkpt>
      <trkpt lat="42.86833" lon="0.91613">
        <ele>919.18</ele>
        <time>2014-07-08T06:56:54Z</time>
      </trkpt>
      <trkpt lat="42.86834" lon="0.91606">
        <ele>919.25</ele>
        <time>2014-07-08T06:57:02Z</time>
      </trkpt>
      <trkpt lat="42.86835" lon="0.916">
        <ele>920.65</ele>
        <time>2014-07-08T06:57:09Z</time>
      </trkpt>
      <trkpt lat="42.86833" lon="0.91594">
        <ele>922.64</ele>
        <time>2014-07-08T06:57:18Z</time>
      </trkpt>
      <trkpt lat="42.86831" lon="0.91588">
        <ele>923.1</ele>
        <time>2014-07-08T06:57:26Z</time>
      </trkpt>
      <trkpt lat="42.8683" lon="0.91582">
        <ele>923.56</ele>
        <time>2014-07-08T06:57:31Z</time>
      </trkpt>
      <trkpt lat="42.86829" lon="0.91576">
        <ele>923.43</ele>
        <time>2014-07-08T06:57:37Z</time>
      </trkpt>
      <trkpt lat="42.86828" lon="0.91569">
        <ele>924.89</ele>
        <time>2014-07-08T06:57:43Z</time>
      </trkpt>
      <trkpt lat="42.86826" lon="0.91563">
        <ele>926.36</ele>
        <time>2014-07-08T06:57:48Z</time>
      </trkpt>
      <trkpt lat="42.86828" lon="0.91557">
        <ele>925.33</ele>
        <time>2014-07-08T06:57:53Z</time>
      </trkpt>
      <trkpt lat="42.86829" lon="0.91549">
        <ele>924.98</ele>
        <time>2014-07-08T06:57:59Z</time>
      </trkpt>
      <trkpt lat="42.86827" lon="0.91543">
        <ele>925.64</ele>
        <time>2014-07-08T06:58:04Z</time>
      </trkpt>
      <trkpt lat="42.86824" lon="0.91537">
        <ele>929.73</ele>
        <time>2014-07-08T06:58:09Z</time>
      </trkpt>
      <trkpt lat="42.8682" lon="0.91533">
        <ele>930.68</ele>
        <time>2014-07-08T06:58:14Z</time>
      </trkpt>
      <trkpt lat="42.86817" lon="0.91528">
        <ele>931.9</ele>
        <time>2014-07-08T06:58:19Z</time>
      </trkpt>
      <trkpt lat="42.86813" lon="0.91524">
        <ele>934.59</ele>
        <time>2014-07-08T06:58:23Z</time>
      </trkpt>
      <trkpt lat="42.86812" lon="0.91518">
        <ele>933.46</ele>
        <time>2014-07-08T06:58:27Z</time>
      </trkpt>
      <trkpt lat="42.86809" lon="0.91511">
        <ele>931.4</ele>
        <time>2014-07-08T06:58:32Z</time>
      </trkpt>
      <trkpt lat="42.86809" lon="0.91505">
        <ele>931.65</ele>
        <time>2014-07-08T06:58:37Z</time>
      </trkpt>
      <trkpt lat="42.86808" lon="0.91497">
        <ele>929.35</ele>
        <time>2014-07-08T06:58:44Z</time>
      </trkpt>
      <trkpt lat="42.86806" lon="0.91491">
        <ele>930.66</ele>
        <time>2014-07-08T06:58:49Z</time>
      </trkpt>
      <trkpt lat="42.86806" lon="0.91484">
        <ele>929.15</ele>
        <time>2014-07-08T06:58:54Z</time>
      </trkpt>
      <trkpt lat="42.86805" lon="0.91477">
        <ele>928.67</ele>
        <time>2014-07-08T06:58:58Z</time>
      </trkpt>
      <trkpt lat="42.86804" lon="0.9147">
        <ele>927.46</ele>
        <time>2014-07-08T06:59:02Z</time>
      </trkpt>
      <trkpt lat="42.86801" lon="0.91465">
        <ele>928.71</ele>
        <time>2014-07-08T06:59:06Z</time>
      </trkpt>
      <trkpt lat="42.86796" lon="0.91462">
        <ele>930.12</ele>
        <time>2014-07-08T06:59:10Z</time>
      </trkpt>
      <trkpt lat="42.86793" lon="0.91457">
        <ele>930.56</ele>
        <time>2014-07-08T06:59:14Z</time>
      </trkpt>
      <trkpt lat="42.86788" lon="0.91454">
        <ele>930.71</ele>
        <time>2014-07-08T06:59:19Z</time>
      </trkpt>
      <trkpt lat="42.86783" lon="0.9145">
        <ele>931.56</ele>
        <time>2014-07-08T06:59:24Z</time>
      </trkpt>
      <trkpt lat="42.86778" lon="0.91446">
        <ele>931.97</ele>
        <time>2014-07-08T06:59:29Z</time>
      </trkpt>
      <trkpt lat="42.86775" lon="0.9144">
        <ele>931.03</ele>
        <time>2014-07-08T06:59:34Z</time>
      </trkpt>
      <trkpt lat="42.86772" lon="0.91437">
        <ele>931.25</ele>
        <time>2014-07-08T06:59:38Z</time>
      </trkpt>
      <trkpt lat="42.86768" lon="0.91432">
        <ele>932.13</ele>
        <time>2014-07-08T06:59:43Z</time>
      </trkpt>
      <trkpt lat="42.86763" lon="0.91427">
        <ele>931.87</ele>
        <time>2014-07-08T06:59:48Z</time>
      </trkpt>
      <trkpt lat="42.8676" lon="0.91422">
        <ele>929.96</ele>
        <time>2014-07-08T06:59:53Z</time>
      </trkpt>
      <trkpt lat="42.86756" lon="0.91418">
        <ele>927.39</ele>
        <time>2014-07-08T06:59:58Z</time>
      </trkpt>
      <trkpt lat="42.86751" lon="0.91414">
        <ele>926.52</ele>
        <time>2014-07-08T07:00:02Z</time>
      </trkpt>
      <trkpt lat="42.86747" lon="0.91411">
        <ele>926.73</ele>
        <time>2014-07-08T07:00:07Z</time>
      </trkpt>
      <trkpt lat="42.86741" lon="0.91409">
        <ele>925.81</ele>
        <time>2014-07-08T07:00:13Z</time>
      </trkpt>
      <trkpt lat="42.86738" lon="0.91404">
        <ele>927.4</ele>
        <time>2014-07-08T07:00:19Z</time>
      </trkpt>
      <trkpt lat="42.86733" lon="0.91402">
        <ele>928.27</ele>
        <time>2014-07-08T07:00:24Z</time>
      </trkpt>
      <trkpt lat="42.86728" lon="0.91401">
        <ele>928.9</ele>
        <time>2014-07-08T07:00:29Z</time>
      </trkpt>
      <trkpt lat="42.86724" lon="0.91395">
        <ele>929.94</ele>
        <time>2014-07-08T07:00:34Z</time>
      </trkpt>
      <trkpt lat="42.8672" lon="0.91391">
        <ele>929.28</ele>
        <time>2014-07-08T07:00:39Z</time>
      </trkpt>
      <trkpt lat="42.86719" lon="0.91384">
        <ele>930.36</ele>
        <time>2014-07-08T07:00:48Z</time>
      </trkpt>
      <trkpt lat="42.86715" lon="0.9138">
        <ele>929.56</ele>
        <time>2014-07-08T07:01:00Z</time>
      </trkpt>
      <trkpt lat="42.86709" lon="0.91378">
        <ele>924.91</ele>
        <time>2014-07-08T07:01:03Z</time>
      </trkpt>
      <trkpt lat="42.86704" lon="0.91376">
        <ele>921.48</ele>
        <time>2014-07-08T07:01:06Z</time>
      </trkpt>
      <trkpt lat="42.867" lon="0.91372">
        <ele>915.1</ele>
        <time>2014-07-08T07:01:09Z</time>
      </trkpt>
      <trkpt lat="42.86696" lon="0.91369">
        <ele>914.99</ele>
        <time>2014-07-08T07:01:12Z</time>
      </trkpt>
      <trkpt lat="42.86691" lon="0.91366">
        <ele>913.68</ele>
        <time>2014-07-08T07:01:15Z</time>
      </trkpt>
      <trkpt lat="42.86686" lon="0.91364">
        <ele>913.71</ele>
        <time>2014-07-08T07:01:18Z</time>
      </trkpt>
      <trkpt lat="42.86682" lon="0.91363">
        <ele>913.37</ele>
        <time>2014-07-08T07:01:21Z</time>
      </trkpt>
      <trkpt lat="42.86678" lon="0.91362">
        <ele>913.96</ele>
        <time>2014-07-08T07:01:24Z</time>
      </trkpt>
      <trkpt lat="42.86674" lon="0.91355">
        <ele>913.89</ele>
        <time>2014-07-08T07:01:28Z</time>
      </trkpt>
      <trkpt lat="42.86671" lon="0.91349">
        <ele>914.07</ele>
        <time>2014-07-08T07:01:32Z</time>
      </trkpt>
      <trkpt lat="42.86668" lon="0.91344">
        <ele>915.34</ele>
        <time>2014-07-08T07:01:36Z</time>
      </trkpt>
      <trkpt lat="42.86664" lon="0.91341">
        <ele>917.1</ele>
        <time>2014-07-08T07:01:41Z</time>
      </trkpt>
      <trkpt lat="42.86662" lon="0.91336">
        <ele>919.64</ele>
        <time>2014-07-08T07:01:45Z</time>
      </trkpt>
      <trkpt lat="42.8666" lon="0.9133">
        <ele>921.68</ele>
        <time>2014-07-08T07:01:53Z</time>
      </trkpt>
      <trkpt lat="42.86655" lon="0.9133">
        <ele>921.39</ele>
        <time>2014-07-08T07:01:58Z</time>
      </trkpt>
      <trkpt lat="42.86651" lon="0.91332">
        <ele>921.05</ele>
        <time>2014-07-08T07:02:02Z</time>
      </trkpt>
      <trkpt lat="42.86649" lon="0.91337">
        <ele>921.93</ele>
        <time>2014-07-08T07:02:11Z</time>
      </trkpt>
      <trkpt lat="42.86645" lon="0.9134">
        <ele>922.54</ele>
        <time>2014-07-08T07:02:20Z</time>
      </trkpt>
      <trkpt lat="42.86647" lon="0.91346">
        <ele>921.43</ele>
        <time>2014-07-08T07:02:29Z</time>
      </trkpt>
      <trkpt lat="42.86645" lon="0.91352">
        <ele>922.84</ele>
        <time>2014-07-08T07:02:37Z</time>
      </trkpt>
      <trkpt lat="42.86643" lon="0.91358">
        <ele>924.1</ele>
        <time>2014-07-08T07:02:45Z</time>
      </trkpt>
      <trkpt lat="42.86642" lon="0.91365">
        <ele>924.75</ele>
        <time>2014-07-08T07:02:50Z</time>
      </trkpt>
      <trkpt lat="42.86642" lon="0.91371">
        <ele>925.03</ele>
        <time>2014-07-08T07:02:56Z</time>
      </trkpt>
      <trkpt lat="42.86643" lon="0.91377">
        <ele>923.82</ele>
        <time>2014-07-08T07:03:01Z</time>
      </trkpt>
      <trkpt lat="42.86643" lon="0.91384">
        <ele>923.16</ele>
        <time>2014-07-08T07:03:07Z</time>
      </trkpt>
      <trkpt lat="42.86645" lon="0.9139">
        <ele>920.91</ele>
        <time>2014-07-08T07:03:40Z</time>
      </trkpt>
      <trkpt lat="42.86648" lon="0.91395">
        <ele>920.1</ele>
        <time>2014-07-08T07:03:45Z</time>
      </trkpt>
      <trkpt lat="42.8665" lon="0.91401">
        <ele>921.01</ele>
        <time>2014-07-08T07:03:50Z</time>
      </trkpt>
      <trkpt lat="42.86651" lon="0.91408">
        <ele>922.72</ele>
        <time>2014-07-08T07:03:57Z</time>
      </trkpt>
      <trkpt lat="42.86651" lon="0.91415">
        <ele>924.47</ele>
        <time>2014-07-08T07:04:23Z</time>
      </trkpt>
      <trkpt lat="42.86654" lon="0.91421">
        <ele>924.4</ele>
        <time>2014-07-08T07:04:28Z</time>
      </trkpt>
      <trkpt lat="42.86656" lon="0.91426">
        <ele>926.72</ele>
        <time>2014-07-08T07:04:31Z</time>
      </trkpt>
      <trkpt lat="42.86656" lon="0.91433">
        <ele>926.81</ele>
        <time>2014-07-08T07:04:40Z</time>
      </trkpt>
      <trkpt lat="42.86659" lon="0.91437">
        <ele>931.55</ele>
        <time>2014-07-08T07:04:58Z</time>
      </trkpt>
      <trkpt lat="42.86664" lon="0.9144">
        <ele>932.13</ele>
        <time>2014-07-08T07:05:02Z</time>
      </trkpt>
      <trkpt lat="42.86666" lon="0.91446">
        <ele>934.03</ele>
        <time>2014-07-08T07:05:06Z</time>
      </trkpt>
      <trkpt lat="42.86668" lon="0.91452">
        <ele>939.53</ele>
        <time>2014-07-08T07:05:22Z</time>
      </trkpt>
      <trkpt lat="42.86669" lon="0.91458">
        <ele>943.39</ele>
        <time>2014-07-08T07:05:59Z</time>
      </trkpt>
      <trkpt lat="42.86673" lon="0.91463">
        <ele>942.08</ele>
        <time>2014-07-08T07:06:02Z</time>
      </trkpt>
      <trkpt lat="42.86677" lon="0.91468">
        <ele>944.45</ele>
        <time>2014-07-08T07:06:06Z</time>
      </trkpt>
      <trkpt lat="42.86679" lon="0.91475">
        <ele>944.56</ele>
        <time>2014-07-08T07:06:08Z</time>
      </trkpt>
      <trkpt lat="42.86681" lon="0.91481">
        <ele>948.63</ele>
        <time>2014-07-08T07:06:17Z</time>
      </trkpt>
      <trkpt lat="42.86681" lon="0.91488">
        <ele>951.46</ele>
        <time>2014-07-08T07:06:30Z</time>
      </trkpt>
      <trkpt lat="42.86678" lon="0.91493">
        <ele>954.57</ele>
        <time>2014-07-08T07:06:38Z</time>
      </trkpt>
      <trkpt lat="42.86681" lon="0.91488">
        <ele>959.93</ele>
        <time>2014-07-08T07:06:54Z</time>
      </trkpt>
      <trkpt lat="42.86684" lon="0.91483">
        <ele>967.2</ele>
        <time>2014-07-08T07:07:03Z</time>
      </trkpt>
      <trkpt lat="42.8668" lon="0.91478">
        <ele>969.55</ele>
        <time>2014-07-08T07:07:15Z</time>
      </trkpt>
      <trkpt lat="42.86678" lon="0.91472">
        <ele>971.07</ele>
        <time>2014-07-08T07:07:26Z</time>
      </trkpt>
      <trkpt lat="42.86674" lon="0.91477">
        <ele>968.23</ele>
        <time>2014-07-08T07:07:39Z</time>
      </trkpt>
      <trkpt lat="42.86669" lon="0.91481">
        <ele>969.76</ele>
        <time>2014-07-08T07:07:41Z</time>
      </trkpt>
      <trkpt lat="42.86666" lon="0.91484">
        <ele>969.49</ele>
        <time>2014-07-08T07:07:48Z</time>
      </trkpt>
      <trkpt lat="42.86661" lon="0.91484">
        <ele>969.33</ele>
        <time>2014-07-08T07:08:34Z</time>
      </trkpt>
      <trkpt lat="42.86656" lon="0.91486">
        <ele>968.92</ele>
        <time>2014-07-08T07:08:37Z</time>
      </trkpt>
      <trkpt lat="42.86652" lon="0.91489">
        <ele>963.87</ele>
        <time>2014-07-08T07:08:42Z</time>
      </trkpt>
      <trkpt lat="42.86647" lon="0.91487">
        <ele>958.43</ele>
        <time>2014-07-08T07:09:37Z</time>
      </trkpt>
      <trkpt lat="42.86645" lon="0.91481">
        <ele>959.53</ele>
        <time>2014-07-08T07:09:42Z</time>
      </trkpt>
      <trkpt lat="42.86645" lon="0.91474">
        <ele>963.66</ele>
        <time>2014-07-08T07:09:47Z</time>
      </trkpt>
      <trkpt lat="42.86644" lon="0.91467">
        <ele>963.43</ele>
        <time>2014-07-08T07:09:52Z</time>
      </trkpt>
      <trkpt lat="42.86645" lon="0.91461">
        <ele>964.65</ele>
        <time>2014-07-08T07:09:58Z</time>
      </trkpt>
      <trkpt lat="42.8665" lon="0.91458">
        <ele>967.67</ele>
        <time>2014-07-08T07:10:01Z</time>
      </trkpt>
      <trkpt lat="42.86647" lon="0.91463">
        <ele>966.72</ele>
        <time>2014-07-08T07:10:56Z</time>
      </trkpt>
      <trkpt lat="42.86644" lon="0.91468">
        <ele>969.13</ele>
        <time>2014-07-08T07:11:10Z</time>
      </trkpt>
      <trkpt lat="42.86647" lon="0.91472">
        <ele>967.91</ele>
        <time>2014-07-08T07:11:36Z</time>
      </trkpt>
      <trkpt lat="42.86651" lon="0.91477">
        <ele>967.97</ele>
        <time>2014-07-08T07:11:41Z</time>
      </trkpt>
      <trkpt lat="42.86655" lon="0.91482">
        <ele>967.23</ele>
        <time>2014-07-08T07:11:46Z</time>
      </trkpt>
      <trkpt lat="42.86655" lon="0.91488">
        <ele>968.12</ele>
        <time>2014-07-08T07:11:57Z</time>
      </trkpt>
      <trkpt lat="42.8665" lon="0.91485">
        <ele>961.83</ele>
        <time>2014-07-08T07:12:45Z</time>
      </trkpt>
      <trkpt lat="42.8665" lon="0.91478">
        <ele>963.71</ele>
        <time>2014-07-08T07:12:51Z</time>
      </trkpt>
      <trkpt lat="42.8665" lon="0.91471">
        <ele>966.13</ele>
        <time>2014-07-08T07:12:56Z</time>
      </trkpt>
      <trkpt lat="42.86648" lon="0.91465">
        <ele>968.82</ele>
        <time>2014-07-08T07:13:03Z</time>
      </trkpt>
      <trkpt lat="42.86649" lon="0.91458">
        <ele>970.2</ele>
        <time>2014-07-08T07:13:08Z</time>
      </trkpt>
      <trkpt lat="42.86651" lon="0.91451">
        <ele>970.7</ele>
        <time>2014-07-08T07:13:12Z</time>
      </trkpt>
      <trkpt lat="42.86653" lon="0.91443">
        <ele>972.43</ele>
        <time>2014-07-08T07:13:16Z</time>
      </trkpt>
      <trkpt lat="42.86654" lon="0.91436">
        <ele>971.71</ele>
        <time>2014-07-08T07:13:21Z</time>
      </trkpt>
      <trkpt lat="42.8665" lon="0.91433">
        <ele>971.98</ele>
        <time>2014-07-08T07:13:25Z</time>
      </trkpt>
      <trkpt lat="42.86647" lon="0.91428">
        <ele>970.03</ele>
        <time>2014-07-08T07:13:30Z</time>
      </trkpt>
      <trkpt lat="42.86644" lon="0.91423">
        <ele>970.49</ele>
        <time>2014-07-08T07:13:35Z</time>
      </trkpt>
      <trkpt lat="42.86639" lon="0.91421">
        <ele>971.15</ele>
        <time>2014-07-08T07:13:40Z</time>
      </trkpt>
      <trkpt lat="42.86634" lon="0.91421">
        <ele>972.06</ele>
        <time>2014-07-08T07:13:45Z</time>
      </trkpt>
      <trkpt lat="42.8663" lon="0.9142">
        <ele>972.3</ele>
        <time>2014-07-08T07:13:49Z</time>
      </trkpt>
      <trkpt lat="42.86625" lon="0.91415">
        <ele>972.33</ele>
        <time>2014-07-08T07:13:54Z</time>
      </trkpt>
      <trkpt lat="42.86622" lon="0.9141">
        <ele>972.32</ele>
        <time>2014-07-08T07:13:59Z</time>
      </trkpt>
      <trkpt lat="42.86621" lon="0.91402">
        <ele>971.28</ele>
        <time>2014-07-08T07:14:04Z</time>
      </trkpt>
      <trkpt lat="42.86621" lon="0.91396">
        <ele>969.74</ele>
        <time>2014-07-08T07:14:08Z</time>
      </trkpt>
      <trkpt lat="42.86619" lon="0.9139">
        <ele>968.16</ele>
        <time>2014-07-08T07:14:12Z</time>
      </trkpt>
      <trkpt lat="42.86616" lon="0.91385">
        <ele>969.18</ele>
        <time>2014-07-08T07:14:17Z</time>
      </trkpt>
      <trkpt lat="42.86615" lon="0.91378">
        <ele>968.56</ele>
        <time>2014-07-08T07:14:22Z</time>
      </trkpt>
      <trkpt lat="42.86618" lon="0.91373">
        <ele>970</ele>
        <time>2014-07-08T07:14:25Z</time>
      </trkpt>
      <trkpt lat="42.86621" lon="0.91367">
        <ele>973.27</ele>
        <time>2014-07-08T07:14:29Z</time>
      </trkpt>
      <trkpt lat="42.86619" lon="0.9136">
        <ele>978.08</ele>
        <time>2014-07-08T07:14:35Z</time>
      </trkpt>
      <trkpt lat="42.86619" lon="0.91353">
        <ele>980.18</ele>
        <time>2014-07-08T07:14:41Z</time>
      </trkpt>
      <trkpt lat="42.86616" lon="0.91348">
        <ele>976.85</ele>
        <time>2014-07-08T07:14:46Z</time>
      </trkpt>
      <trkpt lat="42.86612" lon="0.91344">
        <ele>975.99</ele>
        <time>2014-07-08T07:14:51Z</time>
      </trkpt>
      <trkpt lat="42.86609" lon="0.91338">
        <ele>974.61</ele>
        <time>2014-07-08T07:14:56Z</time>
      </trkpt>
      <trkpt lat="42.86607" lon="0.91332">
        <ele>970.96</ele>
        <time>2014-07-08T07:15:02Z</time>
      </trkpt>
      <trkpt lat="42.86608" lon="0.91325">
        <ele>969.52</ele>
        <time>2014-07-08T07:15:07Z</time>
      </trkpt>
      <trkpt lat="42.86605" lon="0.91319">
        <ele>968.01</ele>
        <time>2014-07-08T07:15:12Z</time>
      </trkpt>
      <trkpt lat="42.86601" lon="0.91315">
        <ele>966.95</ele>
        <time>2014-07-08T07:15:16Z</time>
      </trkpt>
      <trkpt lat="42.86598" lon="0.9131">
        <ele>967</ele>
        <time>2014-07-08T07:15:21Z</time>
      </trkpt>
      <trkpt lat="42.86595" lon="0.91305">
        <ele>966.72</ele>
        <time>2014-07-08T07:15:26Z</time>
      </trkpt>
      <trkpt lat="42.86592" lon="0.913">
        <ele>967.36</ele>
        <time>2014-07-08T07:15:31Z</time>
      </trkpt>
      <trkpt lat="42.86591" lon="0.91292">
        <ele>967.86</ele>
        <time>2014-07-08T07:15:36Z</time>
      </trkpt>
      <trkpt lat="42.86594" lon="0.91286">
        <ele>969.26</ele>
        <time>2014-07-08T07:15:39Z</time>
      </trkpt>
      <trkpt lat="42.86597" lon="0.91279">
        <ele>969.15</ele>
        <time>2014-07-08T07:15:43Z</time>
      </trkpt>
      <trkpt lat="42.86595" lon="0.91272">
        <ele>970.07</ele>
        <time>2014-07-08T07:15:49Z</time>
      </trkpt>
      <trkpt lat="42.86591" lon="0.91267">
        <ele>968.86</ele>
        <time>2014-07-08T07:15:55Z</time>
      </trkpt>
      <trkpt lat="42.86587" lon="0.91264">
        <ele>970.05</ele>
        <time>2014-07-08T07:15:59Z</time>
      </trkpt>
      <trkpt lat="42.86586" lon="0.91257">
        <ele>971.39</ele>
        <time>2014-07-08T07:16:05Z</time>
      </trkpt>
      <trkpt lat="42.86585" lon="0.91251">
        <ele>971.84</ele>
        <time>2014-07-08T07:16:11Z</time>
      </trkpt>
      <trkpt lat="42.8659" lon="0.91245">
        <ele>973.18</ele>
        <time>2014-07-08T07:16:17Z</time>
      </trkpt>
      <trkpt lat="42.8659" lon="0.91238">
        <ele>975.75</ele>
        <time>2014-07-08T07:16:23Z</time>
      </trkpt>
      <trkpt lat="42.86589" lon="0.91231">
        <ele>979.04</ele>
        <time>2014-07-08T07:16:29Z</time>
      </trkpt>
      <trkpt lat="42.86589" lon="0.91224">
        <ele>974.8</ele>
        <time>2014-07-08T07:16:34Z</time>
      </trkpt>
      <trkpt lat="42.8659" lon="0.91217">
        <ele>976.75</ele>
        <time>2014-07-08T07:16:39Z</time>
      </trkpt>
      <trkpt lat="42.86589" lon="0.91211">
        <ele>976.57</ele>
        <time>2014-07-08T07:16:44Z</time>
      </trkpt>
      <trkpt lat="42.86586" lon="0.91205">
        <ele>976.01</ele>
        <time>2014-07-08T07:16:50Z</time>
      </trkpt>
      <trkpt lat="42.86583" lon="0.91199">
        <ele>975.03</ele>
        <time>2014-07-08T07:16:56Z</time>
      </trkpt>
      <trkpt lat="42.86584" lon="0.91192">
        <ele>976.19</ele>
        <time>2014-07-08T07:17:02Z</time>
      </trkpt>
      <trkpt lat="42.86584" lon="0.91186">
        <ele>977.13</ele>
        <time>2014-07-08T07:17:08Z</time>
      </trkpt>
      <trkpt lat="42.86582" lon="0.9118">
        <ele>979.47</ele>
        <time>2014-07-08T07:17:20Z</time>
      </trkpt>
      <trkpt lat="42.86582" lon="0.91174">
        <ele>978.89</ele>
        <time>2014-07-08T07:17:25Z</time>
      </trkpt>
      <trkpt lat="42.86582" lon="0.91167">
        <ele>977.27</ele>
        <time>2014-07-08T07:17:30Z</time>
      </trkpt>
      <trkpt lat="42.8658" lon="0.91161">
        <ele>978.88</ele>
        <time>2014-07-08T07:17:36Z</time>
      </trkpt>
      <trkpt lat="42.8658" lon="0.91154">
        <ele>978.44</ele>
        <time>2014-07-08T07:17:41Z</time>
      </trkpt>
      <trkpt lat="42.86581" lon="0.91147">
        <ele>977.28</ele>
        <time>2014-07-08T07:17:45Z</time>
      </trkpt>
      <trkpt lat="42.8658" lon="0.9114">
        <ele>977.37</ele>
        <time>2014-07-08T07:17:50Z</time>
      </trkpt>
      <trkpt lat="42.86576" lon="0.91136">
        <ele>977.77</ele>
        <time>2014-07-08T07:17:54Z</time>
      </trkpt>
      <trkpt lat="42.86578" lon="0.91128">
        <ele>976.89</ele>
        <time>2014-07-08T07:17:59Z</time>
      </trkpt>
      <trkpt lat="42.86579" lon="0.91122">
        <ele>983.11</ele>
        <time>2014-07-08T07:18:04Z</time>
      </trkpt>
      <trkpt lat="42.86578" lon="0.91115">
        <ele>987.08</ele>
        <time>2014-07-08T07:18:10Z</time>
      </trkpt>
      <trkpt lat="42.86577" lon="0.91109">
        <ele>986.87</ele>
        <time>2014-07-08T07:18:17Z</time>
      </trkpt>
      <trkpt lat="42.86578" lon="0.91102">
        <ele>985.41</ele>
        <time>2014-07-08T07:18:22Z</time>
      </trkpt>
      <trkpt lat="42.86577" lon="0.91095">
        <ele>985.81</ele>
        <time>2014-07-08T07:18:28Z</time>
      </trkpt>
      <trkpt lat="42.86573" lon="0.91091">
        <ele>986.26</ele>
        <time>2014-07-08T07:18:33Z</time>
      </trkpt>
      <trkpt lat="42.86572" lon="0.91084">
        <ele>988.27</ele>
        <time>2014-07-08T07:18:38Z</time>
      </trkpt>
      <trkpt lat="42.86573" lon="0.91077">
        <ele>987.9</ele>
        <time>2014-07-08T07:18:42Z</time>
      </trkpt>
      <trkpt lat="42.86575" lon="0.91071">
        <ele>988.17</ele>
        <time>2014-07-08T07:18:46Z</time>
      </trkpt>
      <trkpt lat="42.86577" lon="0.91065">
        <ele>987.75</ele>
        <time>2014-07-08T07:18:50Z</time>
      </trkpt>
      <trkpt lat="42.86575" lon="0.91059">
        <ele>988.81</ele>
        <time>2014-07-08T07:18:56Z</time>
      </trkpt>
      <trkpt lat="42.86578" lon="0.91054">
        <ele>989.92</ele>
        <time>2014-07-08T07:19:03Z</time>
      </trkpt>
      <trkpt lat="42.86574" lon="0.9105">
        <ele>987.31</ele>
        <time>2014-07-08T07:19:09Z</time>
      </trkpt>
      <trkpt lat="42.86569" lon="0.91048">
        <ele>986.09</ele>
        <time>2014-07-08T07:19:12Z</time>
      </trkpt>
      <trkpt lat="42.86565" lon="0.91044">
        <ele>987.33</ele>
        <time>2014-07-08T07:19:17Z</time>
      </trkpt>
      <trkpt lat="42.86562" lon="0.91038">
        <ele>987.38</ele>
        <time>2014-07-08T07:19:22Z</time>
      </trkpt>
      <trkpt lat="42.8656" lon="0.91032">
        <ele>987.71</ele>
        <time>2014-07-08T07:19:29Z</time>
      </trkpt>
      <trkpt lat="42.86555" lon="0.9103">
        <ele>987.44</ele>
        <time>2014-07-08T07:19:35Z</time>
      </trkpt>
      <trkpt lat="42.86553" lon="0.91023">
        <ele>983.9</ele>
        <time>2014-07-08T07:19:40Z</time>
      </trkpt>
      <trkpt lat="42.86551" lon="0.91017">
        <ele>984.32</ele>
        <time>2014-07-08T07:19:46Z</time>
      </trkpt>
      <trkpt lat="42.86554" lon="0.91012">
        <ele>984.45</ele>
        <time>2014-07-08T07:19:50Z</time>
      </trkpt>
      <trkpt lat="42.86554" lon="0.91006">
        <ele>987.54</ele>
        <time>2014-07-08T07:19:57Z</time>
      </trkpt>
      <trkpt lat="42.86553" lon="0.91">
        <ele>987.63</ele>
        <time>2014-07-08T07:20:02Z</time>
      </trkpt>
      <trkpt lat="42.86548" lon="0.90997">
        <ele>989.9</ele>
        <time>2014-07-08T07:20:06Z</time>
      </trkpt>
      <trkpt lat="42.86545" lon="0.90991">
        <ele>992.21</ele>
        <time>2014-07-08T07:20:11Z</time>
      </trkpt>
      <trkpt lat="42.86543" lon="0.90986">
        <ele>991.61</ele>
        <time>2014-07-08T07:20:15Z</time>
      </trkpt>
      <trkpt lat="42.86543" lon="0.90979">
        <ele>991.81</ele>
        <time>2014-07-08T07:20:19Z</time>
      </trkpt>
      <trkpt lat="42.86541" lon="0.90973">
        <ele>990.61</ele>
        <time>2014-07-08T07:20:24Z</time>
      </trkpt>
      <trkpt lat="42.86541" lon="0.90967">
        <ele>992.33</ele>
        <time>2014-07-08T07:20:29Z</time>
      </trkpt>
      <trkpt lat="42.86536" lon="0.90965">
        <ele>993.27</ele>
        <time>2014-07-08T07:20:33Z</time>
      </trkpt>
      <trkpt lat="42.86532" lon="0.90961">
        <ele>993.42</ele>
        <time>2014-07-08T07:20:38Z</time>
      </trkpt>
      <trkpt lat="42.8653" lon="0.90955">
        <ele>995.68</ele>
        <time>2014-07-08T07:20:44Z</time>
      </trkpt>
      <trkpt lat="42.8653" lon="0.90948">
        <ele>998.26</ele>
        <time>2014-07-08T07:20:50Z</time>
      </trkpt>
      <trkpt lat="42.86533" lon="0.90943">
        <ele>999.89</ele>
        <time>2014-07-08T07:20:54Z</time>
      </trkpt>
      <trkpt lat="42.86533" lon="0.90935">
        <ele>1001.11</ele>
        <time>2014-07-08T07:21:02Z</time>
      </trkpt>
      <trkpt lat="42.86533" lon="0.90929">
        <ele>1001.63</ele>
        <time>2014-07-08T07:21:07Z</time>
      </trkpt>
      <trkpt lat="42.86535" lon="0.90922">
        <ele>1004.2</ele>
        <time>2014-07-08T07:21:12Z</time>
      </trkpt>
      <trkpt lat="42.86533" lon="0.90915">
        <ele>1001.59</ele>
        <time>2014-07-08T07:21:18Z</time>
      </trkpt>
      <trkpt lat="42.86532" lon="0.90909">
        <ele>1002.85</ele>
        <time>2014-07-08T07:21:23Z</time>
      </trkpt>
      <trkpt lat="42.86531" lon="0.90903">
        <ele>1004.9</ele>
        <time>2014-07-08T07:21:29Z</time>
      </trkpt>
      <trkpt lat="42.86526" lon="0.90901">
        <ele>1006.71</ele>
        <time>2014-07-08T07:21:35Z</time>
      </trkpt>
      <trkpt lat="42.86527" lon="0.90895">
        <ele>1006.14</ele>
        <time>2014-07-08T07:21:42Z</time>
      </trkpt>
      <trkpt lat="42.86526" lon="0.90888">
        <ele>1003.67</ele>
        <time>2014-07-08T07:21:47Z</time>
      </trkpt>
      <trkpt lat="42.86526" lon="0.90881">
        <ele>1002.61</ele>
        <time>2014-07-08T07:21:53Z</time>
      </trkpt>
      <trkpt lat="42.86526" lon="0.90873">
        <ele>1003.35</ele>
        <time>2014-07-08T07:21:59Z</time>
      </trkpt>
      <trkpt lat="42.86528" lon="0.90868">
        <ele>1002.92</ele>
        <time>2014-07-08T07:22:06Z</time>
      </trkpt>
      <trkpt lat="42.86533" lon="0.90863">
        <ele>1005.04</ele>
        <time>2014-07-08T07:22:11Z</time>
      </trkpt>
      <trkpt lat="42.86536" lon="0.90859">
        <ele>1006.41</ele>
        <time>2014-07-08T07:22:13Z</time>
      </trkpt>
      <trkpt lat="42.86541" lon="0.90854">
        <ele>1006.78</ele>
        <time>2014-07-08T07:22:15Z</time>
      </trkpt>
      <trkpt lat="42.86545" lon="0.90849">
        <ele>1007.26</ele>
        <time>2014-07-08T07:22:18Z</time>
      </trkpt>
      <trkpt lat="42.86548" lon="0.90842">
        <ele>1010.27</ele>
        <time>2014-07-08T07:22:22Z</time>
      </trkpt>
      <trkpt lat="42.86552" lon="0.90838">
        <ele>1011.32</ele>
        <time>2014-07-08T07:22:24Z</time>
      </trkpt>
      <trkpt lat="42.86548" lon="0.90834">
        <ele>1012.99</ele>
        <time>2014-07-08T07:22:29Z</time>
      </trkpt>
      <trkpt lat="42.86543" lon="0.90831">
        <ele>1014.68</ele>
        <time>2014-07-08T07:22:34Z</time>
      </trkpt>
      <trkpt lat="42.86539" lon="0.9083">
        <ele>1015.82</ele>
        <time>2014-07-08T07:22:37Z</time>
      </trkpt>
      <trkpt lat="42.86534" lon="0.90828">
        <ele>1016.88</ele>
        <time>2014-07-08T07:22:41Z</time>
      </trkpt>
      <trkpt lat="42.86528" lon="0.90826">
        <ele>1016.46</ele>
        <time>2014-07-08T07:22:45Z</time>
      </trkpt>
      <trkpt lat="42.86523" lon="0.90826">
        <ele>1017.61</ele>
        <time>2014-07-08T07:22:48Z</time>
      </trkpt>
      <trkpt lat="42.86519" lon="0.90824">
        <ele>1019.65</ele>
        <time>2014-07-08T07:22:52Z</time>
      </trkpt>
      <trkpt lat="42.86519" lon="0.90818">
        <ele>1023.9</ele>
        <time>2014-07-08T07:22:58Z</time>
      </trkpt>
      <trkpt lat="42.86521" lon="0.90812">
        <ele>1024.09</ele>
        <time>2014-07-08T07:23:02Z</time>
      </trkpt>
      <trkpt lat="42.86522" lon="0.90806">
        <ele>1023.44</ele>
        <time>2014-07-08T07:23:07Z</time>
      </trkpt>
      <trkpt lat="42.86525" lon="0.90801">
        <ele>1022.7</ele>
        <time>2014-07-08T07:23:11Z</time>
      </trkpt>
      <trkpt lat="42.8653" lon="0.90795">
        <ele>1023.36</ele>
        <time>2014-07-08T07:23:15Z</time>
      </trkpt>
      <trkpt lat="42.86533" lon="0.90789">
        <ele>1024.51</ele>
        <time>2014-07-08T07:23:20Z</time>
      </trkpt>
      <trkpt lat="42.86535" lon="0.90783">
        <ele>1027.92</ele>
        <time>2014-07-08T07:23:26Z</time>
      </trkpt>
      <trkpt lat="42.8653" lon="0.90782">
        <ele>1028.34</ele>
        <time>2014-07-08T07:23:31Z</time>
      </trkpt>
      <trkpt lat="42.86526" lon="0.90778">
        <ele>1029.83</ele>
        <time>2014-07-08T07:23:38Z</time>
      </trkpt>
      <trkpt lat="42.86521" lon="0.90775">
        <ele>1029.33</ele>
        <time>2014-07-08T07:23:43Z</time>
      </trkpt>
      <trkpt lat="42.86516" lon="0.90774">
        <ele>1028.12</ele>
        <time>2014-07-08T07:23:47Z</time>
      </trkpt>
      <trkpt lat="42.86511" lon="0.90772">
        <ele>1030.17</ele>
        <time>2014-07-08T07:23:51Z</time>
      </trkpt>
      <trkpt lat="42.8651" lon="0.90766">
        <ele>1030.11</ele>
        <time>2014-07-08T07:23:57Z</time>
      </trkpt>
      <trkpt lat="42.86507" lon="0.90761">
        <ele>1032.31</ele>
        <time>2014-07-08T07:24:03Z</time>
      </trkpt>
      <trkpt lat="42.86504" lon="0.90756">
        <ele>1029.99</ele>
        <time>2014-07-08T07:24:09Z</time>
      </trkpt>
      <trkpt lat="42.86504" lon="0.90749">
        <ele>1028.05</ele>
        <time>2014-07-08T07:24:17Z</time>
      </trkpt>
      <trkpt lat="42.86503" lon="0.90743">
        <ele>1025.18</ele>
        <time>2014-07-08T07:24:24Z</time>
      </trkpt>
      <trkpt lat="42.86502" lon="0.90736">
        <ele>1025.63</ele>
        <time>2014-07-08T07:24:31Z</time>
      </trkpt>
      <trkpt lat="42.86503" lon="0.9073">
        <ele>1029.45</ele>
        <time>2014-07-08T07:24:36Z</time>
      </trkpt>
      <trkpt lat="42.86504" lon="0.90723">
        <ele>1027.83</ele>
        <time>2014-07-08T07:24:41Z</time>
      </trkpt>
      <trkpt lat="42.86503" lon="0.90717">
        <ele>1027.74</ele>
        <time>2014-07-08T07:24:47Z</time>
      </trkpt>
      <trkpt lat="42.86502" lon="0.9071">
        <ele>1029.04</ele>
        <time>2014-07-08T07:24:53Z</time>
      </trkpt>
      <trkpt lat="42.86502" lon="0.90703">
        <ele>1032.52</ele>
        <time>2014-07-08T07:25:00Z</time>
      </trkpt>
      <trkpt lat="42.86502" lon="0.90697">
        <ele>1034.12</ele>
        <time>2014-07-08T07:25:09Z</time>
      </trkpt>
      <trkpt lat="42.86496" lon="0.90698">
        <ele>1033.25</ele>
        <time>2014-07-08T07:25:14Z</time>
      </trkpt>
      <trkpt lat="42.86491" lon="0.907">
        <ele>1033.27</ele>
        <time>2014-07-08T07:25:19Z</time>
      </trkpt>
      <trkpt lat="42.86487" lon="0.90698">
        <ele>1034.82</ele>
        <time>2014-07-08T07:25:30Z</time>
      </trkpt>
      <trkpt lat="42.86482" lon="0.90695">
        <ele>1039.34</ele>
        <time>2014-07-08T07:25:35Z</time>
      </trkpt>
      <trkpt lat="42.86477" lon="0.90691">
        <ele>1043.5</ele>
        <time>2014-07-08T07:25:39Z</time>
      </trkpt>
      <trkpt lat="42.86473" lon="0.90689">
        <ele>1043.49</ele>
        <time>2014-07-08T07:25:42Z</time>
      </trkpt>
      <trkpt lat="42.86468" lon="0.90688">
        <ele>1043.3</ele>
        <time>2014-07-08T07:25:45Z</time>
      </trkpt>
      <trkpt lat="42.86464" lon="0.90684">
        <ele>1041.03</ele>
        <time>2014-07-08T07:25:50Z</time>
      </trkpt>
      <trkpt lat="42.86464" lon="0.90677">
        <ele>1041.09</ele>
        <time>2014-07-08T07:25:55Z</time>
      </trkpt>
      <trkpt lat="42.86467" lon="0.90672">
        <ele>1041.83</ele>
        <time>2014-07-08T07:26:01Z</time>
      </trkpt>
      <trkpt lat="42.86467" lon="0.90666">
        <ele>1045.38</ele>
        <time>2014-07-08T07:26:07Z</time>
      </trkpt>
      <trkpt lat="42.86468" lon="0.90659">
        <ele>1047</ele>
        <time>2014-07-08T07:26:12Z</time>
      </trkpt>
      <trkpt lat="42.86472" lon="0.90653">
        <ele>1047.23</ele>
        <time>2014-07-08T07:26:16Z</time>
      </trkpt>
      <trkpt lat="42.86476" lon="0.90649">
        <ele>1047.56</ele>
        <time>2014-07-08T07:26:22Z</time>
      </trkpt>
      <trkpt lat="42.86482" lon="0.90643">
        <ele>1047.89</ele>
        <time>2014-07-08T07:26:25Z</time>
      </trkpt>
      <trkpt lat="42.86487" lon="0.9064">
        <ele>1048.84</ele>
        <time>2014-07-08T07:26:28Z</time>
      </trkpt>
      <trkpt lat="42.86489" lon="0.90634">
        <ele>1048.22</ele>
        <time>2014-07-08T07:26:35Z</time>
      </trkpt>
      <trkpt lat="42.86485" lon="0.90632">
        <ele>1045.62</ele>
        <time>2014-07-08T07:26:47Z</time>
      </trkpt>
      <trkpt lat="42.86489" lon="0.90627">
        <ele>1046.09</ele>
        <time>2014-07-08T07:26:56Z</time>
      </trkpt>
      <trkpt lat="42.86494" lon="0.90624">
        <ele>1046.72</ele>
        <time>2014-07-08T07:26:58Z</time>
      </trkpt>
      <trkpt lat="42.86498" lon="0.90622">
        <ele>1047.85</ele>
        <time>2014-07-08T07:27:12Z</time>
      </trkpt>
      <trkpt lat="42.86495" lon="0.90616">
        <ele>1050.31</ele>
        <time>2014-07-08T07:27:21Z</time>
      </trkpt>
      <trkpt lat="42.86494" lon="0.9061">
        <ele>1054.34</ele>
        <time>2014-07-08T07:27:25Z</time>
      </trkpt>
      <trkpt lat="42.86489" lon="0.90607">
        <ele>1055.8</ele>
        <time>2014-07-08T07:27:29Z</time>
      </trkpt>
      <trkpt lat="42.86485" lon="0.90602">
        <ele>1056.42</ele>
        <time>2014-07-08T07:27:36Z</time>
      </trkpt>
      <trkpt lat="42.86482" lon="0.90597">
        <ele>1053.19</ele>
        <time>2014-07-08T07:27:44Z</time>
      </trkpt>
      <trkpt lat="42.86477" lon="0.90593">
        <ele>1053.93</ele>
        <time>2014-07-08T07:27:55Z</time>
      </trkpt>
      <trkpt lat="42.86471" lon="0.90595">
        <ele>1053.66</ele>
        <time>2014-07-08T07:27:57Z</time>
      </trkpt>
      <trkpt lat="42.86467" lon="0.90593">
        <ele>1055.41</ele>
        <time>2014-07-08T07:28:02Z</time>
      </trkpt>
      <trkpt lat="42.8647" lon="0.90587">
        <ele>1055.87</ele>
        <time>2014-07-08T07:28:08Z</time>
      </trkpt>
      <trkpt lat="42.86469" lon="0.90581">
        <ele>1058.26</ele>
        <time>2014-07-08T07:28:13Z</time>
      </trkpt>
      <trkpt lat="42.86474" lon="0.90576">
        <ele>1059.99</ele>
        <time>2014-07-08T07:28:15Z</time>
      </trkpt>
      <trkpt lat="42.86478" lon="0.90572">
        <ele>1061.87</ele>
        <time>2014-07-08T07:28:18Z</time>
      </trkpt>
      <trkpt lat="42.86481" lon="0.90567">
        <ele>1066.37</ele>
        <time>2014-07-08T07:28:25Z</time>
      </trkpt>
      <trkpt lat="42.86485" lon="0.9056">
        <ele>1070.93</ele>
        <time>2014-07-08T07:28:30Z</time>
      </trkpt>
      <trkpt lat="42.86481" lon="0.90555">
        <ele>1073.82</ele>
        <time>2014-07-08T07:28:33Z</time>
      </trkpt>
      <trkpt lat="42.86475" lon="0.90553">
        <ele>1075.08</ele>
        <time>2014-07-08T07:28:34Z</time>
      </trkpt>
      <trkpt lat="42.86471" lon="0.90552">
        <ele>1076.56</ele>
        <time>2014-07-08T07:28:35Z</time>
      </trkpt>
      <trkpt lat="42.86466" lon="0.90549">
        <ele>1078.02</ele>
        <time>2014-07-08T07:28:39Z</time>
      </trkpt>
      <trkpt lat="42.8647" lon="0.90543">
        <ele>1080.79</ele>
        <time>2014-07-08T07:28:43Z</time>
      </trkpt>
      <trkpt lat="42.86471" lon="0.90536">
        <ele>1088.21</ele>
        <time>2014-07-08T07:28:47Z</time>
      </trkpt>
      <trkpt lat="42.86467" lon="0.90532">
        <ele>1092.78</ele>
        <time>2014-07-08T07:28:53Z</time>
      </trkpt>
      <trkpt lat="42.8647" lon="0.90524">
        <ele>1098.29</ele>
        <time>2014-07-08T07:29:04Z</time>
      </trkpt>
      <trkpt lat="42.86475" lon="0.90524">
        <ele>1100.96</ele>
        <time>2014-07-08T07:29:13Z</time>
      </trkpt>
      <trkpt lat="42.86479" lon="0.90519">
        <ele>1104.7</ele>
        <time>2014-07-08T07:29:16Z</time>
      </trkpt>
      <trkpt lat="42.86483" lon="0.90515">
        <ele>1107.7</ele>
        <time>2014-07-08T07:29:19Z</time>
      </trkpt>
      <trkpt lat="42.86487" lon="0.90512">
        <ele>1110.53</ele>
        <time>2014-07-08T07:30:09Z</time>
      </trkpt>
      <trkpt lat="42.86481" lon="0.90512">
        <ele>1107.97</ele>
        <time>2014-07-08T07:30:24Z</time>
      </trkpt>
      <trkpt lat="42.86475" lon="0.90513">
        <ele>1106.47</ele>
        <time>2014-07-08T07:30:26Z</time>
      </trkpt>
      <trkpt lat="42.86433" lon="0.90528">
        <ele>1103.27</ele>
        <time>2014-07-08T07:30:28Z</time>
      </trkpt>
      <trkpt lat="42.86398" lon="0.90532">
        <ele>1100.73</ele>
        <time>2014-07-08T07:30:38Z</time>
      </trkpt>
      <trkpt lat="42.86393" lon="0.9053">
        <ele>1101.23</ele>
        <time>2014-07-08T07:30:42Z</time>
      </trkpt>
      <trkpt lat="42.86387" lon="0.90531">
        <ele>1101.48</ele>
        <time>2014-07-08T07:30:44Z</time>
      </trkpt>
      <trkpt lat="42.86381" lon="0.90531">
        <ele>1101.85</ele>
        <time>2014-07-08T07:30:46Z</time>
      </trkpt>
      <trkpt lat="42.86376" lon="0.90532">
        <ele>1098.76</ele>
        <time>2014-07-08T07:30:50Z</time>
      </trkpt>
      <trkpt lat="42.86374" lon="0.90525">
        <ele>1092.26</ele>
        <time>2014-07-08T07:31:06Z</time>
      </trkpt>
      <trkpt lat="42.86373" lon="0.90519">
        <ele>1089.97</ele>
        <time>2014-07-08T07:31:15Z</time>
      </trkpt>
      <trkpt lat="42.86367" lon="0.90515">
        <ele>1088.98</ele>
        <time>2014-07-08T07:31:25Z</time>
      </trkpt>
      <trkpt lat="42.86365" lon="0.9051">
        <ele>1089.88</ele>
        <time>2014-07-08T07:31:29Z</time>
      </trkpt>
      <trkpt lat="42.8636" lon="0.90509">
        <ele>1088.66</ele>
        <time>2014-07-08T07:31:32Z</time>
      </trkpt>
      <trkpt lat="42.86354" lon="0.9051">
        <ele>1087.57</ele>
        <time>2014-07-08T07:31:36Z</time>
      </trkpt>
      <trkpt lat="42.86349" lon="0.90507">
        <ele>1087.74</ele>
        <time>2014-07-08T07:31:52Z</time>
      </trkpt>
      <trkpt lat="42.86344" lon="0.90505">
        <ele>1083.76</ele>
        <time>2014-07-08T07:31:55Z</time>
      </trkpt>
      <trkpt lat="42.86339" lon="0.90504">
        <ele>1082.04</ele>
        <time>2014-07-08T07:31:57Z</time>
      </trkpt>
      <trkpt lat="42.86334" lon="0.90503">
        <ele>1080.44</ele>
        <time>2014-07-08T07:31:59Z</time>
      </trkpt>
      <trkpt lat="42.86328" lon="0.90504">
        <ele>1079.33</ele>
        <time>2014-07-08T07:32:01Z</time>
      </trkpt>
      <trkpt lat="42.86323" lon="0.90503">
        <ele>1077.51</ele>
        <time>2014-07-08T07:32:05Z</time>
      </trkpt>
      <trkpt lat="42.86319" lon="0.90499">
        <ele>1077.71</ele>
        <time>2014-07-08T07:32:10Z</time>
      </trkpt>
      <trkpt lat="42.86319" lon="0.90492">
        <ele>1082.1</ele>
        <time>2014-07-08T07:32:37Z</time>
      </trkpt>
      <trkpt lat="42.86312" lon="0.90491">
        <ele>1081.63</ele>
        <time>2014-07-08T07:32:41Z</time>
      </trkpt>
      <trkpt lat="42.86306" lon="0.90491">
        <ele>1078.73</ele>
        <time>2014-07-08T07:32:44Z</time>
      </trkpt>
      <trkpt lat="42.86302" lon="0.90491">
        <ele>1076.92</ele>
        <time>2014-07-08T07:32:47Z</time>
      </trkpt>
      <trkpt lat="42.86298" lon="0.90487">
        <ele>1073.59</ele>
        <time>2014-07-08T07:32:51Z</time>
      </trkpt>
      <trkpt lat="42.86296" lon="0.9048">
        <ele>1071.16</ele>
        <time>2014-07-08T07:32:55Z</time>
      </trkpt>
      <trkpt lat="42.86295" lon="0.90473">
        <ele>1073.25</ele>
        <time>2014-07-08T07:32:59Z</time>
      </trkpt>
      <trkpt lat="42.86293" lon="0.90468">
        <ele>1072.03</ele>
        <time>2014-07-08T07:33:04Z</time>
      </trkpt>
      <trkpt lat="42.86293" lon="0.90461">
        <ele>1069.08</ele>
        <time>2014-07-08T07:33:10Z</time>
      </trkpt>
      <trkpt lat="42.86295" lon="0.90455">
        <ele>1066.12</ele>
        <time>2014-07-08T07:33:16Z</time>
      </trkpt>
      <trkpt lat="42.86297" lon="0.90449">
        <ele>1064.26</ele>
        <time>2014-07-08T07:33:26Z</time>
      </trkpt>
      <trkpt lat="42.86299" lon="0.90443">
        <ele>1062.55</ele>
        <time>2014-07-08T07:33:46Z</time>
      </trkpt>
      <trkpt lat="42.86302" lon="0.90437">
        <ele>1063.38</ele>
        <time>2014-07-08T07:33:50Z</time>
      </trkpt>
      <trkpt lat="42.86302" lon="0.90431">
        <ele>1062.81</ele>
        <time>2014-07-08T07:33:54Z</time>
      </trkpt>
      <trkpt lat="42.86302" lon="0.90424">
        <ele>1059.7</ele>
        <time>2014-07-08T07:33:59Z</time>
      </trkpt>
      <trkpt lat="42.863" lon="0.90418">
        <ele>1058.46</ele>
        <time>2014-07-08T07:34:04Z</time>
      </trkpt>
      <trkpt lat="42.86295" lon="0.90413">
        <ele>1058.66</ele>
        <time>2014-07-08T07:34:08Z</time>
      </trkpt>
      <trkpt lat="42.86291" lon="0.90409">
        <ele>1059.32</ele>
        <time>2014-07-08T07:34:11Z</time>
      </trkpt>
      <trkpt lat="42.86287" lon="0.90405">
        <ele>1059.28</ele>
        <time>2014-07-08T07:34:14Z</time>
      </trkpt>
      <trkpt lat="42.86283" lon="0.90401">
        <ele>1059.93</ele>
        <time>2014-07-08T07:34:17Z</time>
      </trkpt>
      <trkpt lat="42.86278" lon="0.90398">
        <ele>1059.05</ele>
        <time>2014-07-08T07:34:20Z</time>
      </trkpt>
      <trkpt lat="42.86273" lon="0.90397">
        <ele>1059.2</ele>
        <time>2014-07-08T07:34:23Z</time>
      </trkpt>
      <trkpt lat="42.86268" lon="0.90395">
        <ele>1060.97</ele>
        <time>2014-07-08T07:34:26Z</time>
      </trkpt>
      <trkpt lat="42.86264" lon="0.90391">
        <ele>1063.37</ele>
        <time>2014-07-08T07:34:30Z</time>
      </trkpt>
      <trkpt lat="42.86261" lon="0.90387">
        <ele>1061.49</ele>
        <time>2014-07-08T07:34:40Z</time>
      </trkpt>
      <trkpt lat="42.86256" lon="0.90384">
        <ele>1061.48</ele>
        <time>2014-07-08T07:35:01Z</time>
      </trkpt>
      <trkpt lat="42.86252" lon="0.90382">
        <ele>1061.06</ele>
        <time>2014-07-08T07:35:10Z</time>
      </trkpt>
      <trkpt lat="42.86246" lon="0.9038">
        <ele>1062.06</ele>
        <time>2014-07-08T07:35:21Z</time>
      </trkpt>
      <trkpt lat="42.86239" lon="0.90378">
        <ele>1062.89</ele>
        <time>2014-07-08T07:35:23Z</time>
      </trkpt>
      <trkpt lat="42.86234" lon="0.90375">
        <ele>1064.63</ele>
        <time>2014-07-08T07:35:26Z</time>
      </trkpt>
      <trkpt lat="42.86229" lon="0.90373">
        <ele>1067.52</ele>
        <time>2014-07-08T07:35:31Z</time>
      </trkpt>
      <trkpt lat="42.86224" lon="0.9037">
        <ele>1071.86</ele>
        <time>2014-07-08T07:35:46Z</time>
      </trkpt>
      <trkpt lat="42.8622" lon="0.90364">
        <ele>1076.09</ele>
        <time>2014-07-08T07:35:50Z</time>
      </trkpt>
      <trkpt lat="42.86218" lon="0.90359">
        <ele>1079.74</ele>
        <time>2014-07-08T07:35:57Z</time>
      </trkpt>
      <trkpt lat="42.86213" lon="0.90358">
        <ele>1080.06</ele>
        <time>2014-07-08T07:36:19Z</time>
      </trkpt>
      <trkpt lat="42.86208" lon="0.90357">
        <ele>1077.62</ele>
        <time>2014-07-08T07:36:21Z</time>
      </trkpt>
      <trkpt lat="42.86203" lon="0.90356">
        <ele>1075.93</ele>
        <time>2014-07-08T07:36:23Z</time>
      </trkpt>
      <trkpt lat="42.86198" lon="0.90354">
        <ele>1074.78</ele>
        <time>2014-07-08T07:36:25Z</time>
      </trkpt>
      <trkpt lat="42.86194" lon="0.90354">
        <ele>1073.6</ele>
        <time>2014-07-08T07:36:27Z</time>
      </trkpt>
      <trkpt lat="42.86189" lon="0.90353">
        <ele>1072.47</ele>
        <time>2014-07-08T07:36:29Z</time>
      </trkpt>
      <trkpt lat="42.86184" lon="0.9035">
        <ele>1071.16</ele>
        <time>2014-07-08T07:36:32Z</time>
      </trkpt>
      <trkpt lat="42.86178" lon="0.90347">
        <ele>1069.01</ele>
        <time>2014-07-08T07:36:35Z</time>
      </trkpt>
      <trkpt lat="42.86173" lon="0.90345">
        <ele>1067.02</ele>
        <time>2014-07-08T07:36:38Z</time>
      </trkpt>
      <trkpt lat="42.86167" lon="0.90343">
        <ele>1066.24</ele>
        <time>2014-07-08T07:36:41Z</time>
      </trkpt>
      <trkpt lat="42.86161" lon="0.90341">
        <ele>1066.37</ele>
        <time>2014-07-08T07:36:44Z</time>
      </trkpt>
      <trkpt lat="42.86155" lon="0.9034">
        <ele>1065.39</ele>
        <time>2014-07-08T07:36:47Z</time>
      </trkpt>
      <trkpt lat="42.86148" lon="0.90338">
        <ele>1065.94</ele>
        <time>2014-07-08T07:36:50Z</time>
      </trkpt>
      <trkpt lat="42.86144" lon="0.90336">
        <ele>1067.5</ele>
        <time>2014-07-08T07:36:53Z</time>
      </trkpt>
      <trkpt lat="42.86138" lon="0.90335">
        <ele>1068.15</ele>
        <time>2014-07-08T07:36:56Z</time>
      </trkpt>
      <trkpt lat="42.86133" lon="0.90335">
        <ele>1068.77</ele>
        <time>2014-07-08T07:37:04Z</time>
      </trkpt>
      <trkpt lat="42.86129" lon="0.90338">
        <ele>1074.37</ele>
        <time>2014-07-08T07:37:15Z</time>
      </trkpt>
      <trkpt lat="42.86128" lon="0.90344">
        <ele>1070.07</ele>
        <time>2014-07-08T07:39:05Z</time>
      </trkpt>
      <trkpt lat="42.86131" lon="0.90349">
        <ele>1065.24</ele>
        <time>2014-07-08T07:39:14Z</time>
      </trkpt>
      <trkpt lat="42.86131" lon="0.90343">
        <ele>1062.53</ele>
        <time>2014-07-08T07:39:22Z</time>
      </trkpt>
      <trkpt lat="42.86127" lon="0.90339">
        <ele>1062.19</ele>
        <time>2014-07-08T07:39:42Z</time>
      </trkpt>
      <trkpt lat="42.86122" lon="0.90339">
        <ele>1063.87</ele>
        <time>2014-07-08T07:40:06Z</time>
      </trkpt>
      <trkpt lat="42.86118" lon="0.90339">
        <ele>1064.12</ele>
        <time>2014-07-08T07:40:15Z</time>
      </trkpt>
      <trkpt lat="42.86113" lon="0.9034">
        <ele>1063.03</ele>
        <time>2014-07-08T07:40:26Z</time>
      </trkpt>
      <trkpt lat="42.86108" lon="0.90342">
        <ele>1060.7</ele>
        <time>2014-07-08T07:40:31Z</time>
      </trkpt>
      <trkpt lat="42.86104" lon="0.90346">
        <ele>1062.04</ele>
        <time>2014-07-08T07:40:37Z</time>
      </trkpt>
      <trkpt lat="42.86099" lon="0.90345">
        <ele>1075.18</ele>
        <time>2014-07-08T07:41:06Z</time>
      </trkpt>
      <trkpt lat="42.86095" lon="0.90342">
        <ele>1077.82</ele>
        <time>2014-07-08T07:41:08Z</time>
      </trkpt>
      <trkpt lat="42.86089" lon="0.90337">
        <ele>1082.08</ele>
        <time>2014-07-08T07:41:10Z</time>
      </trkpt>
      <trkpt lat="42.86084" lon="0.90334">
        <ele>1084.82</ele>
        <time>2014-07-08T07:41:12Z</time>
      </trkpt>
      <trkpt lat="42.86079" lon="0.90332">
        <ele>1086.63</ele>
        <time>2014-07-08T07:41:14Z</time>
      </trkpt>
      <trkpt lat="42.86074" lon="0.90329">
        <ele>1087.52</ele>
        <time>2014-07-08T07:41:18Z</time>
      </trkpt>
      <trkpt lat="42.86069" lon="0.90327">
        <ele>1087.86</ele>
        <time>2014-07-08T07:41:23Z</time>
      </trkpt>
      <trkpt lat="42.86064" lon="0.90325">
        <ele>1089.69</ele>
        <time>2014-07-08T07:41:26Z</time>
      </trkpt>
      <trkpt lat="42.86059" lon="0.90322">
        <ele>1090.99</ele>
        <time>2014-07-08T07:41:29Z</time>
      </trkpt>
      <trkpt lat="42.86053" lon="0.90318">
        <ele>1094.77</ele>
        <time>2014-07-08T07:41:32Z</time>
      </trkpt>
      <trkpt lat="42.8605" lon="0.90313">
        <ele>1096.41</ele>
        <time>2014-07-08T07:41:35Z</time>
      </trkpt>
      <trkpt lat="42.86047" lon="0.90308">
        <ele>1097.66</ele>
        <time>2014-07-08T07:41:45Z</time>
      </trkpt>
      <trkpt lat="42.86042" lon="0.90306">
        <ele>1097.76</ele>
        <time>2014-07-08T07:41:53Z</time>
      </trkpt>
      <trkpt lat="42.86037" lon="0.90305">
        <ele>1099.36</ele>
        <time>2014-07-08T07:41:55Z</time>
      </trkpt>
      <trkpt lat="42.86031" lon="0.90302">
        <ele>1101.72</ele>
        <time>2014-07-08T07:41:57Z</time>
      </trkpt>
      <trkpt lat="42.86026" lon="0.903">
        <ele>1102.58</ele>
        <time>2014-07-08T07:42:00Z</time>
      </trkpt>
      <trkpt lat="42.86021" lon="0.90298">
        <ele>1104.14</ele>
        <time>2014-07-08T07:42:04Z</time>
      </trkpt>
      <trkpt lat="42.86016" lon="0.90297">
        <ele>1105.38</ele>
        <time>2014-07-08T07:42:08Z</time>
      </trkpt>
      <trkpt lat="42.86011" lon="0.90294">
        <ele>1106.37</ele>
        <time>2014-07-08T07:42:14Z</time>
      </trkpt>
      <trkpt lat="42.86007" lon="0.9029">
        <ele>1109.07</ele>
        <time>2014-07-08T07:42:30Z</time>
      </trkpt>
      <trkpt lat="42.86003" lon="0.90286">
        <ele>1110.42</ele>
        <time>2014-07-08T07:42:51Z</time>
      </trkpt>
      <trkpt lat="42.85998" lon="0.90285">
        <ele>1110.77</ele>
        <time>2014-07-08T07:42:54Z</time>
      </trkpt>
      <trkpt lat="42.85992" lon="0.90284">
        <ele>1109.24</ele>
        <time>2014-07-08T07:42:57Z</time>
      </trkpt>
      <trkpt lat="42.85988" lon="0.90283">
        <ele>1107.93</ele>
        <time>2014-07-08T07:43:00Z</time>
      </trkpt>
      <trkpt lat="42.85981" lon="0.90281">
        <ele>1107.67</ele>
        <time>2014-07-08T07:43:04Z</time>
      </trkpt>
      <trkpt lat="42.85976" lon="0.9028">
        <ele>1107.83</ele>
        <time>2014-07-08T07:43:12Z</time>
      </trkpt>
      <trkpt lat="42.85971" lon="0.9028">
        <ele>1108.15</ele>
        <time>2014-07-08T07:43:18Z</time>
      </trkpt>
      <trkpt lat="42.85967" lon="0.90278">
        <ele>1108.87</ele>
        <time>2014-07-08T07:43:25Z</time>
      </trkpt>
      <trkpt lat="42.85961" lon="0.90277">
        <ele>1108.55</ele>
        <time>2014-07-08T07:43:30Z</time>
      </trkpt>
      <trkpt lat="42.85956" lon="0.90277">
        <ele>1109.89</ele>
        <time>2014-07-08T07:43:34Z</time>
      </trkpt>
      <trkpt lat="42.85951" lon="0.90277">
        <ele>1110.71</ele>
        <time>2014-07-08T07:43:38Z</time>
      </trkpt>
      <trkpt lat="42.85946" lon="0.90275">
        <ele>1113.56</ele>
        <time>2014-07-08T07:43:42Z</time>
      </trkpt>
      <trkpt lat="42.85941" lon="0.90274">
        <ele>1114.88</ele>
        <time>2014-07-08T07:43:47Z</time>
      </trkpt>
      <trkpt lat="42.85936" lon="0.90273">
        <ele>1116.1</ele>
        <time>2014-07-08T07:43:52Z</time>
      </trkpt>
      <trkpt lat="42.85931" lon="0.90273">
        <ele>1116.9</ele>
        <time>2014-07-08T07:43:58Z</time>
      </trkpt>
      <trkpt lat="42.85926" lon="0.90274">
        <ele>1114.74</ele>
        <time>2014-07-08T07:44:05Z</time>
      </trkpt>
      <trkpt lat="42.85922" lon="0.90279">
        <ele>1115.67</ele>
        <time>2014-07-08T07:44:10Z</time>
      </trkpt>
      <trkpt lat="42.85918" lon="0.9028">
        <ele>1119</ele>
        <time>2014-07-08T07:44:26Z</time>
      </trkpt>
      <trkpt lat="42.85913" lon="0.90278">
        <ele>1120.3</ele>
        <time>2014-07-08T07:44:35Z</time>
      </trkpt>
      <trkpt lat="42.85909" lon="0.90275">
        <ele>1123.48</ele>
        <time>2014-07-08T07:44:39Z</time>
      </trkpt>
      <trkpt lat="42.85905" lon="0.9028">
        <ele>1128.67</ele>
        <time>2014-07-08T07:44:50Z</time>
      </trkpt>
      <trkpt lat="42.85901" lon="0.90279">
        <ele>1128.7</ele>
        <time>2014-07-08T07:44:58Z</time>
      </trkpt>
      <trkpt lat="42.85898" lon="0.90273">
        <ele>1122.77</ele>
        <time>2014-07-08T07:45:04Z</time>
      </trkpt>
      <trkpt lat="42.85896" lon="0.90268">
        <ele>1124.71</ele>
        <time>2014-07-08T07:45:48Z</time>
      </trkpt>
      <trkpt lat="42.85891" lon="0.90265">
        <ele>1127.21</ele>
        <time>2014-07-08T07:45:51Z</time>
      </trkpt>
      <trkpt lat="42.85888" lon="0.9026">
        <ele>1128.83</ele>
        <time>2014-07-08T07:46:01Z</time>
      </trkpt>
      <trkpt lat="42.85883" lon="0.90259">
        <ele>1127.82</ele>
        <time>2014-07-08T07:46:04Z</time>
      </trkpt>
      <trkpt lat="42.85879" lon="0.90256">
        <ele>1129.45</ele>
        <time>2014-07-08T07:46:12Z</time>
      </trkpt>
      <trkpt lat="42.85874" lon="0.90253">
        <ele>1131.84</ele>
        <time>2014-07-08T07:46:19Z</time>
      </trkpt>
      <trkpt lat="42.85869" lon="0.90252">
        <ele>1132.02</ele>
        <time>2014-07-08T07:46:32Z</time>
      </trkpt>
      <trkpt lat="42.85863" lon="0.90251">
        <ele>1134.53</ele>
        <time>2014-07-08T07:46:36Z</time>
      </trkpt>
      <trkpt lat="42.85859" lon="0.90249">
        <ele>1135.33</ele>
        <time>2014-07-08T07:46:38Z</time>
      </trkpt>
      <trkpt lat="42.85854" lon="0.90247">
        <ele>1136.16</ele>
        <time>2014-07-08T07:46:40Z</time>
      </trkpt>
      <trkpt lat="42.85848" lon="0.90244">
        <ele>1136.24</ele>
        <time>2014-07-08T07:46:43Z</time>
      </trkpt>
      <trkpt lat="42.85843" lon="0.90241">
        <ele>1137.4</ele>
        <time>2014-07-08T07:46:46Z</time>
      </trkpt>
      <trkpt lat="42.85837" lon="0.90238">
        <ele>1138.35</ele>
        <time>2014-07-08T07:46:49Z</time>
      </trkpt>
      <trkpt lat="42.85832" lon="0.90235">
        <ele>1139.5</ele>
        <time>2014-07-08T07:46:52Z</time>
      </trkpt>
      <trkpt lat="42.85827" lon="0.90236">
        <ele>1140</ele>
        <time>2014-07-08T07:46:56Z</time>
      </trkpt>
      <trkpt lat="42.85822" lon="0.90235">
        <ele>1142.72</ele>
        <time>2014-07-08T07:47:00Z</time>
      </trkpt>
      <trkpt lat="42.85817" lon="0.90236">
        <ele>1144.47</ele>
        <time>2014-07-08T07:47:08Z</time>
      </trkpt>
      <trkpt lat="42.85813" lon="0.90235">
        <ele>1144.61</ele>
        <time>2014-07-08T07:47:13Z</time>
      </trkpt>
      <trkpt lat="42.85809" lon="0.90231">
        <ele>1149.86</ele>
        <time>2014-07-08T07:47:34Z</time>
      </trkpt>
      <trkpt lat="42.85805" lon="0.90229">
        <ele>1152.53</ele>
        <time>2014-07-08T07:47:39Z</time>
      </trkpt>
      <trkpt lat="42.858" lon="0.90226">
        <ele>1155.64</ele>
        <time>2014-07-08T07:47:43Z</time>
      </trkpt>
      <trkpt lat="42.85796" lon="0.90222">
        <ele>1155.75</ele>
        <time>2014-07-08T07:47:47Z</time>
      </trkpt>
      <trkpt lat="42.85791" lon="0.90219">
        <ele>1157.9</ele>
        <time>2014-07-08T07:47:59Z</time>
      </trkpt>
      <trkpt lat="42.85786" lon="0.90217">
        <ele>1158.54</ele>
        <time>2014-07-08T07:48:27Z</time>
      </trkpt>
      <trkpt lat="42.85781" lon="0.90215">
        <ele>1160.54</ele>
        <time>2014-07-08T07:48:33Z</time>
      </trkpt>
      <trkpt lat="42.85777" lon="0.90213">
        <ele>1161.12</ele>
        <time>2014-07-08T07:48:47Z</time>
      </trkpt>
      <trkpt lat="42.85771" lon="0.9021">
        <ele>1159.23</ele>
        <time>2014-07-08T07:48:50Z</time>
      </trkpt>
      <trkpt lat="42.85766" lon="0.90209">
        <ele>1158.06</ele>
        <time>2014-07-08T07:48:53Z</time>
      </trkpt>
      <trkpt lat="42.8576" lon="0.90207">
        <ele>1158.72</ele>
        <time>2014-07-08T07:48:57Z</time>
      </trkpt>
      <trkpt lat="42.85756" lon="0.90205">
        <ele>1160.11</ele>
        <time>2014-07-08T07:49:02Z</time>
      </trkpt>
      <trkpt lat="42.85751" lon="0.90204">
        <ele>1160.1</ele>
        <time>2014-07-08T07:49:11Z</time>
      </trkpt>
      <trkpt lat="42.85746" lon="0.90204">
        <ele>1160.16</ele>
        <time>2014-07-08T07:49:16Z</time>
      </trkpt>
      <trkpt lat="42.85742" lon="0.90202">
        <ele>1160.54</ele>
        <time>2014-07-08T07:49:20Z</time>
      </trkpt>
      <trkpt lat="42.85738" lon="0.90199">
        <ele>1158.66</ele>
        <time>2014-07-08T07:49:31Z</time>
      </trkpt>
      <trkpt lat="42.85733" lon="0.90198">
        <ele>1161.97</ele>
        <time>2014-07-08T07:49:48Z</time>
      </trkpt>
      <trkpt lat="42.85728" lon="0.90199">
        <ele>1159.87</ele>
        <time>2014-07-08T07:50:08Z</time>
      </trkpt>
      <trkpt lat="42.85723" lon="0.90202">
        <ele>1155.51</ele>
        <time>2014-07-08T07:50:12Z</time>
      </trkpt>
      <trkpt lat="42.85719" lon="0.90205">
        <ele>1154.13</ele>
        <time>2014-07-08T07:50:16Z</time>
      </trkpt>
      <trkpt lat="42.85714" lon="0.90207">
        <ele>1154.71</ele>
        <time>2014-07-08T07:50:25Z</time>
      </trkpt>
      <trkpt lat="42.85709" lon="0.90207">
        <ele>1153.61</ele>
        <time>2014-07-08T07:50:28Z</time>
      </trkpt>
      <trkpt lat="42.85703" lon="0.90208">
        <ele>1150.58</ele>
        <time>2014-07-08T07:50:33Z</time>
      </trkpt>
      <trkpt lat="42.85697" lon="0.90213">
        <ele>1144.09</ele>
        <time>2014-07-08T07:50:36Z</time>
      </trkpt>
      <trkpt lat="42.85693" lon="0.90216">
        <ele>1141.38</ele>
        <time>2014-07-08T07:50:40Z</time>
      </trkpt>
      <trkpt lat="42.85689" lon="0.90218">
        <ele>1140.09</ele>
        <time>2014-07-08T07:50:51Z</time>
      </trkpt>
      <trkpt lat="42.85684" lon="0.90216">
        <ele>1140.9</ele>
        <time>2014-07-08T07:50:55Z</time>
      </trkpt>
      <trkpt lat="42.8568" lon="0.90213">
        <ele>1141.23</ele>
        <time>2014-07-08T07:51:01Z</time>
      </trkpt>
      <trkpt lat="42.85676" lon="0.9021">
        <ele>1143.77</ele>
        <time>2014-07-08T07:51:52Z</time>
      </trkpt>
      <trkpt lat="42.85676" lon="0.90203">
        <ele>1149.39</ele>
        <time>2014-07-08T07:53:18Z</time>
      </trkpt>
      <trkpt lat="42.85672" lon="0.90198">
        <ele>1151.24</ele>
        <time>2014-07-08T07:53:22Z</time>
      </trkpt>
      <trkpt lat="42.85673" lon="0.9019">
        <ele>1153.45</ele>
        <time>2014-07-08T07:53:28Z</time>
      </trkpt>
      <trkpt lat="42.85675" lon="0.90185">
        <ele>1155.94</ele>
        <time>2014-07-08T07:53:34Z</time>
      </trkpt>
      <trkpt lat="42.85672" lon="0.90179">
        <ele>1157.98</ele>
        <time>2014-07-08T07:53:56Z</time>
      </trkpt>
      <trkpt lat="42.85669" lon="0.90175">
        <ele>1157.94</ele>
        <time>2014-07-08T07:53:59Z</time>
      </trkpt>
      <trkpt lat="42.85665" lon="0.90169">
        <ele>1159.62</ele>
        <time>2014-07-08T07:54:03Z</time>
      </trkpt>
      <trkpt lat="42.85663" lon="0.90164">
        <ele>1162.16</ele>
        <time>2014-07-08T07:54:07Z</time>
      </trkpt>
      <trkpt lat="42.85659" lon="0.90159">
        <ele>1166.23</ele>
        <time>2014-07-08T07:54:15Z</time>
      </trkpt>
      <trkpt lat="42.85656" lon="0.90155">
        <ele>1166.55</ele>
        <time>2014-07-08T07:54:21Z</time>
      </trkpt>
      <trkpt lat="42.85656" lon="0.90149">
        <ele>1172.47</ele>
        <time>2014-07-08T07:54:44Z</time>
      </trkpt>
      <trkpt lat="42.85654" lon="0.90142">
        <ele>1175.97</ele>
        <time>2014-07-08T07:55:01Z</time>
      </trkpt>
      <trkpt lat="42.85652" lon="0.90136">
        <ele>1178.95</ele>
        <time>2014-07-08T07:55:05Z</time>
      </trkpt>
      <trkpt lat="42.85651" lon="0.90129">
        <ele>1179.95</ele>
        <time>2014-07-08T07:55:11Z</time>
      </trkpt>
      <trkpt lat="42.85649" lon="0.90123">
        <ele>1181.21</ele>
        <time>2014-07-08T07:55:17Z</time>
      </trkpt>
      <trkpt lat="42.85646" lon="0.90119">
        <ele>1181.83</ele>
        <time>2014-07-08T07:55:29Z</time>
      </trkpt>
      <trkpt lat="42.85641" lon="0.90115">
        <ele>1180.69</ele>
        <time>2014-07-08T07:55:48Z</time>
      </trkpt>
      <trkpt lat="42.85638" lon="0.90111">
        <ele>1181.37</ele>
        <time>2014-07-08T07:55:58Z</time>
      </trkpt>
      <trkpt lat="42.85635" lon="0.90106">
        <ele>1184.7</ele>
        <time>2014-07-08T07:56:12Z</time>
      </trkpt>
      <trkpt lat="42.85631" lon="0.90101">
        <ele>1184.58</ele>
        <time>2014-07-08T07:56:21Z</time>
      </trkpt>
      <trkpt lat="42.85629" lon="0.90096">
        <ele>1190.23</ele>
        <time>2014-07-08T07:56:50Z</time>
      </trkpt>
      <trkpt lat="42.85625" lon="0.9009">
        <ele>1190.71</ele>
        <time>2014-07-08T07:56:58Z</time>
      </trkpt>
      <trkpt lat="42.8562" lon="0.9009">
        <ele>1187.66</ele>
        <time>2014-07-08T07:57:04Z</time>
      </trkpt>
      <trkpt lat="42.85614" lon="0.9009">
        <ele>1185.07</ele>
        <time>2014-07-08T07:57:07Z</time>
      </trkpt>
      <trkpt lat="42.85611" lon="0.90086">
        <ele>1184.77</ele>
        <time>2014-07-08T07:57:17Z</time>
      </trkpt>
      <trkpt lat="42.85607" lon="0.90081">
        <ele>1184.77</ele>
        <time>2014-07-08T07:57:26Z</time>
      </trkpt>
      <trkpt lat="42.85605" lon="0.90075">
        <ele>1186.45</ele>
        <time>2014-07-08T07:57:38Z</time>
      </trkpt>
      <trkpt lat="42.85602" lon="0.9007">
        <ele>1187.1</ele>
        <time>2014-07-08T07:57:42Z</time>
      </trkpt>
      <trkpt lat="42.85599" lon="0.90064">
        <ele>1187.9</ele>
        <time>2014-07-08T07:57:46Z</time>
      </trkpt>
      <trkpt lat="42.85599" lon="0.90057">
        <ele>1189.63</ele>
        <time>2014-07-08T07:57:51Z</time>
      </trkpt>
      <trkpt lat="42.85597" lon="0.9005">
        <ele>1188.83</ele>
        <time>2014-07-08T07:57:57Z</time>
      </trkpt>
      <trkpt lat="42.85599" lon="0.90044">
        <ele>1190.73</ele>
        <time>2014-07-08T07:58:02Z</time>
      </trkpt>
      <trkpt lat="42.85601" lon="0.90037">
        <ele>1193.9</ele>
        <time>2014-07-08T07:58:09Z</time>
      </trkpt>
      <trkpt lat="42.856" lon="0.9003">
        <ele>1196.29</ele>
        <time>2014-07-08T07:58:16Z</time>
      </trkpt>
      <trkpt lat="42.856" lon="0.90024">
        <ele>1198.47</ele>
        <time>2014-07-08T07:58:21Z</time>
      </trkpt>
      <trkpt lat="42.85597" lon="0.90018">
        <ele>1197.43</ele>
        <time>2014-07-08T07:58:26Z</time>
      </trkpt>
      <trkpt lat="42.85598" lon="0.90012">
        <ele>1199.78</ele>
        <time>2014-07-08T07:58:44Z</time>
      </trkpt>
      <trkpt lat="42.85595" lon="0.90006">
        <ele>1197.58</ele>
        <time>2014-07-08T07:58:48Z</time>
      </trkpt>
      <trkpt lat="42.85595" lon="0.9">
        <ele>1196.59</ele>
        <time>2014-07-08T07:58:54Z</time>
      </trkpt>
      <trkpt lat="42.85595" lon="0.89994">
        <ele>1195.76</ele>
        <time>2014-07-08T07:59:07Z</time>
      </trkpt>
      <trkpt lat="42.85597" lon="0.89988">
        <ele>1196.54</ele>
        <time>2014-07-08T07:59:12Z</time>
      </trkpt>
      <trkpt lat="42.85597" lon="0.89982">
        <ele>1203.1</ele>
        <time>2014-07-08T07:59:19Z</time>
      </trkpt>
      <trkpt lat="42.85596" lon="0.89975">
        <ele>1206.2</ele>
        <time>2014-07-08T07:59:44Z</time>
      </trkpt>
      <trkpt lat="42.85593" lon="0.89969">
        <ele>1204.11</ele>
        <time>2014-07-08T07:59:49Z</time>
      </trkpt>
      <trkpt lat="42.85591" lon="0.89963">
        <ele>1205.25</ele>
        <time>2014-07-08T07:59:53Z</time>
      </trkpt>
      <trkpt lat="42.85591" lon="0.89957">
        <ele>1206.84</ele>
        <time>2014-07-08T07:59:59Z</time>
      </trkpt>
      <trkpt lat="42.85589" lon="0.89951">
        <ele>1207.46</ele>
        <time>2014-07-08T08:00:15Z</time>
      </trkpt>
      <trkpt lat="42.85589" lon="0.89943">
        <ele>1207</ele>
        <time>2014-07-08T08:00:20Z</time>
      </trkpt>
      <trkpt lat="42.85589" lon="0.89937">
        <ele>1206.8</ele>
        <time>2014-07-08T08:00:24Z</time>
      </trkpt>
      <trkpt lat="42.85587" lon="0.8993">
        <ele>1205.32</ele>
        <time>2014-07-08T08:00:28Z</time>
      </trkpt>
      <trkpt lat="42.85585" lon="0.89923">
        <ele>1206.55</ele>
        <time>2014-07-08T08:00:32Z</time>
      </trkpt>
      <trkpt lat="42.85584" lon="0.89916">
        <ele>1207.37</ele>
        <time>2014-07-08T08:00:36Z</time>
      </trkpt>
      <trkpt lat="42.85585" lon="0.8991">
        <ele>1209.22</ele>
        <time>2014-07-08T08:00:43Z</time>
      </trkpt>
      <trkpt lat="42.85586" lon="0.89902">
        <ele>1208.71</ele>
        <time>2014-07-08T08:01:00Z</time>
      </trkpt>
      <trkpt lat="42.85585" lon="0.89896">
        <ele>1209.94</ele>
        <time>2014-07-08T08:01:04Z</time>
      </trkpt>
      <trkpt lat="42.85584" lon="0.8989">
        <ele>1208.25</ele>
        <time>2014-07-08T08:01:08Z</time>
      </trkpt>
      <trkpt lat="42.85582" lon="0.89884">
        <ele>1205.33</ele>
        <time>2014-07-08T08:01:12Z</time>
      </trkpt>
      <trkpt lat="42.85581" lon="0.89878">
        <ele>1202.24</ele>
        <time>2014-07-08T08:01:18Z</time>
      </trkpt>
      <trkpt lat="42.85582" lon="0.89872">
        <ele>1201.95</ele>
        <time>2014-07-08T08:01:27Z</time>
      </trkpt>
      <trkpt lat="42.85585" lon="0.89866">
        <ele>1202.59</ele>
        <time>2014-07-08T08:01:33Z</time>
      </trkpt>
      <trkpt lat="42.85584" lon="0.8986">
        <ele>1203.26</ele>
        <time>2014-07-08T08:01:38Z</time>
      </trkpt>
      <trkpt lat="42.8558" lon="0.89857">
        <ele>1201.29</ele>
        <time>2014-07-08T08:01:50Z</time>
      </trkpt>
      <trkpt lat="42.85576" lon="0.89854">
        <ele>1203.14</ele>
        <time>2014-07-08T08:02:41Z</time>
      </trkpt>
      <trkpt lat="42.85571" lon="0.89853">
        <ele>1205.8</ele>
        <time>2014-07-08T08:03:37Z</time>
      </trkpt>
      <trkpt lat="42.85566" lon="0.89851">
        <ele>1207.79</ele>
        <time>2014-07-08T08:03:42Z</time>
      </trkpt>
      <trkpt lat="42.85563" lon="0.89847">
        <ele>1205.48</ele>
        <time>2014-07-08T08:05:51Z</time>
      </trkpt>
      <trkpt lat="42.85562" lon="0.8984">
        <ele>1199.26</ele>
        <time>2014-07-08T08:06:33Z</time>
      </trkpt>
      <trkpt lat="42.85559" lon="0.89835">
        <ele>1196.73</ele>
        <time>2014-07-08T08:06:39Z</time>
      </trkpt>
      <trkpt lat="42.85554" lon="0.89832">
        <ele>1195.82</ele>
        <time>2014-07-08T08:06:46Z</time>
      </trkpt>
      <trkpt lat="42.85553" lon="0.89826">
        <ele>1194.93</ele>
        <time>2014-07-08T08:06:57Z</time>
      </trkpt>
      <trkpt lat="42.85548" lon="0.89822">
        <ele>1197.55</ele>
        <time>2014-07-08T08:07:07Z</time>
      </trkpt>
      <trkpt lat="42.85546" lon="0.89816">
        <ele>1200.52</ele>
        <time>2014-07-08T08:07:12Z</time>
      </trkpt>
      <trkpt lat="42.85548" lon="0.8981">
        <ele>1203.4</ele>
        <time>2014-07-08T08:07:22Z</time>
      </trkpt>
      <trkpt lat="42.85552" lon="0.89805">
        <ele>1204.64</ele>
        <time>2014-07-08T08:07:27Z</time>
      </trkpt>
      <trkpt lat="42.85552" lon="0.89799">
        <ele>1204.27</ele>
        <time>2014-07-08T08:07:35Z</time>
      </trkpt>
      <trkpt lat="42.85549" lon="0.89794">
        <ele>1204.6</ele>
        <time>2014-07-08T08:07:49Z</time>
      </trkpt>
      <trkpt lat="42.85547" lon="0.89789">
        <ele>1204.87</ele>
        <time>2014-07-08T08:07:57Z</time>
      </trkpt>
      <trkpt lat="42.85545" lon="0.89782">
        <ele>1206.9</ele>
        <time>2014-07-08T08:08:04Z</time>
      </trkpt>
      <trkpt lat="42.85545" lon="0.89775">
        <ele>1205.49</ele>
        <time>2014-07-08T08:08:10Z</time>
      </trkpt>
      <trkpt lat="42.85549" lon="0.89771">
        <ele>1206.75</ele>
        <time>2014-07-08T08:08:23Z</time>
      </trkpt>
      <trkpt lat="42.8555" lon="0.89764">
        <ele>1210.02</ele>
        <time>2014-07-08T08:08:30Z</time>
      </trkpt>
      <trkpt lat="42.85553" lon="0.89759">
        <ele>1210.22</ele>
        <time>2014-07-08T08:08:38Z</time>
      </trkpt>
      <trkpt lat="42.85554" lon="0.89753">
        <ele>1209.24</ele>
        <time>2014-07-08T08:08:46Z</time>
      </trkpt>
      <trkpt lat="42.85555" lon="0.89747">
        <ele>1210.75</ele>
        <time>2014-07-08T08:08:54Z</time>
      </trkpt>
      <trkpt lat="42.85555" lon="0.8974">
        <ele>1206.89</ele>
        <time>2014-07-08T08:09:00Z</time>
      </trkpt>
      <trkpt lat="42.85554" lon="0.89733">
        <ele>1207.01</ele>
        <time>2014-07-08T08:09:07Z</time>
      </trkpt>
      <trkpt lat="42.85553" lon="0.89727">
        <ele>1203.18</ele>
        <time>2014-07-08T08:09:13Z</time>
      </trkpt>
      <trkpt lat="42.85553" lon="0.89721">
        <ele>1204.23</ele>
        <time>2014-07-08T08:09:19Z</time>
      </trkpt>
      <trkpt lat="42.85553" lon="0.89714">
        <ele>1203.62</ele>
        <time>2014-07-08T08:09:25Z</time>
      </trkpt>
      <trkpt lat="42.85553" lon="0.89708">
        <ele>1203.09</ele>
        <time>2014-07-08T08:09:33Z</time>
      </trkpt>
      <trkpt lat="42.85554" lon="0.89701">
        <ele>1205.17</ele>
        <time>2014-07-08T08:09:40Z</time>
      </trkpt>
      <trkpt lat="42.85555" lon="0.89695">
        <ele>1209.18</ele>
        <time>2014-07-08T08:09:45Z</time>
      </trkpt>
      <trkpt lat="42.85553" lon="0.89688">
        <ele>1207.86</ele>
        <time>2014-07-08T08:09:53Z</time>
      </trkpt>
      <trkpt lat="42.85551" lon="0.89683">
        <ele>1206.88</ele>
        <time>2014-07-08T08:09:58Z</time>
      </trkpt>
      <trkpt lat="42.85549" lon="0.89677">
        <ele>1207.69</ele>
        <time>2014-07-08T08:10:04Z</time>
      </trkpt>
      <trkpt lat="42.85547" lon="0.89671">
        <ele>1208.3</ele>
        <time>2014-07-08T08:10:18Z</time>
      </trkpt>
      <trkpt lat="42.85546" lon="0.89665">
        <ele>1207.63</ele>
        <time>2014-07-08T08:10:23Z</time>
      </trkpt>
      <trkpt lat="42.85544" lon="0.89657">
        <ele>1208.89</ele>
        <time>2014-07-08T08:10:29Z</time>
      </trkpt>
      <trkpt lat="42.85541" lon="0.89651">
        <ele>1209.27</ele>
        <time>2014-07-08T08:10:33Z</time>
      </trkpt>
      <trkpt lat="42.85539" lon="0.89644">
        <ele>1211.82</ele>
        <time>2014-07-08T08:10:37Z</time>
      </trkpt>
      <trkpt lat="42.85539" lon="0.89638">
        <ele>1214.53</ele>
        <time>2014-07-08T08:10:43Z</time>
      </trkpt>
      <trkpt lat="42.85537" lon="0.89632">
        <ele>1211.68</ele>
        <time>2014-07-08T08:10:57Z</time>
      </trkpt>
      <trkpt lat="42.85532" lon="0.89634">
        <ele>1215</ele>
        <time>2014-07-08T08:11:04Z</time>
      </trkpt>
      <trkpt lat="42.85529" lon="0.89628">
        <ele>1217.96</ele>
        <time>2014-07-08T08:11:11Z</time>
      </trkpt>
      <trkpt lat="42.85524" lon="0.89628">
        <ele>1217.32</ele>
        <time>2014-07-08T08:11:17Z</time>
      </trkpt>
      <trkpt lat="42.8552" lon="0.89629">
        <ele>1216.48</ele>
        <time>2014-07-08T08:11:22Z</time>
      </trkpt>
      <trkpt lat="42.85515" lon="0.89632">
        <ele>1214.24</ele>
        <time>2014-07-08T08:11:26Z</time>
      </trkpt>
      <trkpt lat="42.85513" lon="0.89638">
        <ele>1212.57</ele>
        <time>2014-07-08T08:11:31Z</time>
      </trkpt>
      <trkpt lat="42.85507" lon="0.89639">
        <ele>1211.69</ele>
        <time>2014-07-08T08:11:35Z</time>
      </trkpt>
      <trkpt lat="42.85502" lon="0.89641">
        <ele>1209.18</ele>
        <time>2014-07-08T08:11:39Z</time>
      </trkpt>
      <trkpt lat="42.85498" lon="0.89646">
        <ele>1210.22</ele>
        <time>2014-07-08T08:11:45Z</time>
      </trkpt>
      <trkpt lat="42.85495" lon="0.89651">
        <ele>1211.47</ele>
        <time>2014-07-08T08:11:51Z</time>
      </trkpt>
      <trkpt lat="42.8549" lon="0.89653">
        <ele>1212.84</ele>
        <time>2014-07-08T08:11:56Z</time>
      </trkpt>
      <trkpt lat="42.85484" lon="0.89654">
        <ele>1216.85</ele>
        <time>2014-07-08T08:12:01Z</time>
      </trkpt>
      <trkpt lat="42.85484" lon="0.89647">
        <ele>1220.64</ele>
        <time>2014-07-08T08:12:16Z</time>
      </trkpt>
      <trkpt lat="42.85488" lon="0.89646">
        <ele>1220.25</ele>
        <time>2014-07-08T08:12:33Z</time>
      </trkpt>
      <trkpt lat="42.8549" lon="0.8964">
        <ele>1224.47</ele>
        <time>2014-07-08T08:12:48Z</time>
      </trkpt>
      <trkpt lat="42.85493" lon="0.89635">
        <ele>1229.61</ele>
        <time>2014-07-08T08:13:04Z</time>
      </trkpt>
      <trkpt lat="42.85496" lon="0.8963">
        <ele>1231</ele>
        <time>2014-07-08T08:13:11Z</time>
      </trkpt>
      <trkpt lat="42.855" lon="0.89624">
        <ele>1233.16</ele>
        <time>2014-07-08T08:13:16Z</time>
      </trkpt>
      <trkpt lat="42.855" lon="0.89617">
        <ele>1233.23</ele>
        <time>2014-07-08T08:13:21Z</time>
      </trkpt>
      <trkpt lat="42.855" lon="0.89611">
        <ele>1231.93</ele>
        <time>2014-07-08T08:13:26Z</time>
      </trkpt>
      <trkpt lat="42.85498" lon="0.89605">
        <ele>1229.73</ele>
        <time>2014-07-08T08:13:30Z</time>
      </trkpt>
      <trkpt lat="42.85495" lon="0.896">
        <ele>1228.19</ele>
        <time>2014-07-08T08:13:40Z</time>
      </trkpt>
      <trkpt lat="42.85493" lon="0.89593">
        <ele>1229.42</ele>
        <time>2014-07-08T08:13:44Z</time>
      </trkpt>
      <trkpt lat="42.85491" lon="0.89586">
        <ele>1229.91</ele>
        <time>2014-07-08T08:13:47Z</time>
      </trkpt>
      <trkpt lat="42.85491" lon="0.89579">
        <ele>1231.43</ele>
        <time>2014-07-08T08:13:53Z</time>
      </trkpt>
      <trkpt lat="42.85495" lon="0.89575">
        <ele>1231.11</ele>
        <time>2014-07-08T08:14:00Z</time>
      </trkpt>
      <trkpt lat="42.85496" lon="0.89569">
        <ele>1225.26</ele>
        <time>2014-07-08T08:14:15Z</time>
      </trkpt>
      <trkpt lat="42.85495" lon="0.89562">
        <ele>1224.14</ele>
        <time>2014-07-08T08:14:21Z</time>
      </trkpt>
      <trkpt lat="42.85494" lon="0.89556">
        <ele>1221.95</ele>
        <time>2014-07-08T08:14:30Z</time>
      </trkpt>
      <trkpt lat="42.85494" lon="0.89549">
        <ele>1226.24</ele>
        <time>2014-07-08T08:14:38Z</time>
      </trkpt>
      <trkpt lat="42.85494" lon="0.89543">
        <ele>1228.85</ele>
        <time>2014-07-08T08:14:45Z</time>
      </trkpt>
      <trkpt lat="42.8549" lon="0.89539">
        <ele>1228.35</ele>
        <time>2014-07-08T08:14:51Z</time>
      </trkpt>
      <trkpt lat="42.85486" lon="0.89535">
        <ele>1226.74</ele>
        <time>2014-07-08T08:14:56Z</time>
      </trkpt>
      <trkpt lat="42.85484" lon="0.89529">
        <ele>1230.16</ele>
        <time>2014-07-08T08:15:02Z</time>
      </trkpt>
      <trkpt lat="42.85481" lon="0.89524">
        <ele>1232.56</ele>
        <time>2014-07-08T08:15:08Z</time>
      </trkpt>
      <trkpt lat="42.85478" lon="0.89517">
        <ele>1235.8</ele>
        <time>2014-07-08T08:15:18Z</time>
      </trkpt>
      <trkpt lat="42.85478" lon="0.89509">
        <ele>1236.33</ele>
        <time>2014-07-08T08:15:22Z</time>
      </trkpt>
      <trkpt lat="42.85478" lon="0.89502">
        <ele>1236.83</ele>
        <time>2014-07-08T08:15:26Z</time>
      </trkpt>
      <trkpt lat="42.85478" lon="0.89496">
        <ele>1234.52</ele>
        <time>2014-07-08T08:15:40Z</time>
      </trkpt>
      <trkpt lat="42.8548" lon="0.89489">
        <ele>1234.31</ele>
        <time>2014-07-08T08:15:50Z</time>
      </trkpt>
      <trkpt lat="42.85481" lon="0.89483">
        <ele>1231.39</ele>
        <time>2014-07-08T08:15:57Z</time>
      </trkpt>
      <trkpt lat="42.85482" lon="0.89477">
        <ele>1230.54</ele>
        <time>2014-07-08T08:16:02Z</time>
      </trkpt>
      <trkpt lat="42.85483" lon="0.89471">
        <ele>1231.72</ele>
        <time>2014-07-08T08:16:07Z</time>
      </trkpt>
      <trkpt lat="42.85484" lon="0.89464">
        <ele>1231.12</ele>
        <time>2014-07-08T08:16:12Z</time>
      </trkpt>
      <trkpt lat="42.85484" lon="0.89458">
        <ele>1229.21</ele>
        <time>2014-07-08T08:16:18Z</time>
      </trkpt>
      <trkpt lat="42.85488" lon="0.89453">
        <ele>1230.51</ele>
        <time>2014-07-08T08:16:23Z</time>
      </trkpt>
      <trkpt lat="42.85492" lon="0.89449">
        <ele>1233.16</ele>
        <time>2014-07-08T08:16:27Z</time>
      </trkpt>
      <trkpt lat="42.85494" lon="0.89443">
        <ele>1233.87</ele>
        <time>2014-07-08T08:16:33Z</time>
      </trkpt>
      <trkpt lat="42.85492" lon="0.89437">
        <ele>1233.09</ele>
        <time>2014-07-08T08:16:41Z</time>
      </trkpt>
      <trkpt lat="42.85494" lon="0.89431">
        <ele>1236.6</ele>
        <time>2014-07-08T08:16:52Z</time>
      </trkpt>
      <trkpt lat="42.85495" lon="0.89425">
        <ele>1239.11</ele>
        <time>2014-07-08T08:17:03Z</time>
      </trkpt>
      <trkpt lat="42.85493" lon="0.89419">
        <ele>1241.22</ele>
        <time>2014-07-08T08:17:18Z</time>
      </trkpt>
      <trkpt lat="42.8549" lon="0.89413">
        <ele>1240.42</ele>
        <time>2014-07-08T08:17:23Z</time>
      </trkpt>
      <trkpt lat="42.85488" lon="0.89408">
        <ele>1241.03</ele>
        <time>2014-07-08T08:17:32Z</time>
      </trkpt>
      <trkpt lat="42.85485" lon="0.89401">
        <ele>1239.54</ele>
        <time>2014-07-08T08:17:37Z</time>
      </trkpt>
      <trkpt lat="42.85484" lon="0.89395">
        <ele>1239.77</ele>
        <time>2014-07-08T08:17:45Z</time>
      </trkpt>
      <trkpt lat="42.8548" lon="0.89391">
        <ele>1237.38</ele>
        <time>2014-07-08T08:17:52Z</time>
      </trkpt>
      <trkpt lat="42.85475" lon="0.89387">
        <ele>1235.66</ele>
        <time>2014-07-08T08:17:57Z</time>
      </trkpt>
      <trkpt lat="42.85471" lon="0.89382">
        <ele>1234.65</ele>
        <time>2014-07-08T08:18:00Z</time>
      </trkpt>
      <trkpt lat="42.85467" lon="0.89379">
        <ele>1234.7</ele>
        <time>2014-07-08T08:18:03Z</time>
      </trkpt>
      <trkpt lat="42.85462" lon="0.89374">
        <ele>1235.58</ele>
        <time>2014-07-08T08:18:07Z</time>
      </trkpt>
      <trkpt lat="42.8546" lon="0.89368">
        <ele>1239.19</ele>
        <time>2014-07-08T08:18:14Z</time>
      </trkpt>
      <trkpt lat="42.85459" lon="0.89362">
        <ele>1244.41</ele>
        <time>2014-07-08T08:18:21Z</time>
      </trkpt>
      <trkpt lat="42.85456" lon="0.89357">
        <ele>1247.34</ele>
        <time>2014-07-08T08:18:32Z</time>
      </trkpt>
      <trkpt lat="42.85453" lon="0.89352">
        <ele>1248.11</ele>
        <time>2014-07-08T08:18:35Z</time>
      </trkpt>
      <trkpt lat="42.85449" lon="0.89347">
        <ele>1248.15</ele>
        <time>2014-07-08T08:18:41Z</time>
      </trkpt>
      <trkpt lat="42.85446" lon="0.89343">
        <ele>1248.62</ele>
        <time>2014-07-08T08:18:46Z</time>
      </trkpt>
      <trkpt lat="42.85442" lon="0.89338">
        <ele>1251.39</ele>
        <time>2014-07-08T08:18:52Z</time>
      </trkpt>
      <trkpt lat="42.85439" lon="0.89332">
        <ele>1251.11</ele>
        <time>2014-07-08T08:18:56Z</time>
      </trkpt>
      <trkpt lat="42.85435" lon="0.89327">
        <ele>1249.41</ele>
        <time>2014-07-08T08:19:01Z</time>
      </trkpt>
      <trkpt lat="42.85432" lon="0.89323">
        <ele>1251.12</ele>
        <time>2014-07-08T08:19:07Z</time>
      </trkpt>
      <trkpt lat="42.85428" lon="0.89318">
        <ele>1252.35</ele>
        <time>2014-07-08T08:19:15Z</time>
      </trkpt>
      <trkpt lat="42.85425" lon="0.89313">
        <ele>1254.94</ele>
        <time>2014-07-08T08:19:25Z</time>
      </trkpt>
      <trkpt lat="42.85421" lon="0.89309">
        <ele>1254.37</ele>
        <time>2014-07-08T08:19:30Z</time>
      </trkpt>
      <trkpt lat="42.85417" lon="0.89305">
        <ele>1254.51</ele>
        <time>2014-07-08T08:19:35Z</time>
      </trkpt>
      <trkpt lat="42.85414" lon="0.893">
        <ele>1257.02</ele>
        <time>2014-07-08T08:19:46Z</time>
      </trkpt>
      <trkpt lat="42.85409" lon="0.89299">
        <ele>1259.24</ele>
        <time>2014-07-08T08:19:51Z</time>
      </trkpt>
      <trkpt lat="42.85404" lon="0.89297">
        <ele>1260.6</ele>
        <time>2014-07-08T08:19:56Z</time>
      </trkpt>
      <trkpt lat="42.85401" lon="0.89292">
        <ele>1262.26</ele>
        <time>2014-07-08T08:20:00Z</time>
      </trkpt>
      <trkpt lat="42.85397" lon="0.89289">
        <ele>1263.72</ele>
        <time>2014-07-08T08:20:05Z</time>
      </trkpt>
      <trkpt lat="42.85394" lon="0.89284">
        <ele>1263.4</ele>
        <time>2014-07-08T08:20:09Z</time>
      </trkpt>
      <trkpt lat="42.85391" lon="0.89279">
        <ele>1264.79</ele>
        <time>2014-07-08T08:20:14Z</time>
      </trkpt>
      <trkpt lat="42.85388" lon="0.89274">
        <ele>1267.7</ele>
        <time>2014-07-08T08:20:23Z</time>
      </trkpt>
      <trkpt lat="42.85385" lon="0.89268">
        <ele>1272.95</ele>
        <time>2014-07-08T08:20:33Z</time>
      </trkpt>
      <trkpt lat="42.85382" lon="0.89263">
        <ele>1276.71</ele>
        <time>2014-07-08T08:20:56Z</time>
      </trkpt>
      <trkpt lat="42.85381" lon="0.89256">
        <ele>1282.49</ele>
        <time>2014-07-08T08:21:03Z</time>
      </trkpt>
      <trkpt lat="42.85381" lon="0.89249">
        <ele>1286.38</ele>
        <time>2014-07-08T08:21:12Z</time>
      </trkpt>
      <trkpt lat="42.85377" lon="0.89245">
        <ele>1286.52</ele>
        <time>2014-07-08T08:21:25Z</time>
      </trkpt>
      <trkpt lat="42.85375" lon="0.89239">
        <ele>1287.45</ele>
        <time>2014-07-08T08:21:34Z</time>
      </trkpt>
      <trkpt lat="42.85374" lon="0.89232">
        <ele>1292.08</ele>
        <time>2014-07-08T08:21:39Z</time>
      </trkpt>
      <trkpt lat="42.85373" lon="0.89226">
        <ele>1293.87</ele>
        <time>2014-07-08T08:22:02Z</time>
      </trkpt>
      <trkpt lat="42.85377" lon="0.89221">
        <ele>1293.29</ele>
        <time>2014-07-08T08:22:07Z</time>
      </trkpt>
      <trkpt lat="42.85378" lon="0.89215">
        <ele>1293.56</ele>
        <time>2014-07-08T08:22:11Z</time>
      </trkpt>
      <trkpt lat="42.8538" lon="0.89209">
        <ele>1295.55</ele>
        <time>2014-07-08T08:22:20Z</time>
      </trkpt>
      <trkpt lat="42.85382" lon="0.89202">
        <ele>1296.34</ele>
        <time>2014-07-08T08:22:25Z</time>
      </trkpt>
      <trkpt lat="42.85384" lon="0.89195">
        <ele>1295.66</ele>
        <time>2014-07-08T08:22:30Z</time>
      </trkpt>
      <trkpt lat="42.85387" lon="0.8919">
        <ele>1296.95</ele>
        <time>2014-07-08T08:22:34Z</time>
      </trkpt>
      <trkpt lat="42.85391" lon="0.89185">
        <ele>1298.11</ele>
        <time>2014-07-08T08:22:38Z</time>
      </trkpt>
      <trkpt lat="42.85393" lon="0.89179">
        <ele>1298.01</ele>
        <time>2014-07-08T08:22:42Z</time>
      </trkpt>
      <trkpt lat="42.85392" lon="0.89172">
        <ele>1299</ele>
        <time>2014-07-08T08:22:48Z</time>
      </trkpt>
      <trkpt lat="42.85391" lon="0.89166">
        <ele>1297.29</ele>
        <time>2014-07-08T08:22:54Z</time>
      </trkpt>
      <trkpt lat="42.85391" lon="0.89159">
        <ele>1294.65</ele>
        <time>2014-07-08T08:23:01Z</time>
      </trkpt>
      <trkpt lat="42.85392" lon="0.89153">
        <ele>1293.19</ele>
        <time>2014-07-08T08:23:08Z</time>
      </trkpt>
      <trkpt lat="42.85392" lon="0.89146">
        <ele>1291.08</ele>
        <time>2014-07-08T08:23:14Z</time>
      </trkpt>
      <trkpt lat="42.85394" lon="0.8914">
        <ele>1292.22</ele>
        <time>2014-07-08T08:23:25Z</time>
      </trkpt>
      <trkpt lat="42.85397" lon="0.89136">
        <ele>1292.46</ele>
        <time>2014-07-08T08:23:31Z</time>
      </trkpt>
      <trkpt lat="42.854" lon="0.8913">
        <ele>1292.79</ele>
        <time>2014-07-08T08:23:38Z</time>
      </trkpt>
      <trkpt lat="42.85402" lon="0.89124">
        <ele>1293.32</ele>
        <time>2014-07-08T08:23:45Z</time>
      </trkpt>
      <trkpt lat="42.85402" lon="0.89118">
        <ele>1291.82</ele>
        <time>2014-07-08T08:23:51Z</time>
      </trkpt>
      <trkpt lat="42.85402" lon="0.89111">
        <ele>1290.76</ele>
        <time>2014-07-08T08:23:57Z</time>
      </trkpt>
      <trkpt lat="42.85401" lon="0.89105">
        <ele>1290.16</ele>
        <time>2014-07-08T08:24:20Z</time>
      </trkpt>
      <trkpt lat="42.85397" lon="0.89103">
        <ele>1298.67</ele>
        <time>2014-07-08T08:28:59Z</time>
      </trkpt>
      <trkpt lat="42.85393" lon="0.89098">
        <ele>1295.24</ele>
        <time>2014-07-08T08:29:51Z</time>
      </trkpt>
      <trkpt lat="42.85388" lon="0.89093">
        <ele>1294.12</ele>
        <time>2014-07-08T08:29:56Z</time>
      </trkpt>
      <trkpt lat="42.85384" lon="0.89089">
        <ele>1291.91</ele>
        <time>2014-07-08T08:30:01Z</time>
      </trkpt>
      <trkpt lat="42.85381" lon="0.89084">
        <ele>1291.67</ele>
        <time>2014-07-08T08:30:07Z</time>
      </trkpt>
      <trkpt lat="42.85377" lon="0.8908">
        <ele>1291.62</ele>
        <time>2014-07-08T08:30:11Z</time>
      </trkpt>
      <trkpt lat="42.85373" lon="0.89076">
        <ele>1288.9</ele>
        <time>2014-07-08T08:30:15Z</time>
      </trkpt>
      <trkpt lat="42.85369" lon="0.89073">
        <ele>1286.51</ele>
        <time>2014-07-08T08:30:18Z</time>
      </trkpt>
      <trkpt lat="42.85364" lon="0.89068">
        <ele>1283.76</ele>
        <time>2014-07-08T08:30:22Z</time>
      </trkpt>
      <trkpt lat="42.8536" lon="0.89064">
        <ele>1282.54</ele>
        <time>2014-07-08T08:30:26Z</time>
      </trkpt>
      <trkpt lat="42.85356" lon="0.89059">
        <ele>1283.7</ele>
        <time>2014-07-08T08:30:30Z</time>
      </trkpt>
      <trkpt lat="42.85353" lon="0.89055">
        <ele>1286.12</ele>
        <time>2014-07-08T08:30:37Z</time>
      </trkpt>
      <trkpt lat="42.8535" lon="0.8905">
        <ele>1286.85</ele>
        <time>2014-07-08T08:30:45Z</time>
      </trkpt>
      <trkpt lat="42.85345" lon="0.89047">
        <ele>1284.81</ele>
        <time>2014-07-08T08:30:52Z</time>
      </trkpt>
      <trkpt lat="42.8534" lon="0.89045">
        <ele>1283.09</ele>
        <time>2014-07-08T08:31:00Z</time>
      </trkpt>
      <trkpt lat="42.85337" lon="0.89039">
        <ele>1285.88</ele>
        <time>2014-07-08T08:31:05Z</time>
      </trkpt>
      <trkpt lat="42.85335" lon="0.89033">
        <ele>1288.12</ele>
        <time>2014-07-08T08:31:09Z</time>
      </trkpt>
      <trkpt lat="42.85332" lon="0.89028">
        <ele>1288.16</ele>
        <time>2014-07-08T08:31:14Z</time>
      </trkpt>
      <trkpt lat="42.85329" lon="0.89023">
        <ele>1287.5</ele>
        <time>2014-07-08T08:31:23Z</time>
      </trkpt>
      <trkpt lat="42.85326" lon="0.89018">
        <ele>1286.65</ele>
        <time>2014-07-08T08:31:28Z</time>
      </trkpt>
      <trkpt lat="42.85323" lon="0.89013">
        <ele>1285.08</ele>
        <time>2014-07-08T08:31:36Z</time>
      </trkpt>
      <trkpt lat="42.8532" lon="0.89006">
        <ele>1287.76</ele>
        <time>2014-07-08T08:31:42Z</time>
      </trkpt>
      <trkpt lat="42.85318" lon="0.89001">
        <ele>1289.79</ele>
        <time>2014-07-08T08:31:52Z</time>
      </trkpt>
      <trkpt lat="42.85315" lon="0.88997">
        <ele>1291.95</ele>
        <time>2014-07-08T08:32:01Z</time>
      </trkpt>
      <trkpt lat="42.85311" lon="0.88992">
        <ele>1294.79</ele>
        <time>2014-07-08T08:32:07Z</time>
      </trkpt>
      <trkpt lat="42.85306" lon="0.88989">
        <ele>1297.39</ele>
        <time>2014-07-08T08:32:17Z</time>
      </trkpt>
      <trkpt lat="42.85304" lon="0.88982">
        <ele>1300.59</ele>
        <time>2014-07-08T08:32:26Z</time>
      </trkpt>
      <trkpt lat="42.85302" lon="0.88975">
        <ele>1304.68</ele>
        <time>2014-07-08T08:32:36Z</time>
      </trkpt>
      <trkpt lat="42.85299" lon="0.88971">
        <ele>1306.43</ele>
        <time>2014-07-08T08:32:42Z</time>
      </trkpt>
      <trkpt lat="42.85296" lon="0.88966">
        <ele>1308.28</ele>
        <time>2014-07-08T08:32:46Z</time>
      </trkpt>
      <trkpt lat="42.85293" lon="0.88961">
        <ele>1310.25</ele>
        <time>2014-07-08T08:32:54Z</time>
      </trkpt>
      <trkpt lat="42.85291" lon="0.88955">
        <ele>1314.18</ele>
        <time>2014-07-08T08:33:03Z</time>
      </trkpt>
      <trkpt lat="42.8529" lon="0.88948">
        <ele>1317.15</ele>
        <time>2014-07-08T08:33:14Z</time>
      </trkpt>
      <trkpt lat="42.85289" lon="0.88942">
        <ele>1313.14</ele>
        <time>2014-07-08T08:33:20Z</time>
      </trkpt>
      <trkpt lat="42.85288" lon="0.88936">
        <ele>1313.18</ele>
        <time>2014-07-08T08:33:24Z</time>
      </trkpt>
      <trkpt lat="42.85286" lon="0.88929">
        <ele>1311.64</ele>
        <time>2014-07-08T08:33:31Z</time>
      </trkpt>
      <trkpt lat="42.85284" lon="0.88923">
        <ele>1310.5</ele>
        <time>2014-07-08T08:33:35Z</time>
      </trkpt>
      <trkpt lat="42.85281" lon="0.88916">
        <ele>1313.28</ele>
        <time>2014-07-08T08:33:41Z</time>
      </trkpt>
      <trkpt lat="42.8528" lon="0.8891">
        <ele>1317.73</ele>
        <time>2014-07-08T08:33:51Z</time>
      </trkpt>
      <trkpt lat="42.8528" lon="0.88904">
        <ele>1318.58</ele>
        <time>2014-07-08T08:33:59Z</time>
      </trkpt>
      <trkpt lat="42.85279" lon="0.88897">
        <ele>1320.3</ele>
        <time>2014-07-08T08:34:04Z</time>
      </trkpt>
      <trkpt lat="42.85278" lon="0.88891">
        <ele>1313.47</ele>
        <time>2014-07-08T08:34:11Z</time>
      </trkpt>
      <trkpt lat="42.85274" lon="0.88885">
        <ele>1316.3</ele>
        <time>2014-07-08T08:34:18Z</time>
      </trkpt>
      <trkpt lat="42.85274" lon="0.88878">
        <ele>1316.43</ele>
        <time>2014-07-08T08:34:25Z</time>
      </trkpt>
      <trkpt lat="42.85273" lon="0.88871">
        <ele>1315.96</ele>
        <time>2014-07-08T08:34:35Z</time>
      </trkpt>
      <trkpt lat="42.85271" lon="0.88865">
        <ele>1311.45</ele>
        <time>2014-07-08T08:34:43Z</time>
      </trkpt>
      <trkpt lat="42.85268" lon="0.88859">
        <ele>1310.5</ele>
        <time>2014-07-08T08:34:50Z</time>
      </trkpt>
      <trkpt lat="42.85266" lon="0.88853">
        <ele>1310.72</ele>
        <time>2014-07-08T08:34:58Z</time>
      </trkpt>
      <trkpt lat="42.85263" lon="0.88848">
        <ele>1312.38</ele>
        <time>2014-07-08T08:35:08Z</time>
      </trkpt>
      <trkpt lat="42.85261" lon="0.88842">
        <ele>1313.14</ele>
        <time>2014-07-08T08:35:16Z</time>
      </trkpt>
      <trkpt lat="42.85261" lon="0.88835">
        <ele>1312.53</ele>
        <time>2014-07-08T08:35:20Z</time>
      </trkpt>
      <trkpt lat="42.8526" lon="0.88829">
        <ele>1312.72</ele>
        <time>2014-07-08T08:35:26Z</time>
      </trkpt>
      <trkpt lat="42.85258" lon="0.88822">
        <ele>1315.67</ele>
        <time>2014-07-08T08:35:32Z</time>
      </trkpt>
      <trkpt lat="42.85257" lon="0.88815">
        <ele>1317.12</ele>
        <time>2014-07-08T08:35:38Z</time>
      </trkpt>
      <trkpt lat="42.85256" lon="0.88808">
        <ele>1316.46</ele>
        <time>2014-07-08T08:35:44Z</time>
      </trkpt>
      <trkpt lat="42.85254" lon="0.88801">
        <ele>1317.8</ele>
        <time>2014-07-08T08:35:49Z</time>
      </trkpt>
      <trkpt lat="42.85252" lon="0.88795">
        <ele>1318.55</ele>
        <time>2014-07-08T08:35:55Z</time>
      </trkpt>
      <trkpt lat="42.85251" lon="0.88789">
        <ele>1317.92</ele>
        <time>2014-07-08T08:36:04Z</time>
      </trkpt>
      <trkpt lat="42.8525" lon="0.88783">
        <ele>1317.52</ele>
        <time>2014-07-08T08:36:12Z</time>
      </trkpt>
      <trkpt lat="42.8525" lon="0.88776">
        <ele>1318.61</ele>
        <time>2014-07-08T08:36:21Z</time>
      </trkpt>
      <trkpt lat="42.85247" lon="0.88771">
        <ele>1318.13</ele>
        <time>2014-07-08T08:36:30Z</time>
      </trkpt>
      <trkpt lat="42.85245" lon="0.88765">
        <ele>1316.95</ele>
        <time>2014-07-08T08:36:39Z</time>
      </trkpt>
      <trkpt lat="42.85245" lon="0.88759">
        <ele>1318.81</ele>
        <time>2014-07-08T08:36:45Z</time>
      </trkpt>
      <trkpt lat="42.85242" lon="0.88753">
        <ele>1317.25</ele>
        <time>2014-07-08T08:36:52Z</time>
      </trkpt>
      <trkpt lat="42.85238" lon="0.8875">
        <ele>1317.08</ele>
        <time>2014-07-08T08:36:58Z</time>
      </trkpt>
      <trkpt lat="42.85234" lon="0.88746">
        <ele>1317.59</ele>
        <time>2014-07-08T08:37:05Z</time>
      </trkpt>
      <trkpt lat="42.85231" lon="0.88741">
        <ele>1317.76</ele>
        <time>2014-07-08T08:37:10Z</time>
      </trkpt>
      <trkpt lat="42.85228" lon="0.88735">
        <ele>1317.39</ele>
        <time>2014-07-08T08:37:16Z</time>
      </trkpt>
      <trkpt lat="42.85224" lon="0.88731">
        <ele>1316.11</ele>
        <time>2014-07-08T08:37:22Z</time>
      </trkpt>
      <trkpt lat="42.8522" lon="0.88728">
        <ele>1315.74</ele>
        <time>2014-07-08T08:37:29Z</time>
      </trkpt>
      <trkpt lat="42.85217" lon="0.88723">
        <ele>1318.5</ele>
        <time>2014-07-08T08:37:35Z</time>
      </trkpt>
      <trkpt lat="42.85214" lon="0.88718">
        <ele>1320.09</ele>
        <time>2014-07-08T08:37:41Z</time>
      </trkpt>
      <trkpt lat="42.85211" lon="0.88712">
        <ele>1322.47</ele>
        <time>2014-07-08T08:37:46Z</time>
      </trkpt>
      <trkpt lat="42.85209" lon="0.88705">
        <ele>1320.16</ele>
        <time>2014-07-08T08:38:00Z</time>
      </trkpt>
      <trkpt lat="42.85205" lon="0.887">
        <ele>1321.25</ele>
        <time>2014-07-08T08:38:05Z</time>
      </trkpt>
      <trkpt lat="42.85202" lon="0.88696">
        <ele>1322.67</ele>
        <time>2014-07-08T08:38:14Z</time>
      </trkpt>
      <trkpt lat="42.85199" lon="0.8869">
        <ele>1326.55</ele>
        <time>2014-07-08T08:38:18Z</time>
      </trkpt>
      <trkpt lat="42.85196" lon="0.88685">
        <ele>1331.03</ele>
        <time>2014-07-08T08:38:22Z</time>
      </trkpt>
      <trkpt lat="42.85193" lon="0.8868">
        <ele>1333.73</ele>
        <time>2014-07-08T08:38:26Z</time>
      </trkpt>
      <trkpt lat="42.8519" lon="0.88676">
        <ele>1334.51</ele>
        <time>2014-07-08T08:38:31Z</time>
      </trkpt>
      <trkpt lat="42.85186" lon="0.88672">
        <ele>1337.57</ele>
        <time>2014-07-08T08:38:36Z</time>
      </trkpt>
      <trkpt lat="42.85181" lon="0.88668">
        <ele>1340.46</ele>
        <time>2014-07-08T08:38:41Z</time>
      </trkpt>
      <trkpt lat="42.85176" lon="0.88669">
        <ele>1335.69</ele>
        <time>2014-07-08T08:38:52Z</time>
      </trkpt>
      <trkpt lat="42.85171" lon="0.88671">
        <ele>1328.6</ele>
        <time>2014-07-08T08:39:01Z</time>
      </trkpt>
      <trkpt lat="42.85167" lon="0.88671">
        <ele>1325.63</ele>
        <time>2014-07-08T08:39:11Z</time>
      </trkpt>
      <trkpt lat="42.85162" lon="0.88669">
        <ele>1327.35</ele>
        <time>2014-07-08T08:39:20Z</time>
      </trkpt>
      <trkpt lat="42.85157" lon="0.88665">
        <ele>1326.98</ele>
        <time>2014-07-08T08:39:25Z</time>
      </trkpt>
      <trkpt lat="42.85153" lon="0.88662">
        <ele>1328.32</ele>
        <time>2014-07-08T08:39:33Z</time>
      </trkpt>
      <trkpt lat="42.85149" lon="0.88659">
        <ele>1336.03</ele>
        <time>2014-07-08T08:39:42Z</time>
      </trkpt>
      <trkpt lat="42.85147" lon="0.88653">
        <ele>1344.48</ele>
        <time>2014-07-08T08:40:28Z</time>
      </trkpt>
      <trkpt lat="42.85143" lon="0.88651">
        <ele>1344.44</ele>
        <time>2014-07-08T08:41:32Z</time>
      </trkpt>
      <trkpt lat="42.85138" lon="0.88649">
        <ele>1338.62</ele>
        <time>2014-07-08T08:42:10Z</time>
      </trkpt>
      <trkpt lat="42.85134" lon="0.88647">
        <ele>1336.38</ele>
        <time>2014-07-08T08:42:29Z</time>
      </trkpt>
      <trkpt lat="42.8513" lon="0.88646">
        <ele>1335.78</ele>
        <time>2014-07-08T08:42:34Z</time>
      </trkpt>
      <trkpt lat="42.85125" lon="0.88645">
        <ele>1333.01</ele>
        <time>2014-07-08T08:42:39Z</time>
      </trkpt>
      <trkpt lat="42.85123" lon="0.88651">
        <ele>1336.93</ele>
        <time>2014-07-08T08:42:59Z</time>
      </trkpt>
      <trkpt lat="42.85126" lon="0.88655">
        <ele>1336.21</ele>
        <time>2014-07-08T08:43:09Z</time>
      </trkpt>
      <trkpt lat="42.85128" lon="0.88661">
        <ele>1336.69</ele>
        <time>2014-07-08T08:43:20Z</time>
      </trkpt>
      <trkpt lat="42.85128" lon="0.88667">
        <ele>1342.41</ele>
        <time>2014-07-08T08:43:44Z</time>
      </trkpt>
      <trkpt lat="42.85123" lon="0.88666">
        <ele>1343.5</ele>
        <time>2014-07-08T08:43:57Z</time>
      </trkpt>
      <trkpt lat="42.85121" lon="0.88661">
        <ele>1348.46</ele>
        <time>2014-07-08T08:44:09Z</time>
      </trkpt>
      <trkpt lat="42.8512" lon="0.88667">
        <ele>1350.63</ele>
        <time>2014-07-08T08:44:28Z</time>
      </trkpt>
      <trkpt lat="42.85115" lon="0.88667">
        <ele>1356.69</ele>
        <time>2014-07-08T08:44:42Z</time>
      </trkpt>
      <trkpt lat="42.85111" lon="0.88665">
        <ele>1362.3</ele>
        <time>2014-07-08T08:44:49Z</time>
      </trkpt>
      <trkpt lat="42.85107" lon="0.8867">
        <ele>1365.01</ele>
        <time>2014-07-08T08:45:24Z</time>
      </trkpt>
      <trkpt lat="42.85103" lon="0.88672">
        <ele>1371.37</ele>
        <time>2014-07-08T08:45:41Z</time>
      </trkpt>
      <trkpt lat="42.85098" lon="0.88668">
        <ele>1373.36</ele>
        <time>2014-07-08T08:45:47Z</time>
      </trkpt>
      <trkpt lat="42.85094" lon="0.88665">
        <ele>1375.23</ele>
        <time>2014-07-08T08:45:52Z</time>
      </trkpt>
      <trkpt lat="42.8509" lon="0.88661">
        <ele>1378.76</ele>
        <time>2014-07-08T08:45:58Z</time>
      </trkpt>
      <trkpt lat="42.85085" lon="0.88661">
        <ele>1379.02</ele>
        <time>2014-07-08T08:46:05Z</time>
      </trkpt>
      <trkpt lat="42.85081" lon="0.88657">
        <ele>1379.08</ele>
        <time>2014-07-08T08:46:12Z</time>
      </trkpt>
      <trkpt lat="42.85077" lon="0.88655">
        <ele>1380.78</ele>
        <time>2014-07-08T08:46:18Z</time>
      </trkpt>
      <trkpt lat="42.85073" lon="0.88652">
        <ele>1381.67</ele>
        <time>2014-07-08T08:46:29Z</time>
      </trkpt>
      <trkpt lat="42.8507" lon="0.88656">
        <ele>1374.07</ele>
        <time>2014-07-08T08:46:44Z</time>
      </trkpt>
      <trkpt lat="42.85072" lon="0.88662">
        <ele>1371.04</ele>
        <time>2014-07-08T08:46:53Z</time>
      </trkpt>
      <trkpt lat="42.85074" lon="0.88667">
        <ele>1367.45</ele>
        <time>2014-07-08T08:47:00Z</time>
      </trkpt>
      <trkpt lat="42.85078" lon="0.88672">
        <ele>1367.66</ele>
        <time>2014-07-08T08:47:07Z</time>
      </trkpt>
      <trkpt lat="42.85079" lon="0.88678">
        <ele>1369.6</ele>
        <time>2014-07-08T08:47:16Z</time>
      </trkpt>
      <trkpt lat="42.8508" lon="0.88684">
        <ele>1368.44</ele>
        <time>2014-07-08T08:47:25Z</time>
      </trkpt>
      <trkpt lat="42.85081" lon="0.8869">
        <ele>1370.79</ele>
        <time>2014-07-08T08:47:34Z</time>
      </trkpt>
      <trkpt lat="42.85083" lon="0.88697">
        <ele>1372.52</ele>
        <time>2014-07-08T08:47:41Z</time>
      </trkpt>
      <trkpt lat="42.85085" lon="0.88703">
        <ele>1377.89</ele>
        <time>2014-07-08T08:48:01Z</time>
      </trkpt>
      <trkpt lat="42.85081" lon="0.88701">
        <ele>1390.12</ele>
        <time>2014-07-08T08:48:42Z</time>
      </trkpt>
      <trkpt lat="42.85077" lon="0.88698">
        <ele>1391.41</ele>
        <time>2014-07-08T08:48:56Z</time>
      </trkpt>
      <trkpt lat="42.85073" lon="0.88695">
        <ele>1391.65</ele>
        <time>2014-07-08T08:49:04Z</time>
      </trkpt>
      <trkpt lat="42.85068" lon="0.88691">
        <ele>1392.01</ele>
        <time>2014-07-08T08:49:12Z</time>
      </trkpt>
      <trkpt lat="42.85065" lon="0.88686">
        <ele>1391.74</ele>
        <time>2014-07-08T08:49:25Z</time>
      </trkpt>
      <trkpt lat="42.85061" lon="0.88684">
        <ele>1388.86</ele>
        <time>2014-07-08T08:49:32Z</time>
      </trkpt>
      <trkpt lat="42.85057" lon="0.8868">
        <ele>1388.46</ele>
        <time>2014-07-08T08:49:44Z</time>
      </trkpt>
      <trkpt lat="42.85056" lon="0.88674">
        <ele>1389.73</ele>
        <time>2014-07-08T08:49:56Z</time>
      </trkpt>
      <trkpt lat="42.85053" lon="0.88668">
        <ele>1394.32</ele>
        <time>2014-07-08T08:50:09Z</time>
      </trkpt>
      <trkpt lat="42.8505" lon="0.88664">
        <ele>1394.06</ele>
        <time>2014-07-08T08:50:15Z</time>
      </trkpt>
      <trkpt lat="42.85046" lon="0.88661">
        <ele>1396.24</ele>
        <time>2014-07-08T08:50:24Z</time>
      </trkpt>
      <trkpt lat="42.85041" lon="0.88659">
        <ele>1400.32</ele>
        <time>2014-07-08T08:50:32Z</time>
      </trkpt>
      <trkpt lat="42.85038" lon="0.88654">
        <ele>1398.8</ele>
        <time>2014-07-08T08:50:47Z</time>
      </trkpt>
      <trkpt lat="42.85034" lon="0.8865">
        <ele>1401.97</ele>
        <time>2014-07-08T08:50:54Z</time>
      </trkpt>
      <trkpt lat="42.8503" lon="0.88647">
        <ele>1403.35</ele>
        <time>2014-07-08T08:51:05Z</time>
      </trkpt>
      <trkpt lat="42.85026" lon="0.88642">
        <ele>1404.27</ele>
        <time>2014-07-08T08:51:19Z</time>
      </trkpt>
      <trkpt lat="42.85022" lon="0.88638">
        <ele>1404.83</ele>
        <time>2014-07-08T08:51:28Z</time>
      </trkpt>
      <trkpt lat="42.85021" lon="0.88632">
        <ele>1405.46</ele>
        <time>2014-07-08T08:51:40Z</time>
      </trkpt>
      <trkpt lat="42.85019" lon="0.88625">
        <ele>1405.69</ele>
        <time>2014-07-08T08:51:47Z</time>
      </trkpt>
      <trkpt lat="42.85016" lon="0.88621">
        <ele>1408.12</ele>
        <time>2014-07-08T08:51:54Z</time>
      </trkpt>
      <trkpt lat="42.85015" lon="0.88613">
        <ele>1410.6</ele>
        <time>2014-07-08T08:51:59Z</time>
      </trkpt>
      <trkpt lat="42.85014" lon="0.88607">
        <ele>1410.08</ele>
        <time>2014-07-08T08:52:03Z</time>
      </trkpt>
      <trkpt lat="42.8501" lon="0.88602">
        <ele>1408.5</ele>
        <time>2014-07-08T08:52:10Z</time>
      </trkpt>
      <trkpt lat="42.85008" lon="0.88596">
        <ele>1407.41</ele>
        <time>2014-07-08T08:52:18Z</time>
      </trkpt>
      <trkpt lat="42.85004" lon="0.88593">
        <ele>1406.68</ele>
        <time>2014-07-08T08:52:24Z</time>
      </trkpt>
      <trkpt lat="42.84999" lon="0.88591">
        <ele>1404.58</ele>
        <time>2014-07-08T08:52:37Z</time>
      </trkpt>
      <trkpt lat="42.84996" lon="0.88587">
        <ele>1402.4</ele>
        <time>2014-07-08T08:52:55Z</time>
      </trkpt>
      <trkpt lat="42.84991" lon="0.88582">
        <ele>1401.16</ele>
        <time>2014-07-08T08:53:01Z</time>
      </trkpt>
      <trkpt lat="42.84988" lon="0.88579">
        <ele>1400.9</ele>
        <time>2014-07-08T08:53:13Z</time>
      </trkpt>
      <trkpt lat="42.84985" lon="0.88574">
        <ele>1401.54</ele>
        <time>2014-07-08T08:53:21Z</time>
      </trkpt>
      <trkpt lat="42.84983" lon="0.88568">
        <ele>1402.4</ele>
        <time>2014-07-08T08:53:25Z</time>
      </trkpt>
      <trkpt lat="42.84979" lon="0.88564">
        <ele>1400.63</ele>
        <time>2014-07-08T08:53:33Z</time>
      </trkpt>
      <trkpt lat="42.84976" lon="0.88558">
        <ele>1401.23</ele>
        <time>2014-07-08T08:53:37Z</time>
      </trkpt>
      <trkpt lat="42.84973" lon="0.88553">
        <ele>1402.36</ele>
        <time>2014-07-08T08:53:41Z</time>
      </trkpt>
      <trkpt lat="42.84969" lon="0.88549">
        <ele>1401.03</ele>
        <time>2014-07-08T08:53:46Z</time>
      </trkpt>
      <trkpt lat="42.84965" lon="0.88545">
        <ele>1399.9</ele>
        <time>2014-07-08T08:53:52Z</time>
      </trkpt>
      <trkpt lat="42.84961" lon="0.88542">
        <ele>1404.85</ele>
        <time>2014-07-08T08:53:57Z</time>
      </trkpt>
      <trkpt lat="42.84957" lon="0.88537">
        <ele>1407.93</ele>
        <time>2014-07-08T08:54:02Z</time>
      </trkpt>
      <trkpt lat="42.84954" lon="0.88533">
        <ele>1407.11</ele>
        <time>2014-07-08T08:54:07Z</time>
      </trkpt>
      <trkpt lat="42.84949" lon="0.88529">
        <ele>1408.36</ele>
        <time>2014-07-08T08:54:13Z</time>
      </trkpt>
      <trkpt lat="42.84946" lon="0.88524">
        <ele>1409.27</ele>
        <time>2014-07-08T08:54:17Z</time>
      </trkpt>
      <trkpt lat="42.84943" lon="0.88518">
        <ele>1406.3</ele>
        <time>2014-07-08T08:54:22Z</time>
      </trkpt>
      <trkpt lat="42.84942" lon="0.88512">
        <ele>1402.15</ele>
        <time>2014-07-08T08:54:28Z</time>
      </trkpt>
      <trkpt lat="42.8494" lon="0.88505">
        <ele>1399.04</ele>
        <time>2014-07-08T08:54:33Z</time>
      </trkpt>
      <trkpt lat="42.84937" lon="0.885">
        <ele>1397.81</ele>
        <time>2014-07-08T08:54:38Z</time>
      </trkpt>
      <trkpt lat="42.84933" lon="0.88496">
        <ele>1396.47</ele>
        <time>2014-07-08T08:54:44Z</time>
      </trkpt>
      <trkpt lat="42.84928" lon="0.88494">
        <ele>1396.26</ele>
        <time>2014-07-08T08:54:50Z</time>
      </trkpt>
      <trkpt lat="42.84924" lon="0.88493">
        <ele>1394.59</ele>
        <time>2014-07-08T08:54:58Z</time>
      </trkpt>
      <trkpt lat="42.8492" lon="0.8849">
        <ele>1395.81</ele>
        <time>2014-07-08T08:55:05Z</time>
      </trkpt>
      <trkpt lat="42.84917" lon="0.88485">
        <ele>1394.78</ele>
        <time>2014-07-08T08:55:11Z</time>
      </trkpt>
      <trkpt lat="42.84913" lon="0.8848">
        <ele>1394.96</ele>
        <time>2014-07-08T08:55:16Z</time>
      </trkpt>
      <trkpt lat="42.84909" lon="0.88477">
        <ele>1392.66</ele>
        <time>2014-07-08T08:55:22Z</time>
      </trkpt>
      <trkpt lat="42.84905" lon="0.88475">
        <ele>1391.26</ele>
        <time>2014-07-08T08:55:29Z</time>
      </trkpt>
      <trkpt lat="42.849" lon="0.88472">
        <ele>1391.72</ele>
        <time>2014-07-08T08:55:34Z</time>
      </trkpt>
      <trkpt lat="42.84895" lon="0.88469">
        <ele>1391.51</ele>
        <time>2014-07-08T08:55:39Z</time>
      </trkpt>
      <trkpt lat="42.84891" lon="0.88467">
        <ele>1390.34</ele>
        <time>2014-07-08T08:55:44Z</time>
      </trkpt>
      <trkpt lat="42.84886" lon="0.88464">
        <ele>1390.31</ele>
        <time>2014-07-08T08:55:50Z</time>
      </trkpt>
      <trkpt lat="42.84881" lon="0.88463">
        <ele>1390.36</ele>
        <time>2014-07-08T08:55:56Z</time>
      </trkpt>
      <trkpt lat="42.84876" lon="0.8846">
        <ele>1389.38</ele>
        <time>2014-07-08T08:56:02Z</time>
      </trkpt>
      <trkpt lat="42.84873" lon="0.88456">
        <ele>1388.4</ele>
        <time>2014-07-08T08:56:08Z</time>
      </trkpt>
      <trkpt lat="42.84869" lon="0.88453">
        <ele>1387.47</ele>
        <time>2014-07-08T08:56:14Z</time>
      </trkpt>
      <trkpt lat="42.84864" lon="0.88451">
        <ele>1388.27</ele>
        <time>2014-07-08T08:56:19Z</time>
      </trkpt>
      <trkpt lat="42.8486" lon="0.88447">
        <ele>1388.94</ele>
        <time>2014-07-08T08:56:24Z</time>
      </trkpt>
      <trkpt lat="42.84856" lon="0.88441">
        <ele>1388.22</ele>
        <time>2014-07-08T08:56:29Z</time>
      </trkpt>
      <trkpt lat="42.84852" lon="0.88436">
        <ele>1389.35</ele>
        <time>2014-07-08T08:56:34Z</time>
      </trkpt>
      <trkpt lat="42.84848" lon="0.88433">
        <ele>1391.52</ele>
        <time>2014-07-08T08:56:39Z</time>
      </trkpt>
      <trkpt lat="42.84844" lon="0.88427">
        <ele>1391.46</ele>
        <time>2014-07-08T08:56:45Z</time>
      </trkpt>
      <trkpt lat="42.8484" lon="0.88423">
        <ele>1392.01</ele>
        <time>2014-07-08T08:56:49Z</time>
      </trkpt>
      <trkpt lat="42.84837" lon="0.88419">
        <ele>1390.93</ele>
        <time>2014-07-08T08:56:53Z</time>
      </trkpt>
      <trkpt lat="42.84834" lon="0.88413">
        <ele>1390.31</ele>
        <time>2014-07-08T08:56:58Z</time>
      </trkpt>
      <trkpt lat="42.84831" lon="0.88409">
        <ele>1388.19</ele>
        <time>2014-07-08T08:57:04Z</time>
      </trkpt>
      <trkpt lat="42.84827" lon="0.88405">
        <ele>1387.91</ele>
        <time>2014-07-08T08:57:10Z</time>
      </trkpt>
      <trkpt lat="42.84823" lon="0.884">
        <ele>1391.26</ele>
        <time>2014-07-08T08:57:15Z</time>
      </trkpt>
      <trkpt lat="42.84818" lon="0.88399">
        <ele>1391.66</ele>
        <time>2014-07-08T08:57:21Z</time>
      </trkpt>
      <trkpt lat="42.84814" lon="0.88402">
        <ele>1390.1</ele>
        <time>2014-07-08T08:57:27Z</time>
      </trkpt>
      <trkpt lat="42.84809" lon="0.88405">
        <ele>1385.96</ele>
        <time>2014-07-08T08:57:35Z</time>
      </trkpt>
      <trkpt lat="42.84806" lon="0.88401">
        <ele>1385.46</ele>
        <time>2014-07-08T08:57:41Z</time>
      </trkpt>
      <trkpt lat="42.84803" lon="0.88396">
        <ele>1386.27</ele>
        <time>2014-07-08T08:57:50Z</time>
      </trkpt>
      <trkpt lat="42.84801" lon="0.8839">
        <ele>1392.01</ele>
        <time>2014-07-08T08:57:58Z</time>
      </trkpt>
      <trkpt lat="42.84797" lon="0.88386">
        <ele>1391.7</ele>
        <time>2014-07-08T08:58:04Z</time>
      </trkpt>
      <trkpt lat="42.84794" lon="0.88382">
        <ele>1392.06</ele>
        <time>2014-07-08T08:58:15Z</time>
      </trkpt>
      <trkpt lat="42.84789" lon="0.8838">
        <ele>1389.68</ele>
        <time>2014-07-08T08:58:36Z</time>
      </trkpt>
      <trkpt lat="42.84785" lon="0.88379">
        <ele>1388.39</ele>
        <time>2014-07-08T08:58:45Z</time>
      </trkpt>
      <trkpt lat="42.84782" lon="0.88374">
        <ele>1387.35</ele>
        <time>2014-07-08T08:58:52Z</time>
      </trkpt>
      <trkpt lat="42.84777" lon="0.88376">
        <ele>1388.42</ele>
        <time>2014-07-08T08:58:59Z</time>
      </trkpt>
      <trkpt lat="42.84773" lon="0.88375">
        <ele>1387.82</ele>
        <time>2014-07-08T08:59:06Z</time>
      </trkpt>
      <trkpt lat="42.84768" lon="0.88374">
        <ele>1388.05</ele>
        <time>2014-07-08T08:59:13Z</time>
      </trkpt>
      <trkpt lat="42.84763" lon="0.88375">
        <ele>1389.01</ele>
        <time>2014-07-08T08:59:20Z</time>
      </trkpt>
      <trkpt lat="42.84758" lon="0.88376">
        <ele>1387.78</ele>
        <time>2014-07-08T08:59:28Z</time>
      </trkpt>
      <trkpt lat="42.84753" lon="0.88374">
        <ele>1389.03</ele>
        <time>2014-07-08T08:59:35Z</time>
      </trkpt>
      <trkpt lat="42.84749" lon="0.88372">
        <ele>1389.01</ele>
        <time>2014-07-08T08:59:42Z</time>
      </trkpt>
      <trkpt lat="42.84744" lon="0.88371">
        <ele>1386.39</ele>
        <time>2014-07-08T08:59:50Z</time>
      </trkpt>
      <trkpt lat="42.8474" lon="0.88367">
        <ele>1384.62</ele>
        <time>2014-07-08T08:59:56Z</time>
      </trkpt>
      <trkpt lat="42.84736" lon="0.88367">
        <ele>1384.29</ele>
        <time>2014-07-08T09:00:02Z</time>
      </trkpt>
      <trkpt lat="42.84731" lon="0.88364">
        <ele>1389.28</ele>
        <time>2014-07-08T09:00:08Z</time>
      </trkpt>
      <trkpt lat="42.84727" lon="0.8836">
        <ele>1394.53</ele>
        <time>2014-07-08T09:00:13Z</time>
      </trkpt>
      <trkpt lat="42.84722" lon="0.88361">
        <ele>1395.62</ele>
        <time>2014-07-08T09:00:24Z</time>
      </trkpt>
      <trkpt lat="42.84717" lon="0.88359">
        <ele>1396.3</ele>
        <time>2014-07-08T09:00:39Z</time>
      </trkpt>
      <trkpt lat="42.84713" lon="0.88355">
        <ele>1396.28</ele>
        <time>2014-07-08T09:00:52Z</time>
      </trkpt>
      <trkpt lat="42.84709" lon="0.88353">
        <ele>1394.64</ele>
        <time>2014-07-08T09:00:59Z</time>
      </trkpt>
      <trkpt lat="42.84704" lon="0.88352">
        <ele>1394.13</ele>
        <time>2014-07-08T09:01:05Z</time>
      </trkpt>
      <trkpt lat="42.84699" lon="0.88351">
        <ele>1397.73</ele>
        <time>2014-07-08T09:01:15Z</time>
      </trkpt>
      <trkpt lat="42.84695" lon="0.8835">
        <ele>1403.37</ele>
        <time>2014-07-08T09:01:24Z</time>
      </trkpt>
      <trkpt lat="42.8469" lon="0.88349">
        <ele>1413.36</ele>
        <time>2014-07-08T09:01:31Z</time>
      </trkpt>
      <trkpt lat="42.84685" lon="0.88348">
        <ele>1414.4</ele>
        <time>2014-07-08T09:01:41Z</time>
      </trkpt>
      <trkpt lat="42.84681" lon="0.8835">
        <ele>1415.54</ele>
        <time>2014-07-08T09:01:54Z</time>
      </trkpt>
      <trkpt lat="42.84677" lon="0.8835">
        <ele>1416.74</ele>
        <time>2014-07-08T09:02:02Z</time>
      </trkpt>
      <trkpt lat="42.84673" lon="0.88345">
        <ele>1421.29</ele>
        <time>2014-07-08T09:02:08Z</time>
      </trkpt>
      <trkpt lat="42.84669" lon="0.88342">
        <ele>1426.33</ele>
        <time>2014-07-08T09:02:13Z</time>
      </trkpt>
      <trkpt lat="42.84665" lon="0.88338">
        <ele>1427.99</ele>
        <time>2014-07-08T09:02:19Z</time>
      </trkpt>
      <trkpt lat="42.84661" lon="0.88334">
        <ele>1431.38</ele>
        <time>2014-07-08T09:02:25Z</time>
      </trkpt>
      <trkpt lat="42.84659" lon="0.88328">
        <ele>1434.09</ele>
        <time>2014-07-08T09:02:31Z</time>
      </trkpt>
      <trkpt lat="42.84657" lon="0.88321">
        <ele>1434.4</ele>
        <time>2014-07-08T09:02:37Z</time>
      </trkpt>
      <trkpt lat="42.84654" lon="0.88316">
        <ele>1436.06</ele>
        <time>2014-07-08T09:02:48Z</time>
      </trkpt>
      <trkpt lat="42.84651" lon="0.88311">
        <ele>1438.15</ele>
        <time>2014-07-08T09:02:59Z</time>
      </trkpt>
      <trkpt lat="42.84651" lon="0.88305">
        <ele>1439.09</ele>
        <time>2014-07-08T09:03:15Z</time>
      </trkpt>
      <trkpt lat="42.84648" lon="0.883">
        <ele>1441</ele>
        <time>2014-07-08T09:03:25Z</time>
      </trkpt>
      <trkpt lat="42.84647" lon="0.88293">
        <ele>1440.75</ele>
        <time>2014-07-08T09:03:33Z</time>
      </trkpt>
      <trkpt lat="42.84646" lon="0.88287">
        <ele>1440.37</ele>
        <time>2014-07-08T09:03:41Z</time>
      </trkpt>
      <trkpt lat="42.84644" lon="0.88281">
        <ele>1442.51</ele>
        <time>2014-07-08T09:03:48Z</time>
      </trkpt>
      <trkpt lat="42.84641" lon="0.88276">
        <ele>1443.07</ele>
        <time>2014-07-08T09:03:55Z</time>
      </trkpt>
      <trkpt lat="42.84638" lon="0.88271">
        <ele>1445.36</ele>
        <time>2014-07-08T09:04:03Z</time>
      </trkpt>
      <trkpt lat="42.84637" lon="0.88265">
        <ele>1446.42</ele>
        <time>2014-07-08T09:04:11Z</time>
      </trkpt>
      <trkpt lat="42.84634" lon="0.88259">
        <ele>1446.99</ele>
        <time>2014-07-08T09:04:20Z</time>
      </trkpt>
      <trkpt lat="42.84633" lon="0.88253">
        <ele>1448.35</ele>
        <time>2014-07-08T09:04:30Z</time>
      </trkpt>
      <trkpt lat="42.84633" lon="0.88247">
        <ele>1448.54</ele>
        <time>2014-07-08T09:04:38Z</time>
      </trkpt>
      <trkpt lat="42.84633" lon="0.8824">
        <ele>1451.29</ele>
        <time>2014-07-08T09:04:46Z</time>
      </trkpt>
      <trkpt lat="42.8463" lon="0.88236">
        <ele>1451.91</ele>
        <time>2014-07-08T09:04:59Z</time>
      </trkpt>
      <trkpt lat="42.84629" lon="0.88229">
        <ele>1454.35</ele>
        <time>2014-07-08T09:05:11Z</time>
      </trkpt>
      <trkpt lat="42.84626" lon="0.88224">
        <ele>1456.32</ele>
        <time>2014-07-08T09:05:24Z</time>
      </trkpt>
      <trkpt lat="42.84626" lon="0.88217">
        <ele>1457.48</ele>
        <time>2014-07-08T09:05:35Z</time>
      </trkpt>
      <trkpt lat="42.84624" lon="0.88211">
        <ele>1458.82</ele>
        <time>2014-07-08T09:05:45Z</time>
      </trkpt>
      <trkpt lat="42.84619" lon="0.88212">
        <ele>1456.23</ele>
        <time>2014-07-08T09:05:57Z</time>
      </trkpt>
      <trkpt lat="42.84615" lon="0.88212">
        <ele>1458.34</ele>
        <time>2014-07-08T09:06:04Z</time>
      </trkpt>
      <trkpt lat="42.84611" lon="0.8821">
        <ele>1458.6</ele>
        <time>2014-07-08T09:06:11Z</time>
      </trkpt>
      <trkpt lat="42.84607" lon="0.88206">
        <ele>1458</ele>
        <time>2014-07-08T09:06:17Z</time>
      </trkpt>
      <trkpt lat="42.84602" lon="0.88202">
        <ele>1459.93</ele>
        <time>2014-07-08T09:06:22Z</time>
      </trkpt>
      <trkpt lat="42.84598" lon="0.88199">
        <ele>1461.45</ele>
        <time>2014-07-08T09:06:28Z</time>
      </trkpt>
      <trkpt lat="42.84593" lon="0.88201">
        <ele>1464.57</ele>
        <time>2014-07-08T09:06:35Z</time>
      </trkpt>
      <trkpt lat="42.8459" lon="0.88206">
        <ele>1465.94</ele>
        <time>2014-07-08T09:06:43Z</time>
      </trkpt>
      <trkpt lat="42.84587" lon="0.88211">
        <ele>1466.74</ele>
        <time>2014-07-08T09:06:51Z</time>
      </trkpt>
      <trkpt lat="42.84582" lon="0.88213">
        <ele>1468.15</ele>
        <time>2014-07-08T09:06:59Z</time>
      </trkpt>
      <trkpt lat="42.84578" lon="0.88216">
        <ele>1468.92</ele>
        <time>2014-07-08T09:07:06Z</time>
      </trkpt>
      <trkpt lat="42.84574" lon="0.8822">
        <ele>1471.23</ele>
        <time>2014-07-08T09:07:15Z</time>
      </trkpt>
      <trkpt lat="42.84569" lon="0.88219">
        <ele>1472.59</ele>
        <time>2014-07-08T09:07:23Z</time>
      </trkpt>
      <trkpt lat="42.84564" lon="0.88222">
        <ele>1473.89</ele>
        <time>2014-07-08T09:07:30Z</time>
      </trkpt>
      <trkpt lat="42.8456" lon="0.88225">
        <ele>1473.61</ele>
        <time>2014-07-08T09:07:38Z</time>
      </trkpt>
      <trkpt lat="42.84556" lon="0.88226">
        <ele>1475.08</ele>
        <time>2014-07-08T09:07:49Z</time>
      </trkpt>
      <trkpt lat="42.84551" lon="0.88227">
        <ele>1476.53</ele>
        <time>2014-07-08T09:08:02Z</time>
      </trkpt>
      <trkpt lat="42.84547" lon="0.88229">
        <ele>1477.05</ele>
        <time>2014-07-08T09:08:10Z</time>
      </trkpt>
      <trkpt lat="42.84542" lon="0.88232">
        <ele>1475.75</ele>
        <time>2014-07-08T09:08:18Z</time>
      </trkpt>
      <trkpt lat="42.84539" lon="0.88236">
        <ele>1475.51</ele>
        <time>2014-07-08T09:08:25Z</time>
      </trkpt>
      <trkpt lat="42.84535" lon="0.88238">
        <ele>1477.08</ele>
        <time>2014-07-08T09:08:33Z</time>
      </trkpt>
      <trkpt lat="42.8453" lon="0.88236">
        <ele>1479.1</ele>
        <time>2014-07-08T09:09:03Z</time>
      </trkpt>
      <trkpt lat="42.84526" lon="0.88237">
        <ele>1480.04</ele>
        <time>2014-07-08T09:09:14Z</time>
      </trkpt>
      <trkpt lat="42.84524" lon="0.88243">
        <ele>1480.03</ele>
        <time>2014-07-08T09:09:22Z</time>
      </trkpt>
      <trkpt lat="42.84522" lon="0.8825">
        <ele>1480.03</ele>
        <time>2014-07-08T09:09:28Z</time>
      </trkpt>
      <trkpt lat="42.8452" lon="0.88244">
        <ele>1479.75</ele>
        <time>2014-07-08T09:09:38Z</time>
      </trkpt>
      <trkpt lat="42.84523" lon="0.88238">
        <ele>1479.66</ele>
        <time>2014-07-08T09:09:49Z</time>
      </trkpt>
      <trkpt lat="42.84531" lon="0.88236">
        <ele>1479.54</ele>
        <time>2014-07-08T09:09:51Z</time>
      </trkpt>
      <trkpt lat="42.84536" lon="0.88235">
        <ele>1479.62</ele>
        <time>2014-07-08T09:09:54Z</time>
      </trkpt>
      <trkpt lat="42.8454" lon="0.88236">
        <ele>1479.21</ele>
        <time>2014-07-08T09:10:10Z</time>
      </trkpt>
      <trkpt lat="42.84536" lon="0.88233">
        <ele>1478.36</ele>
        <time>2014-07-08T09:10:55Z</time>
      </trkpt>
      <trkpt lat="42.84531" lon="0.88234">
        <ele>1474.86</ele>
        <time>2014-07-08T09:10:58Z</time>
      </trkpt>
      <trkpt lat="42.84527" lon="0.88231">
        <ele>1484.61</ele>
        <time>2014-07-08T09:12:04Z</time>
      </trkpt>
      <trkpt lat="42.84531" lon="0.88234">
        <ele>1487.15</ele>
        <time>2014-07-08T09:12:32Z</time>
      </trkpt>
      <trkpt lat="42.84527" lon="0.88237">
        <ele>1487.34</ele>
        <time>2014-07-08T09:13:39Z</time>
      </trkpt>
      <trkpt lat="42.84527" lon="0.88244">
        <ele>1482.9</ele>
        <time>2014-07-08T09:16:08Z</time>
      </trkpt>
      <trkpt lat="42.84529" lon="0.88238">
        <ele>1477.38</ele>
        <time>2014-07-08T09:16:20Z</time>
      </trkpt>
      <trkpt lat="42.84529" lon="0.88231">
        <ele>1484.71</ele>
        <time>2014-07-08T09:18:58Z</time>
      </trkpt>
      <trkpt lat="42.84529" lon="0.88238">
        <ele>1486.88</ele>
        <time>2014-07-08T09:19:50Z</time>
      </trkpt>
      <trkpt lat="42.8453" lon="0.88232">
        <ele>1483.94</ele>
        <time>2014-07-08T09:20:27Z</time>
      </trkpt>
      <trkpt lat="42.84524" lon="0.88227">
        <ele>1481.64</ele>
        <time>2014-07-08T09:22:22Z</time>
      </trkpt>
      <trkpt lat="42.84529" lon="0.88229">
        <ele>1482.78</ele>
        <time>2014-07-08T09:22:33Z</time>
      </trkpt>
      <trkpt lat="42.84531" lon="0.88235">
        <ele>1481.6</ele>
        <time>2014-07-08T09:22:45Z</time>
      </trkpt>
      <trkpt lat="42.84532" lon="0.88229">
        <ele>1479.08</ele>
        <time>2014-07-08T09:23:41Z</time>
      </trkpt>
      <trkpt lat="42.84531" lon="0.88235">
        <ele>1477.21</ele>
        <time>2014-07-08T09:24:28Z</time>
      </trkpt>
      <trkpt lat="42.84527" lon="0.88238">
        <ele>1478.11</ele>
        <time>2014-07-08T09:24:32Z</time>
      </trkpt>
      <trkpt lat="42.84529" lon="0.88231">
        <ele>1474.25</ele>
        <time>2014-07-08T09:24:41Z</time>
      </trkpt>
      <trkpt lat="42.84531" lon="0.8824">
        <ele>1479.44</ele>
        <time>2014-07-08T09:25:31Z</time>
      </trkpt>
      <trkpt lat="42.84526" lon="0.88239">
        <ele>1479.53</ele>
        <time>2014-07-08T09:25:40Z</time>
      </trkpt>
      <trkpt lat="42.84528" lon="0.88233">
        <ele>1479.63</ele>
        <time>2014-07-08T09:25:58Z</time>
      </trkpt>
      <trkpt lat="42.84532" lon="0.88233">
        <ele>1479.63</ele>
        <time>2014-07-08T09:26:03Z</time>
      </trkpt>
      <trkpt lat="42.84525" lon="0.88225">
        <ele>1481.23</ele>
        <time>2014-07-08T10:20:32Z</time>
      </trkpt>
      <trkpt lat="42.84528" lon="0.88231">
        <ele>1485.25</ele>
        <time>2014-07-08T10:21:07Z</time>
      </trkpt>
      <trkpt lat="42.84531" lon="0.88236">
        <ele>1485.47</ele>
        <time>2014-07-08T10:21:13Z</time>
      </trkpt>
      <trkpt lat="42.84531" lon="0.8823">
        <ele>1483.76</ele>
        <time>2014-07-08T10:21:23Z</time>
      </trkpt>
      <trkpt lat="42.84527" lon="0.88226">
        <ele>1484.59</ele>
        <time>2014-07-08T10:22:56Z</time>
      </trkpt>
      <trkpt lat="42.84525" lon="0.88231">
        <ele>1482.65</ele>
        <time>2014-07-08T10:23:07Z</time>
      </trkpt>
      <trkpt lat="42.84526" lon="0.88225">
        <ele>1481.8</ele>
        <time>2014-07-08T10:23:32Z</time>
      </trkpt>
      <trkpt lat="42.84524" lon="0.88231">
        <ele>1481.92</ele>
        <time>2014-07-08T10:23:43Z</time>
      </trkpt>
      <trkpt lat="42.84528" lon="0.88235">
        <ele>1485.21</ele>
        <time>2014-07-08T10:25:01Z</time>
      </trkpt>
      <trkpt lat="42.8453" lon="0.8824">
        <ele>1486.83</ele>
        <time>2014-07-08T10:25:15Z</time>
      </trkpt>
      <trkpt lat="42.84528" lon="0.88234">
        <ele>1481.97</ele>
        <time>2014-07-08T10:25:22Z</time>
      </trkpt>
      <trkpt lat="42.84524" lon="0.8823">
        <ele>1478.97</ele>
        <time>2014-07-08T10:25:26Z</time>
      </trkpt>
      <trkpt lat="42.84529" lon="0.88232">
        <ele>1487.43</ele>
        <time>2014-07-08T10:28:38Z</time>
      </trkpt>
      <trkpt lat="42.84525" lon="0.88236">
        <ele>1488.27</ele>
        <time>2014-07-08T10:30:11Z</time>
      </trkpt>
      <trkpt lat="42.84521" lon="0.88238">
        <ele>1481.22</ele>
        <time>2014-07-08T10:32:05Z</time>
      </trkpt>
      <trkpt lat="42.84516" lon="0.88237">
        <ele>1469.38</ele>
        <time>2014-07-08T10:34:21Z</time>
      </trkpt>
      <trkpt lat="42.84521" lon="0.88236">
        <ele>1474.29</ele>
        <time>2014-07-08T10:34:34Z</time>
      </trkpt>
      <trkpt lat="42.84525" lon="0.88232">
        <ele>1476.02</ele>
        <time>2014-07-08T10:34:43Z</time>
      </trkpt>
      <trkpt lat="42.84523" lon="0.88226">
        <ele>1475.95</ele>
        <time>2014-07-08T10:34:55Z</time>
      </trkpt>
      <trkpt lat="42.84524" lon="0.88232">
        <ele>1477.33</ele>
        <time>2014-07-08T10:35:45Z</time>
      </trkpt>
      <trkpt lat="42.84529" lon="0.88233">
        <ele>1480.13</ele>
        <time>2014-07-08T10:36:15Z</time>
      </trkpt>
      <trkpt lat="42.8453" lon="0.88226">
        <ele>1479.84</ele>
        <time>2014-07-08T10:36:28Z</time>
      </trkpt>
      <trkpt lat="42.84528" lon="0.8822">
        <ele>1481.07</ele>
        <time>2014-07-08T10:36:32Z</time>
      </trkpt>
      <trkpt lat="42.84523" lon="0.88217">
        <ele>1477.54</ele>
        <time>2014-07-08T10:36:36Z</time>
      </trkpt>
      <trkpt lat="42.8452" lon="0.88212">
        <ele>1476.97</ele>
        <time>2014-07-08T10:36:40Z</time>
      </trkpt>
      <trkpt lat="42.84516" lon="0.88208">
        <ele>1476.75</ele>
        <time>2014-07-08T10:36:44Z</time>
      </trkpt>
      <trkpt lat="42.84512" lon="0.88204">
        <ele>1475.9</ele>
        <time>2014-07-08T10:36:48Z</time>
      </trkpt>
      <trkpt lat="42.84507" lon="0.88203">
        <ele>1473.92</ele>
        <time>2014-07-08T10:36:52Z</time>
      </trkpt>
      <trkpt lat="42.84503" lon="0.88199">
        <ele>1472.56</ele>
        <time>2014-07-08T10:36:57Z</time>
      </trkpt>
      <trkpt lat="42.84499" lon="0.88194">
        <ele>1472.49</ele>
        <time>2014-07-08T10:37:02Z</time>
      </trkpt>
      <trkpt lat="42.84495" lon="0.88191">
        <ele>1472.24</ele>
        <time>2014-07-08T10:37:07Z</time>
      </trkpt>
      <trkpt lat="42.8449" lon="0.8819">
        <ele>1471.48</ele>
        <time>2014-07-08T10:37:15Z</time>
      </trkpt>
      <trkpt lat="42.84486" lon="0.8819">
        <ele>1474.17</ele>
        <time>2014-07-08T10:37:28Z</time>
      </trkpt>
      <trkpt lat="42.8449" lon="0.88188">
        <ele>1470.42</ele>
        <time>2014-07-08T10:38:41Z</time>
      </trkpt>
      <trkpt lat="42.84487" lon="0.88184">
        <ele>1469.84</ele>
        <time>2014-07-08T10:40:07Z</time>
      </trkpt>
      <trkpt lat="42.84488" lon="0.8819">
        <ele>1472.38</ele>
        <time>2014-07-08T10:40:59Z</time>
      </trkpt>
      <trkpt lat="42.84493" lon="0.88193">
        <ele>1477.52</ele>
        <time>2014-07-08T10:41:08Z</time>
      </trkpt>
      <trkpt lat="42.84496" lon="0.88198">
        <ele>1481.05</ele>
        <time>2014-07-08T10:41:13Z</time>
      </trkpt>
      <trkpt lat="42.845" lon="0.88203">
        <ele>1482.98</ele>
        <time>2014-07-08T10:41:19Z</time>
      </trkpt>
      <trkpt lat="42.84503" lon="0.88207">
        <ele>1484.08</ele>
        <time>2014-07-08T10:41:24Z</time>
      </trkpt>
      <trkpt lat="42.84506" lon="0.88212">
        <ele>1485.2</ele>
        <time>2014-07-08T10:41:29Z</time>
      </trkpt>
      <trkpt lat="42.8451" lon="0.88216">
        <ele>1485.53</ele>
        <time>2014-07-08T10:41:35Z</time>
      </trkpt>
      <trkpt lat="42.84515" lon="0.88219">
        <ele>1484.86</ele>
        <time>2014-07-08T10:41:40Z</time>
      </trkpt>
      <trkpt lat="42.84518" lon="0.88224">
        <ele>1485.39</ele>
        <time>2014-07-08T10:41:46Z</time>
      </trkpt>
      <trkpt lat="42.84522" lon="0.8823">
        <ele>1485.89</ele>
        <time>2014-07-08T10:41:52Z</time>
      </trkpt>
      <trkpt lat="42.84526" lon="0.88227">
        <ele>1483.53</ele>
        <time>2014-07-08T10:42:39Z</time>
      </trkpt>
      <trkpt lat="42.84527" lon="0.88233">
        <ele>1484.65</ele>
        <time>2014-07-08T10:43:59Z</time>
      </trkpt>
      <trkpt lat="42.8453" lon="0.88238">
        <ele>1485.87</ele>
        <time>2014-07-08T10:44:14Z</time>
      </trkpt>
      <trkpt lat="42.84534" lon="0.88234">
        <ele>1481.65</ele>
        <time>2014-07-08T10:46:02Z</time>
      </trkpt>
      <trkpt lat="42.84538" lon="0.88229">
        <ele>1481.1</ele>
        <time>2014-07-08T10:46:09Z</time>
      </trkpt>
      <trkpt lat="42.84542" lon="0.88228">
        <ele>1481.34</ele>
        <time>2014-07-08T10:46:15Z</time>
      </trkpt>
      <trkpt lat="42.84547" lon="0.88228">
        <ele>1478.74</ele>
        <time>2014-07-08T10:46:22Z</time>
      </trkpt>
      <trkpt lat="42.84552" lon="0.88227">
        <ele>1478.76</ele>
        <time>2014-07-08T10:46:28Z</time>
      </trkpt>
      <trkpt lat="42.84557" lon="0.88227">
        <ele>1477.22</ele>
        <time>2014-07-08T10:46:34Z</time>
      </trkpt>
      <trkpt lat="42.84562" lon="0.88226">
        <ele>1475.64</ele>
        <time>2014-07-08T10:46:40Z</time>
      </trkpt>
      <trkpt lat="42.84566" lon="0.88222">
        <ele>1474.26</ele>
        <time>2014-07-08T10:46:47Z</time>
      </trkpt>
      <trkpt lat="42.8457" lon="0.8822">
        <ele>1472.46</ele>
        <time>2014-07-08T10:46:54Z</time>
      </trkpt>
      <trkpt lat="42.84574" lon="0.88218">
        <ele>1469.53</ele>
        <time>2014-07-08T10:47:00Z</time>
      </trkpt>
      <trkpt lat="42.84579" lon="0.88215">
        <ele>1468.39</ele>
        <time>2014-07-08T10:47:07Z</time>
      </trkpt>
      <trkpt lat="42.84584" lon="0.88212">
        <ele>1467.05</ele>
        <time>2014-07-08T10:47:13Z</time>
      </trkpt>
      <trkpt lat="42.84587" lon="0.88206">
        <ele>1464.72</ele>
        <time>2014-07-08T10:47:19Z</time>
      </trkpt>
      <trkpt lat="42.84592" lon="0.88205">
        <ele>1461.4</ele>
        <time>2014-07-08T10:47:27Z</time>
      </trkpt>
      <trkpt lat="42.84597" lon="0.88207">
        <ele>1459.87</ele>
        <time>2014-07-08T10:47:33Z</time>
      </trkpt>
      <trkpt lat="42.84601" lon="0.8821">
        <ele>1458.44</ele>
        <time>2014-07-08T10:47:38Z</time>
      </trkpt>
      <trkpt lat="42.84605" lon="0.88214">
        <ele>1458.98</ele>
        <time>2014-07-08T10:47:43Z</time>
      </trkpt>
      <trkpt lat="42.8461" lon="0.88212">
        <ele>1458.82</ele>
        <time>2014-07-08T10:47:49Z</time>
      </trkpt>
      <trkpt lat="42.84614" lon="0.88215">
        <ele>1457.08</ele>
        <time>2014-07-08T10:47:55Z</time>
      </trkpt>
      <trkpt lat="42.84615" lon="0.88222">
        <ele>1455.11</ele>
        <time>2014-07-08T10:48:01Z</time>
      </trkpt>
      <trkpt lat="42.84617" lon="0.88227">
        <ele>1454.47</ele>
        <time>2014-07-08T10:48:08Z</time>
      </trkpt>
      <trkpt lat="42.84617" lon="0.88234">
        <ele>1454.72</ele>
        <time>2014-07-08T10:48:14Z</time>
      </trkpt>
      <trkpt lat="42.84619" lon="0.8824">
        <ele>1454</ele>
        <time>2014-07-08T10:48:25Z</time>
      </trkpt>
      <trkpt lat="42.84622" lon="0.88246">
        <ele>1453.35</ele>
        <time>2014-07-08T10:48:32Z</time>
      </trkpt>
      <trkpt lat="42.84624" lon="0.88252">
        <ele>1452.04</ele>
        <time>2014-07-08T10:48:37Z</time>
      </trkpt>
      <trkpt lat="42.84625" lon="0.88259">
        <ele>1451.75</ele>
        <time>2014-07-08T10:48:42Z</time>
      </trkpt>
      <trkpt lat="42.84626" lon="0.88265">
        <ele>1450.08</ele>
        <time>2014-07-08T10:48:47Z</time>
      </trkpt>
      <trkpt lat="42.84629" lon="0.8827">
        <ele>1449.25</ele>
        <time>2014-07-08T10:48:53Z</time>
      </trkpt>
      <trkpt lat="42.84633" lon="0.88274">
        <ele>1449.37</ele>
        <time>2014-07-08T10:49:00Z</time>
      </trkpt>
      <trkpt lat="42.84635" lon="0.88281">
        <ele>1447.74</ele>
        <time>2014-07-08T10:49:07Z</time>
      </trkpt>
      <trkpt lat="42.84638" lon="0.88287">
        <ele>1447.15</ele>
        <time>2014-07-08T10:49:13Z</time>
      </trkpt>
      <trkpt lat="42.84638" lon="0.88293">
        <ele>1446.3</ele>
        <time>2014-07-08T10:49:19Z</time>
      </trkpt>
      <trkpt lat="42.8464" lon="0.883">
        <ele>1446.58</ele>
        <time>2014-07-08T10:49:25Z</time>
      </trkpt>
      <trkpt lat="42.84644" lon="0.88303">
        <ele>1445.43</ele>
        <time>2014-07-08T10:49:31Z</time>
      </trkpt>
      <trkpt lat="42.84643" lon="0.8831">
        <ele>1446.51</ele>
        <time>2014-07-08T10:49:37Z</time>
      </trkpt>
      <trkpt lat="42.84647" lon="0.88314">
        <ele>1444.07</ele>
        <time>2014-07-08T10:49:49Z</time>
      </trkpt>
      <trkpt lat="42.84649" lon="0.8832">
        <ele>1442.07</ele>
        <time>2014-07-08T10:50:00Z</time>
      </trkpt>
      <trkpt lat="42.8465" lon="0.88327">
        <ele>1441.69</ele>
        <time>2014-07-08T10:50:06Z</time>
      </trkpt>
      <trkpt lat="42.84654" lon="0.88331">
        <ele>1440.43</ele>
        <time>2014-07-08T10:50:12Z</time>
      </trkpt>
      <trkpt lat="42.84659" lon="0.88334">
        <ele>1439.16</ele>
        <time>2014-07-08T10:50:19Z</time>
      </trkpt>
      <trkpt lat="42.84662" lon="0.88338">
        <ele>1439.21</ele>
        <time>2014-07-08T10:50:26Z</time>
      </trkpt>
      <trkpt lat="42.84667" lon="0.88339">
        <ele>1437.32</ele>
        <time>2014-07-08T10:50:34Z</time>
      </trkpt>
      <trkpt lat="42.84672" lon="0.88342">
        <ele>1435.58</ele>
        <time>2014-07-08T10:50:40Z</time>
      </trkpt>
      <trkpt lat="42.84676" lon="0.88345">
        <ele>1434.61</ele>
        <time>2014-07-08T10:50:46Z</time>
      </trkpt>
      <trkpt lat="42.8468" lon="0.88346">
        <ele>1434.92</ele>
        <time>2014-07-08T10:51:54Z</time>
      </trkpt>
      <trkpt lat="42.84685" lon="0.88348">
        <ele>1433.43</ele>
        <time>2014-07-08T10:52:00Z</time>
      </trkpt>
      <trkpt lat="42.8469" lon="0.88349">
        <ele>1431.58</ele>
        <time>2014-07-08T10:52:06Z</time>
      </trkpt>
      <trkpt lat="42.84695" lon="0.88351">
        <ele>1431.81</ele>
        <time>2014-07-08T10:52:12Z</time>
      </trkpt>
      <trkpt lat="42.84698" lon="0.88355">
        <ele>1431.98</ele>
        <time>2014-07-08T10:52:18Z</time>
      </trkpt>
      <trkpt lat="42.84703" lon="0.88357">
        <ele>1431.35</ele>
        <time>2014-07-08T10:52:24Z</time>
      </trkpt>
      <trkpt lat="42.84708" lon="0.88358">
        <ele>1430.17</ele>
        <time>2014-07-08T10:52:30Z</time>
      </trkpt>
      <trkpt lat="42.84713" lon="0.88358">
        <ele>1428.31</ele>
        <time>2014-07-08T10:52:36Z</time>
      </trkpt>
      <trkpt lat="42.84717" lon="0.88361">
        <ele>1428.48</ele>
        <time>2014-07-08T10:52:41Z</time>
      </trkpt>
      <trkpt lat="42.84721" lon="0.88364">
        <ele>1428.2</ele>
        <time>2014-07-08T10:52:46Z</time>
      </trkpt>
      <trkpt lat="42.84726" lon="0.88367">
        <ele>1427.94</ele>
        <time>2014-07-08T10:52:50Z</time>
      </trkpt>
      <trkpt lat="42.8473" lon="0.88369">
        <ele>1427.05</ele>
        <time>2014-07-08T10:52:55Z</time>
      </trkpt>
      <trkpt lat="42.84735" lon="0.88371">
        <ele>1426.52</ele>
        <time>2014-07-08T10:53:00Z</time>
      </trkpt>
      <trkpt lat="42.84739" lon="0.88373">
        <ele>1427.33</ele>
        <time>2014-07-08T10:53:04Z</time>
      </trkpt>
      <trkpt lat="42.84744" lon="0.88375">
        <ele>1427.27</ele>
        <time>2014-07-08T10:53:07Z</time>
      </trkpt>
      <trkpt lat="42.84749" lon="0.88378">
        <ele>1426.9</ele>
        <time>2014-07-08T10:53:11Z</time>
      </trkpt>
      <trkpt lat="42.84754" lon="0.88378">
        <ele>1425.63</ele>
        <time>2014-07-08T10:53:15Z</time>
      </trkpt>
      <trkpt lat="42.84759" lon="0.88379">
        <ele>1425.24</ele>
        <time>2014-07-08T10:53:19Z</time>
      </trkpt>
      <trkpt lat="42.84764" lon="0.88381">
        <ele>1424.41</ele>
        <time>2014-07-08T10:53:23Z</time>
      </trkpt>
      <trkpt lat="42.84769" lon="0.88383">
        <ele>1422.66</ele>
        <time>2014-07-08T10:53:28Z</time>
      </trkpt>
      <trkpt lat="42.84774" lon="0.88383">
        <ele>1421.63</ele>
        <time>2014-07-08T10:53:33Z</time>
      </trkpt>
      <trkpt lat="42.84779" lon="0.88385">
        <ele>1420.55</ele>
        <time>2014-07-08T10:53:39Z</time>
      </trkpt>
      <trkpt lat="42.84783" lon="0.88385">
        <ele>1419.14</ele>
        <time>2014-07-08T10:53:45Z</time>
      </trkpt>
      <trkpt lat="42.84787" lon="0.88388">
        <ele>1417.49</ele>
        <time>2014-07-08T10:53:52Z</time>
      </trkpt>
      <trkpt lat="42.84791" lon="0.88392">
        <ele>1416.31</ele>
        <time>2014-07-08T10:53:58Z</time>
      </trkpt>
      <trkpt lat="42.84793" lon="0.88398">
        <ele>1416.05</ele>
        <time>2014-07-08T10:54:04Z</time>
      </trkpt>
      <trkpt lat="42.84794" lon="0.88405">
        <ele>1415.23</ele>
        <time>2014-07-08T10:54:10Z</time>
      </trkpt>
      <trkpt lat="42.84798" lon="0.88407">
        <ele>1414.76</ele>
        <time>2014-07-08T10:54:17Z</time>
      </trkpt>
      <trkpt lat="42.84803" lon="0.88407">
        <ele>1415.37</ele>
        <time>2014-07-08T10:54:27Z</time>
      </trkpt>
      <trkpt lat="42.84808" lon="0.88406">
        <ele>1414.26</ele>
        <time>2014-07-08T10:54:33Z</time>
      </trkpt>
      <trkpt lat="42.84813" lon="0.88409">
        <ele>1412.14</ele>
        <time>2014-07-08T10:54:38Z</time>
      </trkpt>
      <trkpt lat="42.84816" lon="0.88413">
        <ele>1413.13</ele>
        <time>2014-07-08T10:54:42Z</time>
      </trkpt>
      <trkpt lat="42.84821" lon="0.88413">
        <ele>1412.18</ele>
        <time>2014-07-08T10:54:57Z</time>
      </trkpt>
      <trkpt lat="42.84826" lon="0.88414">
        <ele>1412.23</ele>
        <time>2014-07-08T10:55:14Z</time>
      </trkpt>
      <trkpt lat="42.8483" lon="0.88416">
        <ele>1411.44</ele>
        <time>2014-07-08T10:55:20Z</time>
      </trkpt>
      <trkpt lat="42.84835" lon="0.88417">
        <ele>1411.43</ele>
        <time>2014-07-08T10:55:26Z</time>
      </trkpt>
      <trkpt lat="42.8484" lon="0.88419">
        <ele>1412.09</ele>
        <time>2014-07-08T10:55:32Z</time>
      </trkpt>
      <trkpt lat="42.84845" lon="0.88422">
        <ele>1412.57</ele>
        <time>2014-07-08T10:55:37Z</time>
      </trkpt>
      <trkpt lat="42.84849" lon="0.88424">
        <ele>1411.94</ele>
        <time>2014-07-08T10:55:44Z</time>
      </trkpt>
      <trkpt lat="42.84853" lon="0.88427">
        <ele>1410.08</ele>
        <time>2014-07-08T10:56:04Z</time>
      </trkpt>
      <trkpt lat="42.84858" lon="0.88429">
        <ele>1408.89</ele>
        <time>2014-07-08T10:56:09Z</time>
      </trkpt>
      <trkpt lat="42.84862" lon="0.88432">
        <ele>1408.89</ele>
        <time>2014-07-08T10:56:14Z</time>
      </trkpt>
      <trkpt lat="42.84866" lon="0.88436">
        <ele>1408.32</ele>
        <time>2014-07-08T10:56:28Z</time>
      </trkpt>
      <trkpt lat="42.84871" lon="0.88438">
        <ele>1409.21</ele>
        <time>2014-07-08T10:56:33Z</time>
      </trkpt>
      <trkpt lat="42.84876" lon="0.88439">
        <ele>1410.13</ele>
        <time>2014-07-08T10:56:37Z</time>
      </trkpt>
      <trkpt lat="42.84881" lon="0.88441">
        <ele>1410.3</ele>
        <time>2014-07-08T10:56:41Z</time>
      </trkpt>
      <trkpt lat="42.84887" lon="0.88443">
        <ele>1409.95</ele>
        <time>2014-07-08T10:56:45Z</time>
      </trkpt>
      <trkpt lat="42.84892" lon="0.88446">
        <ele>1408.58</ele>
        <time>2014-07-08T10:56:49Z</time>
      </trkpt>
      <trkpt lat="42.84897" lon="0.88446">
        <ele>1407.91</ele>
        <time>2014-07-08T10:56:53Z</time>
      </trkpt>
      <trkpt lat="42.84901" lon="0.88448">
        <ele>1403.93</ele>
        <time>2014-07-08T10:56:57Z</time>
      </trkpt>
      <trkpt lat="42.84907" lon="0.8845">
        <ele>1402.43</ele>
        <time>2014-07-08T10:57:01Z</time>
      </trkpt>
      <trkpt lat="42.84913" lon="0.88451">
        <ele>1400.77</ele>
        <time>2014-07-08T10:57:05Z</time>
      </trkpt>
      <trkpt lat="42.84912" lon="0.88445">
        <ele>1398.34</ele>
        <time>2014-07-08T10:57:37Z</time>
      </trkpt>
      <trkpt lat="42.84907" lon="0.88442">
        <ele>1397.85</ele>
        <time>2014-07-08T10:57:42Z</time>
      </trkpt>
      <trkpt lat="42.84903" lon="0.88438">
        <ele>1396.31</ele>
        <time>2014-07-08T10:57:47Z</time>
      </trkpt>
      <trkpt lat="42.84899" lon="0.88434">
        <ele>1391.99</ele>
        <time>2014-07-08T10:57:52Z</time>
      </trkpt>
      <trkpt lat="42.84895" lon="0.8843">
        <ele>1389.82</ele>
        <time>2014-07-08T10:57:55Z</time>
      </trkpt>
      <trkpt lat="42.84891" lon="0.88424">
        <ele>1388.75</ele>
        <time>2014-07-08T10:57:59Z</time>
      </trkpt>
      <trkpt lat="42.84886" lon="0.88421">
        <ele>1387.55</ele>
        <time>2014-07-08T10:58:03Z</time>
      </trkpt>
      <trkpt lat="42.84884" lon="0.88415">
        <ele>1385.3</ele>
        <time>2014-07-08T10:58:11Z</time>
      </trkpt>
      <trkpt lat="42.84882" lon="0.8841">
        <ele>1386.06</ele>
        <time>2014-07-08T10:58:24Z</time>
      </trkpt>
      <trkpt lat="42.84881" lon="0.88403">
        <ele>1387.19</ele>
        <time>2014-07-08T10:58:37Z</time>
      </trkpt>
      <trkpt lat="42.84879" lon="0.88396">
        <ele>1388.42</ele>
        <time>2014-07-08T10:58:41Z</time>
      </trkpt>
      <trkpt lat="42.84877" lon="0.88389">
        <ele>1387.85</ele>
        <time>2014-07-08T10:58:45Z</time>
      </trkpt>
      <trkpt lat="42.84876" lon="0.88383">
        <ele>1387.51</ele>
        <time>2014-07-08T10:58:53Z</time>
      </trkpt>
      <trkpt lat="42.84874" lon="0.88377">
        <ele>1389.36</ele>
        <time>2014-07-08T10:59:04Z</time>
      </trkpt>
      <trkpt lat="42.84871" lon="0.88373">
        <ele>1387.7</ele>
        <time>2014-07-08T10:59:25Z</time>
      </trkpt>
      <trkpt lat="42.84872" lon="0.88366">
        <ele>1389</ele>
        <time>2014-07-08T10:59:34Z</time>
      </trkpt>
      <trkpt lat="42.8487" lon="0.8836">
        <ele>1391.69</ele>
        <time>2014-07-08T10:59:46Z</time>
      </trkpt>
      <trkpt lat="42.84869" lon="0.88354">
        <ele>1389.69</ele>
        <time>2014-07-08T11:00:09Z</time>
      </trkpt>
      <trkpt lat="42.84873" lon="0.88359">
        <ele>1389.1</ele>
        <time>2014-07-08T11:00:52Z</time>
      </trkpt>
      <trkpt lat="42.84878" lon="0.88361">
        <ele>1390.49</ele>
        <time>2014-07-08T11:00:57Z</time>
      </trkpt>
      <trkpt lat="42.84883" lon="0.88362">
        <ele>1382.22</ele>
        <time>2014-07-08T11:01:10Z</time>
      </trkpt>
      <trkpt lat="42.84887" lon="0.88363">
        <ele>1380.42</ele>
        <time>2014-07-08T11:01:21Z</time>
      </trkpt>
      <trkpt lat="42.84893" lon="0.88365">
        <ele>1377.16</ele>
        <time>2014-07-08T11:01:26Z</time>
      </trkpt>
      <trkpt lat="42.84897" lon="0.88368">
        <ele>1375.92</ele>
        <time>2014-07-08T11:01:30Z</time>
      </trkpt>
      <trkpt lat="42.84901" lon="0.88371">
        <ele>1372.31</ele>
        <time>2014-07-08T11:01:34Z</time>
      </trkpt>
      <trkpt lat="42.84907" lon="0.88371">
        <ele>1372.61</ele>
        <time>2014-07-08T11:01:39Z</time>
      </trkpt>
      <trkpt lat="42.84912" lon="0.88372">
        <ele>1373.96</ele>
        <time>2014-07-08T11:01:44Z</time>
      </trkpt>
      <trkpt lat="42.84918" lon="0.88373">
        <ele>1372.62</ele>
        <time>2014-07-08T11:01:49Z</time>
      </trkpt>
      <trkpt lat="42.84923" lon="0.88375">
        <ele>1371.23</ele>
        <time>2014-07-08T11:01:53Z</time>
      </trkpt>
      <trkpt lat="42.84928" lon="0.88375">
        <ele>1369.11</ele>
        <time>2014-07-08T11:01:57Z</time>
      </trkpt>
      <trkpt lat="42.84933" lon="0.88376">
        <ele>1368.37</ele>
        <time>2014-07-08T11:02:01Z</time>
      </trkpt>
      <trkpt lat="42.84938" lon="0.88379">
        <ele>1366.05</ele>
        <time>2014-07-08T11:02:05Z</time>
      </trkpt>
      <trkpt lat="42.84944" lon="0.88381">
        <ele>1367.53</ele>
        <time>2014-07-08T11:02:09Z</time>
      </trkpt>
      <trkpt lat="42.84948" lon="0.88382">
        <ele>1368.65</ele>
        <time>2014-07-08T11:02:13Z</time>
      </trkpt>
      <trkpt lat="42.84953" lon="0.88379">
        <ele>1368.19</ele>
        <time>2014-07-08T11:02:18Z</time>
      </trkpt>
      <trkpt lat="42.84957" lon="0.88375">
        <ele>1367.58</ele>
        <time>2014-07-08T11:02:24Z</time>
      </trkpt>
      <trkpt lat="42.84962" lon="0.88375">
        <ele>1368.76</ele>
        <time>2014-07-08T11:02:29Z</time>
      </trkpt>
      <trkpt lat="42.84967" lon="0.88377">
        <ele>1370.02</ele>
        <time>2014-07-08T11:02:33Z</time>
      </trkpt>
      <trkpt lat="42.84973" lon="0.88376">
        <ele>1369.58</ele>
        <time>2014-07-08T11:02:38Z</time>
      </trkpt>
      <trkpt lat="42.84977" lon="0.88374">
        <ele>1369.22</ele>
        <time>2014-07-08T11:02:43Z</time>
      </trkpt>
      <trkpt lat="42.84981" lon="0.88378">
        <ele>1369.52</ele>
        <time>2014-07-08T11:02:56Z</time>
      </trkpt>
      <trkpt lat="42.84986" lon="0.88382">
        <ele>1366.59</ele>
        <time>2014-07-08T11:03:03Z</time>
      </trkpt>
      <trkpt lat="42.8499" lon="0.88383">
        <ele>1364.99</ele>
        <time>2014-07-08T11:03:07Z</time>
      </trkpt>
      <trkpt lat="42.84995" lon="0.88384">
        <ele>1365.32</ele>
        <time>2014-07-08T11:03:12Z</time>
      </trkpt>
      <trkpt lat="42.85" lon="0.88385">
        <ele>1364.94</ele>
        <time>2014-07-08T11:03:18Z</time>
      </trkpt>
      <trkpt lat="42.85005" lon="0.88383">
        <ele>1365.6</ele>
        <time>2014-07-08T11:03:22Z</time>
      </trkpt>
      <trkpt lat="42.8501" lon="0.88385">
        <ele>1365.53</ele>
        <time>2014-07-08T11:03:27Z</time>
      </trkpt>
      <trkpt lat="42.85013" lon="0.88389">
        <ele>1367.13</ele>
        <time>2014-07-08T11:03:34Z</time>
      </trkpt>
      <trkpt lat="42.85017" lon="0.88392">
        <ele>1367.25</ele>
        <time>2014-07-08T11:03:40Z</time>
      </trkpt>
      <trkpt lat="42.85021" lon="0.88397">
        <ele>1366.2</ele>
        <time>2014-07-08T11:03:46Z</time>
      </trkpt>
      <trkpt lat="42.85026" lon="0.88401">
        <ele>1364.81</ele>
        <time>2014-07-08T11:03:52Z</time>
      </trkpt>
      <trkpt lat="42.8503" lon="0.88404">
        <ele>1365.04</ele>
        <time>2014-07-08T11:03:58Z</time>
      </trkpt>
      <trkpt lat="42.85034" lon="0.88405">
        <ele>1365.74</ele>
        <time>2014-07-08T11:04:03Z</time>
      </trkpt>
      <trkpt lat="42.85039" lon="0.88406">
        <ele>1366.58</ele>
        <time>2014-07-08T11:04:07Z</time>
      </trkpt>
      <trkpt lat="42.85044" lon="0.88407">
        <ele>1368.19</ele>
        <time>2014-07-08T11:04:12Z</time>
      </trkpt>
      <trkpt lat="42.85049" lon="0.88403">
        <ele>1365.95</ele>
        <time>2014-07-08T11:04:19Z</time>
      </trkpt>
      <trkpt lat="42.85053" lon="0.884">
        <ele>1364.99</ele>
        <time>2014-07-08T11:04:24Z</time>
      </trkpt>
      <trkpt lat="42.85059" lon="0.88399">
        <ele>1364.33</ele>
        <time>2014-07-08T11:04:29Z</time>
      </trkpt>
      <trkpt lat="42.85064" lon="0.884">
        <ele>1365.59</ele>
        <time>2014-07-08T11:04:33Z</time>
      </trkpt>
      <trkpt lat="42.85068" lon="0.88402">
        <ele>1366.12</ele>
        <time>2014-07-08T11:04:37Z</time>
      </trkpt>
      <trkpt lat="42.85073" lon="0.88403">
        <ele>1366.61</ele>
        <time>2014-07-08T11:04:41Z</time>
      </trkpt>
      <trkpt lat="42.85078" lon="0.88401">
        <ele>1367.16</ele>
        <time>2014-07-08T11:04:45Z</time>
      </trkpt>
      <trkpt lat="42.85083" lon="0.88401">
        <ele>1367.26</ele>
        <time>2014-07-08T11:04:50Z</time>
      </trkpt>
      <trkpt lat="42.85088" lon="0.88398">
        <ele>1368.18</ele>
        <time>2014-07-08T11:04:55Z</time>
      </trkpt>
      <trkpt lat="42.85093" lon="0.88396">
        <ele>1369.3</ele>
        <time>2014-07-08T11:05:00Z</time>
      </trkpt>
      <trkpt lat="42.85097" lon="0.88393">
        <ele>1369.63</ele>
        <time>2014-07-08T11:05:04Z</time>
      </trkpt>
      <trkpt lat="42.85101" lon="0.8839">
        <ele>1370.78</ele>
        <time>2014-07-08T11:05:08Z</time>
      </trkpt>
      <trkpt lat="42.85106" lon="0.88386">
        <ele>1370.12</ele>
        <time>2014-07-08T11:05:13Z</time>
      </trkpt>
      <trkpt lat="42.8511" lon="0.88382">
        <ele>1370.17</ele>
        <time>2014-07-08T11:05:18Z</time>
      </trkpt>
      <trkpt lat="42.85114" lon="0.8838">
        <ele>1371</ele>
        <time>2014-07-08T11:05:24Z</time>
      </trkpt>
      <trkpt lat="42.85118" lon="0.88377">
        <ele>1369.4</ele>
        <time>2014-07-08T11:05:30Z</time>
      </trkpt>
      <trkpt lat="42.85122" lon="0.88374">
        <ele>1368.8</ele>
        <time>2014-07-08T11:05:34Z</time>
      </trkpt>
      <trkpt lat="42.85127" lon="0.88373">
        <ele>1369.69</ele>
        <time>2014-07-08T11:05:43Z</time>
      </trkpt>
      <trkpt lat="42.85132" lon="0.88371">
        <ele>1371.45</ele>
        <time>2014-07-08T11:05:48Z</time>
      </trkpt>
      <trkpt lat="42.85137" lon="0.88369">
        <ele>1371.29</ele>
        <time>2014-07-08T11:05:53Z</time>
      </trkpt>
      <trkpt lat="42.8514" lon="0.88364">
        <ele>1371.46</ele>
        <time>2014-07-08T11:06:00Z</time>
      </trkpt>
      <trkpt lat="42.85142" lon="0.88358">
        <ele>1372.2</ele>
        <time>2014-07-08T11:06:07Z</time>
      </trkpt>
      <trkpt lat="42.85146" lon="0.88356">
        <ele>1371.69</ele>
        <time>2014-07-08T11:06:24Z</time>
      </trkpt>
      <trkpt lat="42.85148" lon="0.88362">
        <ele>1369.73</ele>
        <time>2014-07-08T11:06:41Z</time>
      </trkpt>
      <trkpt lat="42.85152" lon="0.88367">
        <ele>1370.85</ele>
        <time>2014-07-08T11:07:27Z</time>
      </trkpt>
      <trkpt lat="42.85156" lon="0.8837">
        <ele>1372.42</ele>
        <time>2014-07-08T11:07:31Z</time>
      </trkpt>
      <trkpt lat="42.85162" lon="0.88372">
        <ele>1372.86</ele>
        <time>2014-07-08T11:07:36Z</time>
      </trkpt>
      <trkpt lat="42.85165" lon="0.88375">
        <ele>1373.85</ele>
        <time>2014-07-08T11:07:49Z</time>
      </trkpt>
      <trkpt lat="42.8517" lon="0.88374">
        <ele>1373.78</ele>
        <time>2014-07-08T11:09:18Z</time>
      </trkpt>
      <trkpt lat="42.85174" lon="0.88374">
        <ele>1373.83</ele>
        <time>2014-07-08T11:09:22Z</time>
      </trkpt>
      <trkpt lat="42.85179" lon="0.88377">
        <ele>1374.23</ele>
        <time>2014-07-08T11:09:27Z</time>
      </trkpt>
      <trkpt lat="42.85184" lon="0.8838">
        <ele>1373.58</ele>
        <time>2014-07-08T11:09:33Z</time>
      </trkpt>
      <trkpt lat="42.85189" lon="0.88379">
        <ele>1372.68</ele>
        <time>2014-07-08T11:09:38Z</time>
      </trkpt>
      <trkpt lat="42.85193" lon="0.8838">
        <ele>1372.72</ele>
        <time>2014-07-08T11:09:43Z</time>
      </trkpt>
      <trkpt lat="42.85197" lon="0.88383">
        <ele>1368.82</ele>
        <time>2014-07-08T11:09:48Z</time>
      </trkpt>
      <trkpt lat="42.85202" lon="0.88386">
        <ele>1368.32</ele>
        <time>2014-07-08T11:09:55Z</time>
      </trkpt>
      <trkpt lat="42.85206" lon="0.88389">
        <ele>1368.49</ele>
        <time>2014-07-08T11:10:01Z</time>
      </trkpt>
      <trkpt lat="42.85211" lon="0.88391">
        <ele>1368.28</ele>
        <time>2014-07-08T11:10:07Z</time>
      </trkpt>
      <trkpt lat="42.85215" lon="0.88395">
        <ele>1369</ele>
        <time>2014-07-08T11:10:13Z</time>
      </trkpt>
      <trkpt lat="42.85219" lon="0.88399">
        <ele>1370.46</ele>
        <time>2014-07-08T11:10:24Z</time>
      </trkpt>
      <trkpt lat="42.85224" lon="0.88401">
        <ele>1368.37</ele>
        <time>2014-07-08T11:10:29Z</time>
      </trkpt>
      <trkpt lat="42.85229" lon="0.88403">
        <ele>1367.48</ele>
        <time>2014-07-08T11:10:34Z</time>
      </trkpt>
      <trkpt lat="42.85233" lon="0.88406">
        <ele>1367.93</ele>
        <time>2014-07-08T11:10:39Z</time>
      </trkpt>
      <trkpt lat="42.85238" lon="0.88411">
        <ele>1369.16</ele>
        <time>2014-07-08T11:10:44Z</time>
      </trkpt>
      <trkpt lat="42.85242" lon="0.88413">
        <ele>1368.11</ele>
        <time>2014-07-08T11:10:49Z</time>
      </trkpt>
      <trkpt lat="42.85247" lon="0.88414">
        <ele>1365.32</ele>
        <time>2014-07-08T11:10:54Z</time>
      </trkpt>
      <trkpt lat="42.85252" lon="0.88414">
        <ele>1364.76</ele>
        <time>2014-07-08T11:10:59Z</time>
      </trkpt>
      <trkpt lat="42.85257" lon="0.88415">
        <ele>1364.98</ele>
        <time>2014-07-08T11:11:04Z</time>
      </trkpt>
      <trkpt lat="42.85262" lon="0.88416">
        <ele>1366.05</ele>
        <time>2014-07-08T11:11:09Z</time>
      </trkpt>
      <trkpt lat="42.85265" lon="0.88421">
        <ele>1368.07</ele>
        <time>2014-07-08T11:11:16Z</time>
      </trkpt>
      <trkpt lat="42.85269" lon="0.88425">
        <ele>1367.66</ele>
        <time>2014-07-08T11:11:24Z</time>
      </trkpt>
      <trkpt lat="42.85273" lon="0.88429">
        <ele>1366.5</ele>
        <time>2014-07-08T11:11:30Z</time>
      </trkpt>
      <trkpt lat="42.85277" lon="0.88431">
        <ele>1363.74</ele>
        <time>2014-07-08T11:11:35Z</time>
      </trkpt>
      <trkpt lat="42.85282" lon="0.88435">
        <ele>1362.64</ele>
        <time>2014-07-08T11:11:40Z</time>
      </trkpt>
      <trkpt lat="42.85286" lon="0.88437">
        <ele>1361.5</ele>
        <time>2014-07-08T11:11:46Z</time>
      </trkpt>
      <trkpt lat="42.85288" lon="0.88443">
        <ele>1361.92</ele>
        <time>2014-07-08T11:11:51Z</time>
      </trkpt>
      <trkpt lat="42.85293" lon="0.88447">
        <ele>1361.58</ele>
        <time>2014-07-08T11:11:56Z</time>
      </trkpt>
      <trkpt lat="42.85297" lon="0.88446">
        <ele>1361.77</ele>
        <time>2014-07-08T11:12:02Z</time>
      </trkpt>
      <trkpt lat="42.853" lon="0.88452">
        <ele>1363.91</ele>
        <time>2014-07-08T11:12:10Z</time>
      </trkpt>
      <trkpt lat="42.85304" lon="0.88456">
        <ele>1362.14</ele>
        <time>2014-07-08T11:12:16Z</time>
      </trkpt>
      <trkpt lat="42.85308" lon="0.88459">
        <ele>1362.53</ele>
        <time>2014-07-08T11:12:23Z</time>
      </trkpt>
      <trkpt lat="42.85313" lon="0.88463">
        <ele>1362.63</ele>
        <time>2014-07-08T11:12:29Z</time>
      </trkpt>
      <trkpt lat="42.85316" lon="0.88467">
        <ele>1363.67</ele>
        <time>2014-07-08T11:12:34Z</time>
      </trkpt>
      <trkpt lat="42.8532" lon="0.88472">
        <ele>1364.35</ele>
        <time>2014-07-08T11:12:40Z</time>
      </trkpt>
      <trkpt lat="42.85324" lon="0.88476">
        <ele>1363.73</ele>
        <time>2014-07-08T11:12:45Z</time>
      </trkpt>
      <trkpt lat="42.85328" lon="0.8848">
        <ele>1363.85</ele>
        <time>2014-07-08T11:12:50Z</time>
      </trkpt>
      <trkpt lat="42.85332" lon="0.88482">
        <ele>1364.1</ele>
        <time>2014-07-08T11:12:55Z</time>
      </trkpt>
      <trkpt lat="42.85336" lon="0.88486">
        <ele>1364.49</ele>
        <time>2014-07-08T11:13:00Z</time>
      </trkpt>
      <trkpt lat="42.85339" lon="0.88492">
        <ele>1363.4</ele>
        <time>2014-07-08T11:13:06Z</time>
      </trkpt>
      <trkpt lat="42.85341" lon="0.88497">
        <ele>1364.61</ele>
        <time>2014-07-08T11:13:12Z</time>
      </trkpt>
      <trkpt lat="42.85344" lon="0.88502">
        <ele>1364.75</ele>
        <time>2014-07-08T11:13:17Z</time>
      </trkpt>
      <trkpt lat="42.85347" lon="0.88508">
        <ele>1364.32</ele>
        <time>2014-07-08T11:13:22Z</time>
      </trkpt>
      <trkpt lat="42.85351" lon="0.88511">
        <ele>1364.53</ele>
        <time>2014-07-08T11:13:27Z</time>
      </trkpt>
      <trkpt lat="42.85356" lon="0.88513">
        <ele>1363.12</ele>
        <time>2014-07-08T11:13:32Z</time>
      </trkpt>
      <trkpt lat="42.85361" lon="0.88515">
        <ele>1363.27</ele>
        <time>2014-07-08T11:13:38Z</time>
      </trkpt>
      <trkpt lat="42.85366" lon="0.88515">
        <ele>1362.91</ele>
        <time>2014-07-08T11:13:43Z</time>
      </trkpt>
      <trkpt lat="42.85371" lon="0.88518">
        <ele>1362.5</ele>
        <time>2014-07-08T11:13:49Z</time>
      </trkpt>
      <trkpt lat="42.85375" lon="0.88518">
        <ele>1362.19</ele>
        <time>2014-07-08T11:13:54Z</time>
      </trkpt>
      <trkpt lat="42.8538" lon="0.88515">
        <ele>1362.65</ele>
        <time>2014-07-08T11:13:59Z</time>
      </trkpt>
      <trkpt lat="42.85383" lon="0.88511">
        <ele>1361.53</ele>
        <time>2014-07-08T11:14:04Z</time>
      </trkpt>
      <trkpt lat="42.85387" lon="0.88508">
        <ele>1361.74</ele>
        <time>2014-07-08T11:14:11Z</time>
      </trkpt>
      <trkpt lat="42.85392" lon="0.88508">
        <ele>1363.63</ele>
        <time>2014-07-08T11:14:19Z</time>
      </trkpt>
      <trkpt lat="42.85397" lon="0.88505">
        <ele>1364.65</ele>
        <time>2014-07-08T11:14:25Z</time>
      </trkpt>
      <trkpt lat="42.854" lon="0.88501">
        <ele>1366.6</ele>
        <time>2014-07-08T11:14:34Z</time>
      </trkpt>
      <trkpt lat="42.85405" lon="0.88499">
        <ele>1369.33</ele>
        <time>2014-07-08T11:14:40Z</time>
      </trkpt>
      <trkpt lat="42.85409" lon="0.88496">
        <ele>1369.23</ele>
        <time>2014-07-08T11:14:46Z</time>
      </trkpt>
      <trkpt lat="42.85414" lon="0.88493">
        <ele>1369.7</ele>
        <time>2014-07-08T11:14:50Z</time>
      </trkpt>
      <trkpt lat="42.85419" lon="0.8849">
        <ele>1370.59</ele>
        <time>2014-07-08T11:14:54Z</time>
      </trkpt>
      <trkpt lat="42.85424" lon="0.88487">
        <ele>1371.67</ele>
        <time>2014-07-08T11:14:58Z</time>
      </trkpt>
      <trkpt lat="42.85429" lon="0.88485">
        <ele>1372.41</ele>
        <time>2014-07-08T11:15:02Z</time>
      </trkpt>
      <trkpt lat="42.85433" lon="0.88483">
        <ele>1372.64</ele>
        <time>2014-07-08T11:15:06Z</time>
      </trkpt>
      <trkpt lat="42.85438" lon="0.88481">
        <ele>1374.25</ele>
        <time>2014-07-08T11:15:15Z</time>
      </trkpt>
      <trkpt lat="42.85442" lon="0.88479">
        <ele>1376.2</ele>
        <time>2014-07-08T11:15:21Z</time>
      </trkpt>
      <trkpt lat="42.85447" lon="0.88477">
        <ele>1376.55</ele>
        <time>2014-07-08T11:15:27Z</time>
      </trkpt>
      <trkpt lat="42.85452" lon="0.88474">
        <ele>1376.95</ele>
        <time>2014-07-08T11:15:33Z</time>
      </trkpt>
      <trkpt lat="42.85456" lon="0.88472">
        <ele>1377.02</ele>
        <time>2014-07-08T11:15:39Z</time>
      </trkpt>
      <trkpt lat="42.8546" lon="0.8847">
        <ele>1376.3</ele>
        <time>2014-07-08T11:15:45Z</time>
      </trkpt>
      <trkpt lat="42.85465" lon="0.88468">
        <ele>1377.54</ele>
        <time>2014-07-08T11:15:51Z</time>
      </trkpt>
      <trkpt lat="42.8547" lon="0.88467">
        <ele>1379.68</ele>
        <time>2014-07-08T11:16:13Z</time>
      </trkpt>
      <trkpt lat="42.85475" lon="0.88466">
        <ele>1381.02</ele>
        <time>2014-07-08T11:16:18Z</time>
      </trkpt>
      <trkpt lat="42.8548" lon="0.88465">
        <ele>1382.37</ele>
        <time>2014-07-08T11:16:23Z</time>
      </trkpt>
      <trkpt lat="42.85482" lon="0.88458">
        <ele>1381.06</ele>
        <time>2014-07-08T11:16:28Z</time>
      </trkpt>
      <trkpt lat="42.85485" lon="0.88453">
        <ele>1379.44</ele>
        <time>2014-07-08T11:16:32Z</time>
      </trkpt>
      <trkpt lat="42.85488" lon="0.88448">
        <ele>1379.75</ele>
        <time>2014-07-08T11:16:36Z</time>
      </trkpt>
      <trkpt lat="42.85491" lon="0.88444">
        <ele>1379.9</ele>
        <time>2014-07-08T11:16:40Z</time>
      </trkpt>
      <trkpt lat="42.85496" lon="0.88439">
        <ele>1380.03</ele>
        <time>2014-07-08T11:16:45Z</time>
      </trkpt>
      <trkpt lat="42.85501" lon="0.88436">
        <ele>1382.03</ele>
        <time>2014-07-08T11:16:50Z</time>
      </trkpt>
      <trkpt lat="42.85506" lon="0.88433">
        <ele>1383.9</ele>
        <time>2014-07-08T11:16:55Z</time>
      </trkpt>
      <trkpt lat="42.85508" lon="0.88428">
        <ele>1383.5</ele>
        <time>2014-07-08T11:17:00Z</time>
      </trkpt>
      <trkpt lat="42.85511" lon="0.88422">
        <ele>1383.16</ele>
        <time>2014-07-08T11:17:05Z</time>
      </trkpt>
      <trkpt lat="42.85515" lon="0.88417">
        <ele>1383.42</ele>
        <time>2014-07-08T11:17:10Z</time>
      </trkpt>
      <trkpt lat="42.85518" lon="0.88412">
        <ele>1383.77</ele>
        <time>2014-07-08T11:17:17Z</time>
      </trkpt>
      <trkpt lat="42.85523" lon="0.88409">
        <ele>1383.37</ele>
        <time>2014-07-08T11:17:23Z</time>
      </trkpt>
      <trkpt lat="42.85527" lon="0.88406">
        <ele>1383.49</ele>
        <time>2014-07-08T11:17:27Z</time>
      </trkpt>
      <trkpt lat="42.85532" lon="0.88403">
        <ele>1383.62</ele>
        <time>2014-07-08T11:17:32Z</time>
      </trkpt>
      <trkpt lat="42.85535" lon="0.88398">
        <ele>1381.04</ele>
        <time>2014-07-08T11:17:38Z</time>
      </trkpt>
      <trkpt lat="42.85538" lon="0.88394">
        <ele>1383.94</ele>
        <time>2014-07-08T11:17:47Z</time>
      </trkpt>
      <trkpt lat="42.85544" lon="0.88393">
        <ele>1383.79</ele>
        <time>2014-07-08T11:17:53Z</time>
      </trkpt>
      <trkpt lat="42.85549" lon="0.88391">
        <ele>1385.75</ele>
        <time>2014-07-08T11:17:57Z</time>
      </trkpt>
      <trkpt lat="42.85553" lon="0.8839">
        <ele>1386.44</ele>
        <time>2014-07-08T11:18:12Z</time>
      </trkpt>
      <trkpt lat="42.85558" lon="0.88389">
        <ele>1389.33</ele>
        <time>2014-07-08T11:18:21Z</time>
      </trkpt>
      <trkpt lat="42.85563" lon="0.88388">
        <ele>1391.86</ele>
        <time>2014-07-08T11:18:27Z</time>
      </trkpt>
      <trkpt lat="42.85566" lon="0.88382">
        <ele>1395.53</ele>
        <time>2014-07-08T11:19:47Z</time>
      </trkpt>
      <trkpt lat="42.85568" lon="0.88376">
        <ele>1394.49</ele>
        <time>2014-07-08T11:19:51Z</time>
      </trkpt>
      <trkpt lat="42.85572" lon="0.88371">
        <ele>1394.46</ele>
        <time>2014-07-08T11:19:55Z</time>
      </trkpt>
      <trkpt lat="42.85575" lon="0.88366">
        <ele>1393.59</ele>
        <time>2014-07-08T11:19:59Z</time>
      </trkpt>
      <trkpt lat="42.85577" lon="0.8836">
        <ele>1393.14</ele>
        <time>2014-07-08T11:20:04Z</time>
      </trkpt>
      <trkpt lat="42.85578" lon="0.88354">
        <ele>1392.51</ele>
        <time>2014-07-08T11:20:10Z</time>
      </trkpt>
      <trkpt lat="42.85578" lon="0.88347">
        <ele>1391.16</ele>
        <time>2014-07-08T11:20:15Z</time>
      </trkpt>
      <trkpt lat="42.85577" lon="0.88341">
        <ele>1392.82</ele>
        <time>2014-07-08T11:20:22Z</time>
      </trkpt>
      <trkpt lat="42.85579" lon="0.88335">
        <ele>1394.88</ele>
        <time>2014-07-08T11:20:31Z</time>
      </trkpt>
      <trkpt lat="42.85582" lon="0.8833">
        <ele>1397.54</ele>
        <time>2014-07-08T11:20:43Z</time>
      </trkpt>
      <trkpt lat="42.85585" lon="0.88325">
        <ele>1397.57</ele>
        <time>2014-07-08T11:20:48Z</time>
      </trkpt>
      <trkpt lat="42.85587" lon="0.88319">
        <ele>1398.1</ele>
        <time>2014-07-08T11:20:54Z</time>
      </trkpt>
      <trkpt lat="42.8559" lon="0.88314">
        <ele>1397.43</ele>
        <time>2014-07-08T11:21:00Z</time>
      </trkpt>
      <trkpt lat="42.85591" lon="0.88307">
        <ele>1398.29</ele>
        <time>2014-07-08T11:21:05Z</time>
      </trkpt>
      <trkpt lat="42.85594" lon="0.88302">
        <ele>1397.93</ele>
        <time>2014-07-08T11:21:09Z</time>
      </trkpt>
      <trkpt lat="42.85598" lon="0.88297">
        <ele>1396.63</ele>
        <time>2014-07-08T11:21:13Z</time>
      </trkpt>
      <trkpt lat="42.856" lon="0.88291">
        <ele>1396.52</ele>
        <time>2014-07-08T11:21:18Z</time>
      </trkpt>
      <trkpt lat="42.85601" lon="0.88284">
        <ele>1394.92</ele>
        <time>2014-07-08T11:21:23Z</time>
      </trkpt>
      <trkpt lat="42.85602" lon="0.88277">
        <ele>1394.44</ele>
        <time>2014-07-08T11:21:28Z</time>
      </trkpt>
      <trkpt lat="42.85603" lon="0.88271">
        <ele>1393.17</ele>
        <time>2014-07-08T11:21:32Z</time>
      </trkpt>
      <trkpt lat="42.85607" lon="0.88265">
        <ele>1392.05</ele>
        <time>2014-07-08T11:21:36Z</time>
      </trkpt>
      <trkpt lat="42.85608" lon="0.88258">
        <ele>1392.26</ele>
        <time>2014-07-08T11:21:41Z</time>
      </trkpt>
      <trkpt lat="42.85609" lon="0.88252">
        <ele>1394.23</ele>
        <time>2014-07-08T11:21:46Z</time>
      </trkpt>
      <trkpt lat="42.8561" lon="0.88245">
        <ele>1394.92</ele>
        <time>2014-07-08T11:21:52Z</time>
      </trkpt>
      <trkpt lat="42.85611" lon="0.88239">
        <ele>1396.84</ele>
        <time>2014-07-08T11:21:58Z</time>
      </trkpt>
      <trkpt lat="42.85611" lon="0.88232">
        <ele>1396.02</ele>
        <time>2014-07-08T11:22:04Z</time>
      </trkpt>
      <trkpt lat="42.8561" lon="0.88225">
        <ele>1393.95</ele>
        <time>2014-07-08T11:22:09Z</time>
      </trkpt>
      <trkpt lat="42.85607" lon="0.88219">
        <ele>1391.32</ele>
        <time>2014-07-08T11:22:14Z</time>
      </trkpt>
      <trkpt lat="42.85606" lon="0.88212">
        <ele>1393.11</ele>
        <time>2014-07-08T11:22:20Z</time>
      </trkpt>
      <trkpt lat="42.85605" lon="0.88205">
        <ele>1392.59</ele>
        <time>2014-07-08T11:22:26Z</time>
      </trkpt>
      <trkpt lat="42.85606" lon="0.88199">
        <ele>1396.33</ele>
        <time>2014-07-08T11:22:32Z</time>
      </trkpt>
      <trkpt lat="42.85609" lon="0.88194">
        <ele>1394.47</ele>
        <time>2014-07-08T11:22:37Z</time>
      </trkpt>
      <trkpt lat="42.8561" lon="0.88187">
        <ele>1394.64</ele>
        <time>2014-07-08T11:22:42Z</time>
      </trkpt>
      <trkpt lat="42.85611" lon="0.8818">
        <ele>1395.53</ele>
        <time>2014-07-08T11:22:47Z</time>
      </trkpt>
      <trkpt lat="42.85613" lon="0.88173">
        <ele>1392.33</ele>
        <time>2014-07-08T11:22:52Z</time>
      </trkpt>
      <trkpt lat="42.85614" lon="0.88165">
        <ele>1391.71</ele>
        <time>2014-07-08T11:22:57Z</time>
      </trkpt>
      <trkpt lat="42.85615" lon="0.88159">
        <ele>1390.53</ele>
        <time>2014-07-08T11:23:01Z</time>
      </trkpt>
      <trkpt lat="42.85614" lon="0.88152">
        <ele>1389.9</ele>
        <time>2014-07-08T11:23:05Z</time>
      </trkpt>
      <trkpt lat="42.85613" lon="0.88146">
        <ele>1388.88</ele>
        <time>2014-07-08T11:23:09Z</time>
      </trkpt>
      <trkpt lat="42.8561" lon="0.8814">
        <ele>1390.01</ele>
        <time>2014-07-08T11:23:14Z</time>
      </trkpt>
      <trkpt lat="42.85609" lon="0.88134">
        <ele>1389.66</ele>
        <time>2014-07-08T11:23:19Z</time>
      </trkpt>
      <trkpt lat="42.85614" lon="0.8813">
        <ele>1391.01</ele>
        <time>2014-07-08T11:23:24Z</time>
      </trkpt>
      <trkpt lat="42.85619" lon="0.8813">
        <ele>1389.7</ele>
        <time>2014-07-08T11:23:28Z</time>
      </trkpt>
      <trkpt lat="42.85623" lon="0.88127">
        <ele>1387.6</ele>
        <time>2014-07-08T11:23:34Z</time>
      </trkpt>
      <trkpt lat="42.85629" lon="0.88129">
        <ele>1386.52</ele>
        <time>2014-07-08T11:23:43Z</time>
      </trkpt>
      <trkpt lat="42.85633" lon="0.88132">
        <ele>1386.92</ele>
        <time>2014-07-08T11:23:47Z</time>
      </trkpt>
      <trkpt lat="42.85636" lon="0.88138">
        <ele>1389.53</ele>
        <time>2014-07-08T11:23:53Z</time>
      </trkpt>
      <trkpt lat="42.85639" lon="0.88142">
        <ele>1390.34</ele>
        <time>2014-07-08T11:23:58Z</time>
      </trkpt>
      <trkpt lat="42.85641" lon="0.88147">
        <ele>1389.79</ele>
        <time>2014-07-08T11:24:03Z</time>
      </trkpt>
      <trkpt lat="42.85644" lon="0.88152">
        <ele>1390.39</ele>
        <time>2014-07-08T11:24:13Z</time>
      </trkpt>
      <trkpt lat="42.85648" lon="0.88157">
        <ele>1380.19</ele>
        <time>2014-07-08T11:26:01Z</time>
      </trkpt>
      <trkpt lat="42.85651" lon="0.88161">
        <ele>1375.43</ele>
        <time>2014-07-08T11:29:27Z</time>
      </trkpt>
      <trkpt lat="42.85652" lon="0.88167">
        <ele>1375.39</ele>
        <time>2014-07-08T11:29:35Z</time>
      </trkpt>
      <trkpt lat="42.8565" lon="0.88174">
        <ele>1378.15</ele>
        <time>2014-07-08T11:29:43Z</time>
      </trkpt>
      <trkpt lat="42.85646" lon="0.88177">
        <ele>1377.87</ele>
        <time>2014-07-08T11:29:49Z</time>
      </trkpt>
      <trkpt lat="42.85642" lon="0.88181">
        <ele>1379.73</ele>
        <time>2014-07-08T11:30:01Z</time>
      </trkpt>
      <trkpt lat="42.85638" lon="0.88184">
        <ele>1378.05</ele>
        <time>2014-07-08T11:30:19Z</time>
      </trkpt>
      <trkpt lat="42.85634" lon="0.88188">
        <ele>1377.35</ele>
        <time>2014-07-08T11:30:31Z</time>
      </trkpt>
      <trkpt lat="42.85631" lon="0.88194">
        <ele>1376.85</ele>
        <time>2014-07-08T11:30:37Z</time>
      </trkpt>
      <trkpt lat="42.85628" lon="0.88198">
        <ele>1380.12</ele>
        <time>2014-07-08T11:30:46Z</time>
      </trkpt>
      <trkpt lat="42.85626" lon="0.88203">
        <ele>1384.35</ele>
        <time>2014-07-08T11:30:55Z</time>
      </trkpt>
      <trkpt lat="42.85625" lon="0.8821">
        <ele>1383.25</ele>
        <time>2014-07-08T11:30:59Z</time>
      </trkpt>
      <trkpt lat="42.85624" lon="0.88217">
        <ele>1380.22</ele>
        <time>2014-07-08T11:31:03Z</time>
      </trkpt>
      <trkpt lat="42.85624" lon="0.88224">
        <ele>1377.45</ele>
        <time>2014-07-08T11:31:07Z</time>
      </trkpt>
      <trkpt lat="42.85624" lon="0.88231">
        <ele>1375.99</ele>
        <time>2014-07-08T11:31:11Z</time>
      </trkpt>
      <trkpt lat="42.85624" lon="0.88237">
        <ele>1369.81</ele>
        <time>2014-07-08T11:31:16Z</time>
      </trkpt>
      <trkpt lat="42.85625" lon="0.88244">
        <ele>1367.22</ele>
        <time>2014-07-08T11:31:21Z</time>
      </trkpt>
      <trkpt lat="42.85627" lon="0.88251">
        <ele>1364.12</ele>
        <time>2014-07-08T11:31:27Z</time>
      </trkpt>
      <trkpt lat="42.85628" lon="0.88257">
        <ele>1364.8</ele>
        <time>2014-07-08T11:31:32Z</time>
      </trkpt>
      <trkpt lat="42.85629" lon="0.88263">
        <ele>1363.25</ele>
        <time>2014-07-08T11:31:38Z</time>
      </trkpt>
      <trkpt lat="42.85629" lon="0.8827">
        <ele>1365.61</ele>
        <time>2014-07-08T11:31:43Z</time>
      </trkpt>
      <trkpt lat="42.85629" lon="0.88278">
        <ele>1368.99</ele>
        <time>2014-07-08T11:31:47Z</time>
      </trkpt>
      <trkpt lat="42.85629" lon="0.88285">
        <ele>1371.32</ele>
        <time>2014-07-08T11:31:50Z</time>
      </trkpt>
      <trkpt lat="42.85628" lon="0.88291">
        <ele>1372.99</ele>
        <time>2014-07-08T11:31:53Z</time>
      </trkpt>
      <trkpt lat="42.85629" lon="0.88299">
        <ele>1375.3</ele>
        <time>2014-07-08T11:31:57Z</time>
      </trkpt>
      <trkpt lat="42.8563" lon="0.88306">
        <ele>1377.74</ele>
        <time>2014-07-08T11:32:01Z</time>
      </trkpt>
      <trkpt lat="42.85632" lon="0.88311">
        <ele>1376.11</ele>
        <time>2014-07-08T11:32:05Z</time>
      </trkpt>
      <trkpt lat="42.85632" lon="0.88318">
        <ele>1374.93</ele>
        <time>2014-07-08T11:32:10Z</time>
      </trkpt>
      <trkpt lat="42.85634" lon="0.88324">
        <ele>1375.17</ele>
        <time>2014-07-08T11:32:17Z</time>
      </trkpt>
      <trkpt lat="42.85635" lon="0.88332">
        <ele>1377.89</ele>
        <time>2014-07-08T11:32:22Z</time>
      </trkpt>
      <trkpt lat="42.85639" lon="0.88337">
        <ele>1373.51</ele>
        <time>2014-07-08T11:32:27Z</time>
      </trkpt>
      <trkpt lat="42.85641" lon="0.88344">
        <ele>1371.43</ele>
        <time>2014-07-08T11:32:32Z</time>
      </trkpt>
      <trkpt lat="42.85642" lon="0.88351">
        <ele>1371.27</ele>
        <time>2014-07-08T11:32:37Z</time>
      </trkpt>
      <trkpt lat="42.85643" lon="0.88358">
        <ele>1367</ele>
        <time>2014-07-08T11:32:43Z</time>
      </trkpt>
      <trkpt lat="42.85643" lon="0.88365">
        <ele>1367.09</ele>
        <time>2014-07-08T11:32:48Z</time>
      </trkpt>
      <trkpt lat="42.85642" lon="0.88372">
        <ele>1368.26</ele>
        <time>2014-07-08T11:32:52Z</time>
      </trkpt>
      <trkpt lat="42.85642" lon="0.88378">
        <ele>1369.67</ele>
        <time>2014-07-08T11:32:56Z</time>
      </trkpt>
      <trkpt lat="42.85644" lon="0.88384">
        <ele>1370.06</ele>
        <time>2014-07-08T11:33:00Z</time>
      </trkpt>
      <trkpt lat="42.85645" lon="0.88392">
        <ele>1370.27</ele>
        <time>2014-07-08T11:33:05Z</time>
      </trkpt>
      <trkpt lat="42.85647" lon="0.88398">
        <ele>1369.89</ele>
        <time>2014-07-08T11:33:10Z</time>
      </trkpt>
      <trkpt lat="42.85647" lon="0.88405">
        <ele>1366.45</ele>
        <time>2014-07-08T11:33:15Z</time>
      </trkpt>
      <trkpt lat="42.85648" lon="0.88411">
        <ele>1364.21</ele>
        <time>2014-07-08T11:33:20Z</time>
      </trkpt>
      <trkpt lat="42.85648" lon="0.88417">
        <ele>1364.59</ele>
        <time>2014-07-08T11:33:24Z</time>
      </trkpt>
      <trkpt lat="42.85648" lon="0.88424">
        <ele>1366.65</ele>
        <time>2014-07-08T11:33:28Z</time>
      </trkpt>
      <trkpt lat="42.85648" lon="0.88432">
        <ele>1369.59</ele>
        <time>2014-07-08T11:33:32Z</time>
      </trkpt>
      <trkpt lat="42.85649" lon="0.88439">
        <ele>1372.39</ele>
        <time>2014-07-08T11:33:36Z</time>
      </trkpt>
      <trkpt lat="42.8565" lon="0.88446">
        <ele>1373.03</ele>
        <time>2014-07-08T11:33:40Z</time>
      </trkpt>
      <trkpt lat="42.85652" lon="0.88453">
        <ele>1371.1</ele>
        <time>2014-07-08T11:33:45Z</time>
      </trkpt>
      <trkpt lat="42.85654" lon="0.88458">
        <ele>1370.64</ele>
        <time>2014-07-08T11:33:51Z</time>
      </trkpt>
      <trkpt lat="42.85655" lon="0.88465">
        <ele>1369.35</ele>
        <time>2014-07-08T11:33:56Z</time>
      </trkpt>
      <trkpt lat="42.85656" lon="0.88472">
        <ele>1368.76</ele>
        <time>2014-07-08T11:34:01Z</time>
      </trkpt>
      <trkpt lat="42.85655" lon="0.88478">
        <ele>1371.01</ele>
        <time>2014-07-08T11:34:05Z</time>
      </trkpt>
      <trkpt lat="42.85655" lon="0.88485">
        <ele>1370.56</ele>
        <time>2014-07-08T11:34:09Z</time>
      </trkpt>
      <trkpt lat="42.85656" lon="0.88492">
        <ele>1369.86</ele>
        <time>2014-07-08T11:34:14Z</time>
      </trkpt>
      <trkpt lat="42.85656" lon="0.885">
        <ele>1370.54</ele>
        <time>2014-07-08T11:34:19Z</time>
      </trkpt>
      <trkpt lat="42.85657" lon="0.88506">
        <ele>1367.8</ele>
        <time>2014-07-08T11:34:25Z</time>
      </trkpt>
      <trkpt lat="42.85659" lon="0.88512">
        <ele>1367.93</ele>
        <time>2014-07-08T11:34:30Z</time>
      </trkpt>
      <trkpt lat="42.85661" lon="0.88519">
        <ele>1368.19</ele>
        <time>2014-07-08T11:34:35Z</time>
      </trkpt>
      <trkpt lat="42.85661" lon="0.88526">
        <ele>1367.34</ele>
        <time>2014-07-08T11:34:40Z</time>
      </trkpt>
      <trkpt lat="42.85662" lon="0.88533">
        <ele>1364.07</ele>
        <time>2014-07-08T11:34:45Z</time>
      </trkpt>
      <trkpt lat="42.85664" lon="0.8854">
        <ele>1363.38</ele>
        <time>2014-07-08T11:34:50Z</time>
      </trkpt>
      <trkpt lat="42.85664" lon="0.88546">
        <ele>1361.47</ele>
        <time>2014-07-08T11:34:55Z</time>
      </trkpt>
      <trkpt lat="42.85665" lon="0.88552">
        <ele>1359.39</ele>
        <time>2014-07-08T11:35:00Z</time>
      </trkpt>
      <trkpt lat="42.85667" lon="0.88559">
        <ele>1357.15</ele>
        <time>2014-07-08T11:35:05Z</time>
      </trkpt>
      <trkpt lat="42.85668" lon="0.88566">
        <ele>1356.58</ele>
        <time>2014-07-08T11:35:10Z</time>
      </trkpt>
      <trkpt lat="42.8567" lon="0.88573">
        <ele>1354.4</ele>
        <time>2014-07-08T11:35:16Z</time>
      </trkpt>
      <trkpt lat="42.85672" lon="0.88579">
        <ele>1354.82</ele>
        <time>2014-07-08T11:35:20Z</time>
      </trkpt>
      <trkpt lat="42.85674" lon="0.88585">
        <ele>1354.36</ele>
        <time>2014-07-08T11:35:24Z</time>
      </trkpt>
      <trkpt lat="42.85677" lon="0.88591">
        <ele>1353.88</ele>
        <time>2014-07-08T11:35:28Z</time>
      </trkpt>
      <trkpt lat="42.85679" lon="0.88596">
        <ele>1353.07</ele>
        <time>2014-07-08T11:35:32Z</time>
      </trkpt>
      <trkpt lat="42.85681" lon="0.88602">
        <ele>1352.8</ele>
        <time>2014-07-08T11:35:36Z</time>
      </trkpt>
      <trkpt lat="42.85682" lon="0.88608">
        <ele>1353.37</ele>
        <time>2014-07-08T11:35:40Z</time>
      </trkpt>
      <trkpt lat="42.85684" lon="0.88615">
        <ele>1352.77</ele>
        <time>2014-07-08T11:35:45Z</time>
      </trkpt>
      <trkpt lat="42.85685" lon="0.88621">
        <ele>1352.33</ele>
        <time>2014-07-08T11:35:49Z</time>
      </trkpt>
      <trkpt lat="42.85687" lon="0.88628">
        <ele>1351.99</ele>
        <time>2014-07-08T11:35:54Z</time>
      </trkpt>
      <trkpt lat="42.85689" lon="0.88635">
        <ele>1351.1</ele>
        <time>2014-07-08T11:35:59Z</time>
      </trkpt>
      <trkpt lat="42.85691" lon="0.8864">
        <ele>1350.89</ele>
        <time>2014-07-08T11:36:04Z</time>
      </trkpt>
      <trkpt lat="42.85693" lon="0.88646">
        <ele>1351.83</ele>
        <time>2014-07-08T11:36:09Z</time>
      </trkpt>
      <trkpt lat="42.85695" lon="0.88653">
        <ele>1351.63</ele>
        <time>2014-07-08T11:36:14Z</time>
      </trkpt>
      <trkpt lat="42.85697" lon="0.8866">
        <ele>1351.95</ele>
        <time>2014-07-08T11:36:19Z</time>
      </trkpt>
      <trkpt lat="42.857" lon="0.88666">
        <ele>1353.23</ele>
        <time>2014-07-08T11:36:24Z</time>
      </trkpt>
      <trkpt lat="42.85702" lon="0.88673">
        <ele>1352.46</ele>
        <time>2014-07-08T11:36:29Z</time>
      </trkpt>
      <trkpt lat="42.85704" lon="0.8868">
        <ele>1351.18</ele>
        <time>2014-07-08T11:36:34Z</time>
      </trkpt>
      <trkpt lat="42.85706" lon="0.88686">
        <ele>1348.95</ele>
        <time>2014-07-08T11:36:39Z</time>
      </trkpt>
      <trkpt lat="42.85708" lon="0.88693">
        <ele>1349.53</ele>
        <time>2014-07-08T11:36:44Z</time>
      </trkpt>
      <trkpt lat="42.85708" lon="0.887">
        <ele>1350.91</ele>
        <time>2014-07-08T11:36:49Z</time>
      </trkpt>
      <trkpt lat="42.8571" lon="0.88707">
        <ele>1350.42</ele>
        <time>2014-07-08T11:36:54Z</time>
      </trkpt>
      <trkpt lat="42.85711" lon="0.88715">
        <ele>1349.32</ele>
        <time>2014-07-08T11:36:59Z</time>
      </trkpt>
      <trkpt lat="42.85714" lon="0.8872">
        <ele>1347.33</ele>
        <time>2014-07-08T11:37:04Z</time>
      </trkpt>
      <trkpt lat="42.85717" lon="0.88725">
        <ele>1346.11</ele>
        <time>2014-07-08T11:37:09Z</time>
      </trkpt>
      <trkpt lat="42.85719" lon="0.88731">
        <ele>1344.59</ele>
        <time>2014-07-08T11:37:15Z</time>
      </trkpt>
      <trkpt lat="42.85719" lon="0.88738">
        <ele>1345.82</ele>
        <time>2014-07-08T11:37:20Z</time>
      </trkpt>
      <trkpt lat="42.85721" lon="0.88744">
        <ele>1343.41</ele>
        <time>2014-07-08T11:37:25Z</time>
      </trkpt>
      <trkpt lat="42.85723" lon="0.8875">
        <ele>1343.07</ele>
        <time>2014-07-08T11:37:30Z</time>
      </trkpt>
      <trkpt lat="42.85725" lon="0.88756">
        <ele>1342.87</ele>
        <time>2014-07-08T11:37:35Z</time>
      </trkpt>
      <trkpt lat="42.85727" lon="0.88762">
        <ele>1340.34</ele>
        <time>2014-07-08T11:37:41Z</time>
      </trkpt>
      <trkpt lat="42.85729" lon="0.88769">
        <ele>1339.75</ele>
        <time>2014-07-08T11:37:46Z</time>
      </trkpt>
      <trkpt lat="42.8573" lon="0.88775">
        <ele>1338.33</ele>
        <time>2014-07-08T11:37:52Z</time>
      </trkpt>
      <trkpt lat="42.85728" lon="0.88782">
        <ele>1337.52</ele>
        <time>2014-07-08T11:37:59Z</time>
      </trkpt>
      <trkpt lat="42.85729" lon="0.88788">
        <ele>1336.42</ele>
        <time>2014-07-08T11:38:07Z</time>
      </trkpt>
      <trkpt lat="42.85729" lon="0.88795">
        <ele>1335.2</ele>
        <time>2014-07-08T11:38:14Z</time>
      </trkpt>
      <trkpt lat="42.85728" lon="0.88802">
        <ele>1334.8</ele>
        <time>2014-07-08T11:38:20Z</time>
      </trkpt>
      <trkpt lat="42.85727" lon="0.88808">
        <ele>1334.02</ele>
        <time>2014-07-08T11:38:26Z</time>
      </trkpt>
      <trkpt lat="42.85726" lon="0.88815">
        <ele>1333.2</ele>
        <time>2014-07-08T11:38:32Z</time>
      </trkpt>
      <trkpt lat="42.85725" lon="0.88821">
        <ele>1331.75</ele>
        <time>2014-07-08T11:38:38Z</time>
      </trkpt>
      <trkpt lat="42.85723" lon="0.88826">
        <ele>1330.33</ele>
        <time>2014-07-08T11:38:54Z</time>
      </trkpt>
      <trkpt lat="42.85714" lon="0.88806">
        <ele>1334.53</ele>
        <time>2014-07-08T11:46:40Z</time>
      </trkpt>
      <trkpt lat="42.85718" lon="0.88811">
        <ele>1329.38</ele>
        <time>2014-07-08T11:46:41Z</time>
      </trkpt>
      <trkpt lat="42.85721" lon="0.88817">
        <ele>1323.69</ele>
        <time>2014-07-08T11:46:45Z</time>
      </trkpt>
      <trkpt lat="42.85724" lon="0.88823">
        <ele>1321.1</ele>
        <time>2014-07-08T11:47:43Z</time>
      </trkpt>
      <trkpt lat="42.85723" lon="0.88829">
        <ele>1325.61</ele>
        <time>2014-07-08T11:47:48Z</time>
      </trkpt>
      <trkpt lat="42.85723" lon="0.88837">
        <ele>1326.43</ele>
        <time>2014-07-08T11:47:53Z</time>
      </trkpt>
      <trkpt lat="42.85724" lon="0.88843">
        <ele>1326.25</ele>
        <time>2014-07-08T11:47:58Z</time>
      </trkpt>
      <trkpt lat="42.85726" lon="0.8885">
        <ele>1325.12</ele>
        <time>2014-07-08T11:48:03Z</time>
      </trkpt>
      <trkpt lat="42.85725" lon="0.88857">
        <ele>1325.24</ele>
        <time>2014-07-08T11:48:10Z</time>
      </trkpt>
      <trkpt lat="42.85727" lon="0.88851">
        <ele>1328.82</ele>
        <time>2014-07-08T11:50:38Z</time>
      </trkpt>
      <trkpt lat="42.85727" lon="0.88844">
        <ele>1329.79</ele>
        <time>2014-07-08T11:50:44Z</time>
      </trkpt>
      <trkpt lat="42.85726" lon="0.88837">
        <ele>1329.71</ele>
        <time>2014-07-08T11:50:50Z</time>
      </trkpt>
      <trkpt lat="42.85724" lon="0.8883">
        <ele>1330.45</ele>
        <time>2014-07-08T11:50:56Z</time>
      </trkpt>
      <trkpt lat="42.85723" lon="0.88824">
        <ele>1331.22</ele>
        <time>2014-07-08T11:51:02Z</time>
      </trkpt>
      <trkpt lat="42.85718" lon="0.88823">
        <ele>1323.23</ele>
        <time>2014-07-08T11:53:32Z</time>
      </trkpt>
      <trkpt lat="42.85723" lon="0.88823">
        <ele>1325.63</ele>
        <time>2014-07-08T11:56:06Z</time>
      </trkpt>
      <trkpt lat="42.85726" lon="0.88829">
        <ele>1327.07</ele>
        <time>2014-07-08T11:56:19Z</time>
      </trkpt>
      <trkpt lat="42.85725" lon="0.88835">
        <ele>1326.64</ele>
        <time>2014-07-08T11:56:25Z</time>
      </trkpt>
      <trkpt lat="42.85725" lon="0.88842">
        <ele>1327.21</ele>
        <time>2014-07-08T11:56:31Z</time>
      </trkpt>
      <trkpt lat="42.85726" lon="0.88848">
        <ele>1328.16</ele>
        <time>2014-07-08T11:56:38Z</time>
      </trkpt>
      <trkpt lat="42.85727" lon="0.88855">
        <ele>1327.83</ele>
        <time>2014-07-08T11:56:45Z</time>
      </trkpt>
      <trkpt lat="42.85723" lon="0.88857">
        <ele>1329.77</ele>
        <time>2014-07-08T11:57:08Z</time>
      </trkpt>
      <trkpt lat="42.8572" lon="0.88863">
        <ele>1330.09</ele>
        <time>2014-07-08T11:57:15Z</time>
      </trkpt>
      <trkpt lat="42.85721" lon="0.8887">
        <ele>1328.58</ele>
        <time>2014-07-08T11:57:38Z</time>
      </trkpt>
      <trkpt lat="42.85725" lon="0.88873">
        <ele>1329.08</ele>
        <time>2014-07-08T11:57:56Z</time>
      </trkpt>
      <trkpt lat="42.85728" lon="0.88877">
        <ele>1328.93</ele>
        <time>2014-07-08T11:58:02Z</time>
      </trkpt>
      <trkpt lat="42.85731" lon="0.88883">
        <ele>1327.23</ele>
        <time>2014-07-08T11:58:15Z</time>
      </trkpt>
      <trkpt lat="42.85731" lon="0.88889">
        <ele>1326.52</ele>
        <time>2014-07-08T11:58:21Z</time>
      </trkpt>
      <trkpt lat="42.85733" lon="0.88895">
        <ele>1325.43</ele>
        <time>2014-07-08T11:58:26Z</time>
      </trkpt>
      <trkpt lat="42.85733" lon="0.88902">
        <ele>1324.92</ele>
        <time>2014-07-08T11:58:32Z</time>
      </trkpt>
      <trkpt lat="42.85735" lon="0.88909">
        <ele>1324.12</ele>
        <time>2014-07-08T11:58:38Z</time>
      </trkpt>
      <trkpt lat="42.85736" lon="0.88916">
        <ele>1323.64</ele>
        <time>2014-07-08T11:58:44Z</time>
      </trkpt>
      <trkpt lat="42.85738" lon="0.88923">
        <ele>1322.06</ele>
        <time>2014-07-08T11:58:50Z</time>
      </trkpt>
      <trkpt lat="42.85739" lon="0.88929">
        <ele>1321.28</ele>
        <time>2014-07-08T11:58:56Z</time>
      </trkpt>
      <trkpt lat="42.8574" lon="0.88936">
        <ele>1319.71</ele>
        <time>2014-07-08T11:59:02Z</time>
      </trkpt>
      <trkpt lat="42.85739" lon="0.88942">
        <ele>1319.4</ele>
        <time>2014-07-08T11:59:07Z</time>
      </trkpt>
      <trkpt lat="42.85739" lon="0.88949">
        <ele>1317.47</ele>
        <time>2014-07-08T11:59:13Z</time>
      </trkpt>
      <trkpt lat="42.8574" lon="0.88955">
        <ele>1316.41</ele>
        <time>2014-07-08T11:59:18Z</time>
      </trkpt>
      <trkpt lat="42.8574" lon="0.88962">
        <ele>1315.23</ele>
        <time>2014-07-08T11:59:24Z</time>
      </trkpt>
      <trkpt lat="42.85741" lon="0.88968">
        <ele>1313.81</ele>
        <time>2014-07-08T11:59:29Z</time>
      </trkpt>
      <trkpt lat="42.85742" lon="0.88974">
        <ele>1313.22</ele>
        <time>2014-07-08T11:59:34Z</time>
      </trkpt>
      <trkpt lat="42.85742" lon="0.88981">
        <ele>1312</ele>
        <time>2014-07-08T11:59:39Z</time>
      </trkpt>
      <trkpt lat="42.85742" lon="0.88988">
        <ele>1310.55</ele>
        <time>2014-07-08T11:59:44Z</time>
      </trkpt>
      <trkpt lat="42.85744" lon="0.88995">
        <ele>1308.24</ele>
        <time>2014-07-08T11:59:49Z</time>
      </trkpt>
      <trkpt lat="42.85746" lon="0.89001">
        <ele>1307.47</ele>
        <time>2014-07-08T11:59:54Z</time>
      </trkpt>
      <trkpt lat="42.85746" lon="0.89008">
        <ele>1307.13</ele>
        <time>2014-07-08T11:59:59Z</time>
      </trkpt>
      <trkpt lat="42.85747" lon="0.89014">
        <ele>1306.22</ele>
        <time>2014-07-08T12:00:04Z</time>
      </trkpt>
      <trkpt lat="42.85748" lon="0.8902">
        <ele>1304.83</ele>
        <time>2014-07-08T12:00:09Z</time>
      </trkpt>
      <trkpt lat="42.85749" lon="0.89027">
        <ele>1303.79</ele>
        <time>2014-07-08T12:00:14Z</time>
      </trkpt>
      <trkpt lat="42.85751" lon="0.89034">
        <ele>1302.69</ele>
        <time>2014-07-08T12:00:19Z</time>
      </trkpt>
      <trkpt lat="42.85753" lon="0.8904">
        <ele>1302.36</ele>
        <time>2014-07-08T12:00:24Z</time>
      </trkpt>
      <trkpt lat="42.85752" lon="0.89047">
        <ele>1301.84</ele>
        <time>2014-07-08T12:00:30Z</time>
      </trkpt>
      <trkpt lat="42.85753" lon="0.89054">
        <ele>1301.36</ele>
        <time>2014-07-08T12:00:35Z</time>
      </trkpt>
      <trkpt lat="42.85753" lon="0.89061">
        <ele>1300.56</ele>
        <time>2014-07-08T12:00:40Z</time>
      </trkpt>
      <trkpt lat="42.85753" lon="0.89067">
        <ele>1299.6</ele>
        <time>2014-07-08T12:00:45Z</time>
      </trkpt>
      <trkpt lat="42.85751" lon="0.89073">
        <ele>1298.46</ele>
        <time>2014-07-08T12:00:50Z</time>
      </trkpt>
      <trkpt lat="42.85747" lon="0.8907">
        <ele>1297.02</ele>
        <time>2014-07-08T12:00:54Z</time>
      </trkpt>
      <trkpt lat="42.85744" lon="0.89065">
        <ele>1296.87</ele>
        <time>2014-07-08T12:00:58Z</time>
      </trkpt>
      <trkpt lat="42.85742" lon="0.8906">
        <ele>1297.15</ele>
        <time>2014-07-08T12:01:02Z</time>
      </trkpt>
      <trkpt lat="42.85738" lon="0.89056">
        <ele>1296.62</ele>
        <time>2014-07-08T12:01:06Z</time>
      </trkpt>
      <trkpt lat="42.85734" lon="0.89052">
        <ele>1297.17</ele>
        <time>2014-07-08T12:01:10Z</time>
      </trkpt>
      <trkpt lat="42.85731" lon="0.89049">
        <ele>1297.09</ele>
        <time>2014-07-08T12:01:14Z</time>
      </trkpt>
      <trkpt lat="42.85727" lon="0.89046">
        <ele>1296.14</ele>
        <time>2014-07-08T12:01:18Z</time>
      </trkpt>
      <trkpt lat="42.85722" lon="0.89042">
        <ele>1295.44</ele>
        <time>2014-07-08T12:01:23Z</time>
      </trkpt>
      <trkpt lat="42.85717" lon="0.89037">
        <ele>1295.04</ele>
        <time>2014-07-08T12:01:28Z</time>
      </trkpt>
      <trkpt lat="42.85713" lon="0.89034">
        <ele>1295.45</ele>
        <time>2014-07-08T12:01:32Z</time>
      </trkpt>
      <trkpt lat="42.85709" lon="0.89029">
        <ele>1294.59</ele>
        <time>2014-07-08T12:01:37Z</time>
      </trkpt>
      <trkpt lat="42.85707" lon="0.89035">
        <ele>1293.79</ele>
        <time>2014-07-08T12:01:47Z</time>
      </trkpt>
      <trkpt lat="42.85709" lon="0.89042">
        <ele>1292.06</ele>
        <time>2014-07-08T12:01:52Z</time>
      </trkpt>
      <trkpt lat="42.8571" lon="0.89049">
        <ele>1290.59</ele>
        <time>2014-07-08T12:01:57Z</time>
      </trkpt>
      <trkpt lat="42.85713" lon="0.89055">
        <ele>1288.34</ele>
        <time>2014-07-08T12:02:01Z</time>
      </trkpt>
      <trkpt lat="42.85714" lon="0.89062">
        <ele>1287.97</ele>
        <time>2014-07-08T12:02:05Z</time>
      </trkpt>
      <trkpt lat="42.85715" lon="0.89069">
        <ele>1287.72</ele>
        <time>2014-07-08T12:02:10Z</time>
      </trkpt>
      <trkpt lat="42.85717" lon="0.89075">
        <ele>1285.67</ele>
        <time>2014-07-08T12:02:15Z</time>
      </trkpt>
      <trkpt lat="42.85718" lon="0.89082">
        <ele>1284.23</ele>
        <time>2014-07-08T12:02:20Z</time>
      </trkpt>
      <trkpt lat="42.85719" lon="0.89089">
        <ele>1281.99</ele>
        <time>2014-07-08T12:02:25Z</time>
      </trkpt>
      <trkpt lat="42.85723" lon="0.89094">
        <ele>1278.48</ele>
        <time>2014-07-08T12:02:31Z</time>
      </trkpt>
      <trkpt lat="42.85724" lon="0.89101">
        <ele>1277.35</ele>
        <time>2014-07-08T12:02:37Z</time>
      </trkpt>
      <trkpt lat="42.85723" lon="0.89108">
        <ele>1275.01</ele>
        <time>2014-07-08T12:02:44Z</time>
      </trkpt>
      <trkpt lat="42.85723" lon="0.89114">
        <ele>1273.61</ele>
        <time>2014-07-08T12:02:49Z</time>
      </trkpt>
      <trkpt lat="42.85721" lon="0.8912">
        <ele>1272.91</ele>
        <time>2014-07-08T12:02:54Z</time>
      </trkpt>
      <trkpt lat="42.85716" lon="0.89119">
        <ele>1270.79</ele>
        <time>2014-07-08T12:03:07Z</time>
      </trkpt>
      <trkpt lat="42.85711" lon="0.89117">
        <ele>1272.52</ele>
        <time>2014-07-08T12:03:12Z</time>
      </trkpt>
      <trkpt lat="42.85705" lon="0.89115">
        <ele>1271.95</ele>
        <time>2014-07-08T12:03:16Z</time>
      </trkpt>
      <trkpt lat="42.857" lon="0.89114">
        <ele>1272.32</ele>
        <time>2014-07-08T12:03:21Z</time>
      </trkpt>
      <trkpt lat="42.85695" lon="0.89111">
        <ele>1272.12</ele>
        <time>2014-07-08T12:03:26Z</time>
      </trkpt>
      <trkpt lat="42.8569" lon="0.8911">
        <ele>1271.45</ele>
        <time>2014-07-08T12:03:31Z</time>
      </trkpt>
      <trkpt lat="42.85685" lon="0.89107">
        <ele>1270.82</ele>
        <time>2014-07-08T12:03:36Z</time>
      </trkpt>
      <trkpt lat="42.8568" lon="0.89106">
        <ele>1270.71</ele>
        <time>2014-07-08T12:03:42Z</time>
      </trkpt>
      <trkpt lat="42.85676" lon="0.89102">
        <ele>1270.53</ele>
        <time>2014-07-08T12:03:47Z</time>
      </trkpt>
      <trkpt lat="42.85672" lon="0.891">
        <ele>1268.02</ele>
        <time>2014-07-08T12:03:51Z</time>
      </trkpt>
      <trkpt lat="42.85667" lon="0.89095">
        <ele>1266.62</ele>
        <time>2014-07-08T12:03:56Z</time>
      </trkpt>
      <trkpt lat="42.85665" lon="0.8909">
        <ele>1266.81</ele>
        <time>2014-07-08T12:04:00Z</time>
      </trkpt>
      <trkpt lat="42.85662" lon="0.89085">
        <ele>1266.53</ele>
        <time>2014-07-08T12:04:04Z</time>
      </trkpt>
      <trkpt lat="42.85659" lon="0.89081">
        <ele>1266.99</ele>
        <time>2014-07-08T12:04:08Z</time>
      </trkpt>
      <trkpt lat="42.85655" lon="0.89077">
        <ele>1265.63</ele>
        <time>2014-07-08T12:04:12Z</time>
      </trkpt>
      <trkpt lat="42.85651" lon="0.89073">
        <ele>1263.24</ele>
        <time>2014-07-08T12:04:17Z</time>
      </trkpt>
      <trkpt lat="42.85647" lon="0.89078">
        <ele>1265.13</ele>
        <time>2014-07-08T12:04:24Z</time>
      </trkpt>
      <trkpt lat="42.85648" lon="0.89085">
        <ele>1265.12</ele>
        <time>2014-07-08T12:04:29Z</time>
      </trkpt>
      <trkpt lat="42.85649" lon="0.89092">
        <ele>1262.35</ele>
        <time>2014-07-08T12:04:35Z</time>
      </trkpt>
      <trkpt lat="42.8565" lon="0.89098">
        <ele>1260.86</ele>
        <time>2014-07-08T12:04:39Z</time>
      </trkpt>
      <trkpt lat="42.85651" lon="0.89105">
        <ele>1259.02</ele>
        <time>2014-07-08T12:04:44Z</time>
      </trkpt>
      <trkpt lat="42.85651" lon="0.89112">
        <ele>1255.7</ele>
        <time>2014-07-08T12:04:50Z</time>
      </trkpt>
      <trkpt lat="42.85651" lon="0.89119">
        <ele>1254.18</ele>
        <time>2014-07-08T12:04:56Z</time>
      </trkpt>
      <trkpt lat="42.8565" lon="0.89126">
        <ele>1252.45</ele>
        <time>2014-07-08T12:05:02Z</time>
      </trkpt>
      <trkpt lat="42.85647" lon="0.89132">
        <ele>1252.39</ele>
        <time>2014-07-08T12:05:07Z</time>
      </trkpt>
      <trkpt lat="42.85648" lon="0.89139">
        <ele>1250.35</ele>
        <time>2014-07-08T12:05:12Z</time>
      </trkpt>
      <trkpt lat="42.85649" lon="0.89147">
        <ele>1248.38</ele>
        <time>2014-07-08T12:05:17Z</time>
      </trkpt>
      <trkpt lat="42.85649" lon="0.89154">
        <ele>1249.76</ele>
        <time>2014-07-08T12:05:21Z</time>
      </trkpt>
      <trkpt lat="42.85652" lon="0.8916">
        <ele>1249.9</ele>
        <time>2014-07-08T12:05:25Z</time>
      </trkpt>
      <trkpt lat="42.85655" lon="0.89165">
        <ele>1248.21</ele>
        <time>2014-07-08T12:05:29Z</time>
      </trkpt>
      <trkpt lat="42.85659" lon="0.8917">
        <ele>1247.03</ele>
        <time>2014-07-08T12:05:34Z</time>
      </trkpt>
      <trkpt lat="42.85663" lon="0.89173">
        <ele>1245.84</ele>
        <time>2014-07-08T12:05:39Z</time>
      </trkpt>
      <trkpt lat="42.85666" lon="0.89178">
        <ele>1244.87</ele>
        <time>2014-07-08T12:05:44Z</time>
      </trkpt>
      <trkpt lat="42.85666" lon="0.89185">
        <ele>1244.61</ele>
        <time>2014-07-08T12:05:54Z</time>
      </trkpt>
      <trkpt lat="42.85665" lon="0.89191">
        <ele>1244.64</ele>
        <time>2014-07-08T12:05:59Z</time>
      </trkpt>
      <trkpt lat="42.85667" lon="0.89198">
        <ele>1242.92</ele>
        <time>2014-07-08T12:06:12Z</time>
      </trkpt>
      <trkpt lat="42.85668" lon="0.89204">
        <ele>1240.48</ele>
        <time>2014-07-08T12:06:21Z</time>
      </trkpt>
      <trkpt lat="42.85671" lon="0.8921">
        <ele>1237.55</ele>
        <time>2014-07-08T12:06:27Z</time>
      </trkpt>
      <trkpt lat="42.85674" lon="0.89215">
        <ele>1234.84</ele>
        <time>2014-07-08T12:06:33Z</time>
      </trkpt>
      <trkpt lat="42.85676" lon="0.89222">
        <ele>1234.67</ele>
        <time>2014-07-08T12:06:39Z</time>
      </trkpt>
      <trkpt lat="42.85678" lon="0.89229">
        <ele>1231.95</ele>
        <time>2014-07-08T12:06:44Z</time>
      </trkpt>
      <trkpt lat="42.85679" lon="0.89236">
        <ele>1230.83</ele>
        <time>2014-07-08T12:06:49Z</time>
      </trkpt>
      <trkpt lat="42.85681" lon="0.89242">
        <ele>1230.98</ele>
        <time>2014-07-08T12:06:53Z</time>
      </trkpt>
      <trkpt lat="42.85684" lon="0.89248">
        <ele>1229.28</ele>
        <time>2014-07-08T12:06:58Z</time>
      </trkpt>
      <trkpt lat="42.85686" lon="0.89253">
        <ele>1228.74</ele>
        <time>2014-07-08T12:07:03Z</time>
      </trkpt>
      <trkpt lat="42.85688" lon="0.89259">
        <ele>1226.63</ele>
        <time>2014-07-08T12:07:14Z</time>
      </trkpt>
      <trkpt lat="42.85692" lon="0.89263">
        <ele>1225.16</ele>
        <time>2014-07-08T12:07:21Z</time>
      </trkpt>
      <trkpt lat="42.85697" lon="0.89264">
        <ele>1223.29</ele>
        <time>2014-07-08T12:07:27Z</time>
      </trkpt>
      <trkpt lat="42.85702" lon="0.89266">
        <ele>1223.64</ele>
        <time>2014-07-08T12:07:32Z</time>
      </trkpt>
      <trkpt lat="42.85707" lon="0.8927">
        <ele>1223.84</ele>
        <time>2014-07-08T12:07:37Z</time>
      </trkpt>
      <trkpt lat="42.85709" lon="0.89275">
        <ele>1224.68</ele>
        <time>2014-07-08T12:07:41Z</time>
      </trkpt>
      <trkpt lat="42.85711" lon="0.89281">
        <ele>1224.79</ele>
        <time>2014-07-08T12:07:45Z</time>
      </trkpt>
      <trkpt lat="42.85715" lon="0.89285">
        <ele>1224.86</ele>
        <time>2014-07-08T12:07:49Z</time>
      </trkpt>
      <trkpt lat="42.85716" lon="0.89291">
        <ele>1225.25</ele>
        <time>2014-07-08T12:07:53Z</time>
      </trkpt>
      <trkpt lat="42.85718" lon="0.89297">
        <ele>1226.7</ele>
        <time>2014-07-08T12:07:58Z</time>
      </trkpt>
      <trkpt lat="42.85719" lon="0.89303">
        <ele>1227.31</ele>
        <time>2014-07-08T12:08:02Z</time>
      </trkpt>
      <trkpt lat="42.85717" lon="0.89309">
        <ele>1230.18</ele>
        <time>2014-07-08T12:08:06Z</time>
      </trkpt>
      <trkpt lat="42.85718" lon="0.89315">
        <ele>1233.87</ele>
        <time>2014-07-08T12:08:10Z</time>
      </trkpt>
      <trkpt lat="42.8572" lon="0.89322">
        <ele>1233.24</ele>
        <time>2014-07-08T12:08:15Z</time>
      </trkpt>
      <trkpt lat="42.8572" lon="0.89328">
        <ele>1234.05</ele>
        <time>2014-07-08T12:08:20Z</time>
      </trkpt>
      <trkpt lat="42.85722" lon="0.89336">
        <ele>1231.32</ele>
        <time>2014-07-08T12:08:25Z</time>
      </trkpt>
      <trkpt lat="42.85722" lon="0.89342">
        <ele>1230.67</ele>
        <time>2014-07-08T12:08:29Z</time>
      </trkpt>
      <trkpt lat="42.85721" lon="0.89349">
        <ele>1233.43</ele>
        <time>2014-07-08T12:08:33Z</time>
      </trkpt>
      <trkpt lat="42.85722" lon="0.89355">
        <ele>1231.45</ele>
        <time>2014-07-08T12:08:37Z</time>
      </trkpt>
      <trkpt lat="42.85723" lon="0.89362">
        <ele>1227.59</ele>
        <time>2014-07-08T12:08:42Z</time>
      </trkpt>
      <trkpt lat="42.85723" lon="0.89369">
        <ele>1228.95</ele>
        <time>2014-07-08T12:08:47Z</time>
      </trkpt>
      <trkpt lat="42.85722" lon="0.89376">
        <ele>1230.8</ele>
        <time>2014-07-08T12:08:51Z</time>
      </trkpt>
      <trkpt lat="42.85722" lon="0.89383">
        <ele>1230.73</ele>
        <time>2014-07-08T12:08:55Z</time>
      </trkpt>
      <trkpt lat="42.85721" lon="0.8939">
        <ele>1229.07</ele>
        <time>2014-07-08T12:08:59Z</time>
      </trkpt>
      <trkpt lat="42.8572" lon="0.89397">
        <ele>1228.85</ele>
        <time>2014-07-08T12:09:04Z</time>
      </trkpt>
      <trkpt lat="42.85721" lon="0.89404">
        <ele>1228.3</ele>
        <time>2014-07-08T12:09:08Z</time>
      </trkpt>
      <trkpt lat="42.85721" lon="0.8941">
        <ele>1229.44</ele>
        <time>2014-07-08T12:09:12Z</time>
      </trkpt>
      <trkpt lat="42.85723" lon="0.89417">
        <ele>1228.28</ele>
        <time>2014-07-08T12:09:16Z</time>
      </trkpt>
      <trkpt lat="42.85721" lon="0.89424">
        <ele>1226.91</ele>
        <time>2014-07-08T12:09:20Z</time>
      </trkpt>
      <trkpt lat="42.85722" lon="0.8943">
        <ele>1226.41</ele>
        <time>2014-07-08T12:09:24Z</time>
      </trkpt>
      <trkpt lat="42.85722" lon="0.89437">
        <ele>1225.15</ele>
        <time>2014-07-08T12:09:28Z</time>
      </trkpt>
      <trkpt lat="42.85722" lon="0.89444">
        <ele>1222.88</ele>
        <time>2014-07-08T12:09:34Z</time>
      </trkpt>
      <trkpt lat="42.85723" lon="0.8945">
        <ele>1221.24</ele>
        <time>2014-07-08T12:09:38Z</time>
      </trkpt>
      <trkpt lat="42.85726" lon="0.89456">
        <ele>1219.28</ele>
        <time>2014-07-08T12:09:43Z</time>
      </trkpt>
      <trkpt lat="42.8573" lon="0.8946">
        <ele>1213.23</ele>
        <time>2014-07-08T12:09:49Z</time>
      </trkpt>
      <trkpt lat="42.85731" lon="0.89468">
        <ele>1213.47</ele>
        <time>2014-07-08T12:09:54Z</time>
      </trkpt>
      <trkpt lat="42.85729" lon="0.89474">
        <ele>1216.66</ele>
        <time>2014-07-08T12:09:57Z</time>
      </trkpt>
      <trkpt lat="42.85729" lon="0.89481">
        <ele>1218.94</ele>
        <time>2014-07-08T12:10:00Z</time>
      </trkpt>
      <trkpt lat="42.85731" lon="0.89486">
        <ele>1219.08</ele>
        <time>2014-07-08T12:10:04Z</time>
      </trkpt>
      <trkpt lat="42.85732" lon="0.89492">
        <ele>1217.01</ele>
        <time>2014-07-08T12:10:09Z</time>
      </trkpt>
      <trkpt lat="42.85731" lon="0.89499">
        <ele>1215.96</ele>
        <time>2014-07-08T12:10:13Z</time>
      </trkpt>
      <trkpt lat="42.85731" lon="0.89505">
        <ele>1215.35</ele>
        <time>2014-07-08T12:10:17Z</time>
      </trkpt>
      <trkpt lat="42.85731" lon="0.89512">
        <ele>1214.4</ele>
        <time>2014-07-08T12:10:21Z</time>
      </trkpt>
      <trkpt lat="42.85731" lon="0.89519">
        <ele>1213.09</ele>
        <time>2014-07-08T12:10:25Z</time>
      </trkpt>
      <trkpt lat="42.85731" lon="0.89526">
        <ele>1211.91</ele>
        <time>2014-07-08T12:10:29Z</time>
      </trkpt>
      <trkpt lat="42.85733" lon="0.89533">
        <ele>1209</ele>
        <time>2014-07-08T12:10:33Z</time>
      </trkpt>
      <trkpt lat="42.85736" lon="0.89538">
        <ele>1207.12</ele>
        <time>2014-07-08T12:10:37Z</time>
      </trkpt>
      <trkpt lat="42.85737" lon="0.89545">
        <ele>1208.82</ele>
        <time>2014-07-08T12:10:44Z</time>
      </trkpt>
      <trkpt lat="42.85738" lon="0.89552">
        <ele>1211.18</ele>
        <time>2014-07-08T12:10:49Z</time>
      </trkpt>
      <trkpt lat="42.8574" lon="0.89558">
        <ele>1207.4</ele>
        <time>2014-07-08T12:10:53Z</time>
      </trkpt>
      <trkpt lat="42.85741" lon="0.89565">
        <ele>1206.86</ele>
        <time>2014-07-08T12:10:58Z</time>
      </trkpt>
      <trkpt lat="42.85743" lon="0.89572">
        <ele>1203.67</ele>
        <time>2014-07-08T12:11:05Z</time>
      </trkpt>
      <trkpt lat="42.85744" lon="0.89578">
        <ele>1201.59</ele>
        <time>2014-07-08T12:11:10Z</time>
      </trkpt>
      <trkpt lat="42.85743" lon="0.89585">
        <ele>1202.41</ele>
        <time>2014-07-08T12:11:14Z</time>
      </trkpt>
      <trkpt lat="42.85741" lon="0.89591">
        <ele>1204.03</ele>
        <time>2014-07-08T12:11:18Z</time>
      </trkpt>
      <trkpt lat="42.85739" lon="0.89597">
        <ele>1205.26</ele>
        <time>2014-07-08T12:11:22Z</time>
      </trkpt>
      <trkpt lat="42.85736" lon="0.89604">
        <ele>1205.23</ele>
        <time>2014-07-08T12:11:26Z</time>
      </trkpt>
      <trkpt lat="42.85734" lon="0.89611">
        <ele>1206.98</ele>
        <time>2014-07-08T12:11:30Z</time>
      </trkpt>
      <trkpt lat="42.85733" lon="0.89618">
        <ele>1206.59</ele>
        <time>2014-07-08T12:11:34Z</time>
      </trkpt>
      <trkpt lat="42.85734" lon="0.89624">
        <ele>1203.94</ele>
        <time>2014-07-08T12:11:38Z</time>
      </trkpt>
      <trkpt lat="42.85733" lon="0.89632">
        <ele>1204.43</ele>
        <time>2014-07-08T12:11:42Z</time>
      </trkpt>
      <trkpt lat="42.85732" lon="0.89639">
        <ele>1203.97</ele>
        <time>2014-07-08T12:11:45Z</time>
      </trkpt>
      <trkpt lat="42.85731" lon="0.89646">
        <ele>1204.47</ele>
        <time>2014-07-08T12:11:49Z</time>
      </trkpt>
      <trkpt lat="42.8573" lon="0.89653">
        <ele>1203.55</ele>
        <time>2014-07-08T12:11:53Z</time>
      </trkpt>
      <trkpt lat="42.8573" lon="0.8966">
        <ele>1202.1</ele>
        <time>2014-07-08T12:11:58Z</time>
      </trkpt>
      <trkpt lat="42.85732" lon="0.89667">
        <ele>1200.81</ele>
        <time>2014-07-08T12:12:03Z</time>
      </trkpt>
      <trkpt lat="42.85734" lon="0.89673">
        <ele>1200.69</ele>
        <time>2014-07-08T12:12:07Z</time>
      </trkpt>
      <trkpt lat="42.85736" lon="0.89679">
        <ele>1196.94</ele>
        <time>2014-07-08T12:12:12Z</time>
      </trkpt>
      <trkpt lat="42.85738" lon="0.89686">
        <ele>1195.35</ele>
        <time>2014-07-08T12:12:17Z</time>
      </trkpt>
      <trkpt lat="42.85738" lon="0.89694">
        <ele>1194.13</ele>
        <time>2014-07-08T12:12:22Z</time>
      </trkpt>
      <trkpt lat="42.85739" lon="0.897">
        <ele>1191.15</ele>
        <time>2014-07-08T12:12:28Z</time>
      </trkpt>
      <trkpt lat="42.85739" lon="0.89707">
        <ele>1189.45</ele>
        <time>2014-07-08T12:12:33Z</time>
      </trkpt>
      <trkpt lat="42.85739" lon="0.89713">
        <ele>1191.67</ele>
        <time>2014-07-08T12:12:37Z</time>
      </trkpt>
      <trkpt lat="42.85738" lon="0.8972">
        <ele>1192.59</ele>
        <time>2014-07-08T12:12:42Z</time>
      </trkpt>
      <trkpt lat="42.85738" lon="0.89726">
        <ele>1192.44</ele>
        <time>2014-07-08T12:12:47Z</time>
      </trkpt>
      <trkpt lat="42.85742" lon="0.89729">
        <ele>1189.26</ele>
        <time>2014-07-08T12:12:53Z</time>
      </trkpt>
      <trkpt lat="42.85741" lon="0.89736">
        <ele>1186.94</ele>
        <time>2014-07-08T12:12:57Z</time>
      </trkpt>
      <trkpt lat="42.85739" lon="0.89742">
        <ele>1186.87</ele>
        <time>2014-07-08T12:13:01Z</time>
      </trkpt>
      <trkpt lat="42.85738" lon="0.8975">
        <ele>1185.15</ele>
        <time>2014-07-08T12:13:06Z</time>
      </trkpt>
      <trkpt lat="42.85737" lon="0.89756">
        <ele>1183.7</ele>
        <time>2014-07-08T12:13:10Z</time>
      </trkpt>
      <trkpt lat="42.85738" lon="0.89763">
        <ele>1180.52</ele>
        <time>2014-07-08T12:13:15Z</time>
      </trkpt>
      <trkpt lat="42.85739" lon="0.89769">
        <ele>1179.79</ele>
        <time>2014-07-08T12:13:20Z</time>
      </trkpt>
      <trkpt lat="42.8574" lon="0.89776">
        <ele>1178.61</ele>
        <time>2014-07-08T12:13:25Z</time>
      </trkpt>
      <trkpt lat="42.8574" lon="0.89784">
        <ele>1177.88</ele>
        <time>2014-07-08T12:13:29Z</time>
      </trkpt>
      <trkpt lat="42.85738" lon="0.89791">
        <ele>1174.51</ele>
        <time>2014-07-08T12:13:33Z</time>
      </trkpt>
      <trkpt lat="42.85738" lon="0.89798">
        <ele>1173.26</ele>
        <time>2014-07-08T12:13:37Z</time>
      </trkpt>
      <trkpt lat="42.85742" lon="0.89803">
        <ele>1170.5</ele>
        <time>2014-07-08T12:13:41Z</time>
      </trkpt>
      <trkpt lat="42.85746" lon="0.89809">
        <ele>1171.91</ele>
        <time>2014-07-08T12:13:46Z</time>
      </trkpt>
      <trkpt lat="42.85747" lon="0.89815">
        <ele>1173.26</ele>
        <time>2014-07-08T12:13:51Z</time>
      </trkpt>
      <trkpt lat="42.85748" lon="0.89821">
        <ele>1173.36</ele>
        <time>2014-07-08T12:13:55Z</time>
      </trkpt>
      <trkpt lat="42.85746" lon="0.89828">
        <ele>1173.68</ele>
        <time>2014-07-08T12:14:00Z</time>
      </trkpt>
      <trkpt lat="42.85747" lon="0.89836">
        <ele>1169.66</ele>
        <time>2014-07-08T12:14:06Z</time>
      </trkpt>
      <trkpt lat="42.85748" lon="0.89843">
        <ele>1167.29</ele>
        <time>2014-07-08T12:14:12Z</time>
      </trkpt>
      <trkpt lat="42.85746" lon="0.8985">
        <ele>1167.36</ele>
        <time>2014-07-08T12:14:16Z</time>
      </trkpt>
      <trkpt lat="42.85747" lon="0.89857">
        <ele>1167.35</ele>
        <time>2014-07-08T12:14:20Z</time>
      </trkpt>
      <trkpt lat="42.85748" lon="0.89863">
        <ele>1168.54</ele>
        <time>2014-07-08T12:14:24Z</time>
      </trkpt>
      <trkpt lat="42.8575" lon="0.89869">
        <ele>1168.88</ele>
        <time>2014-07-08T12:14:29Z</time>
      </trkpt>
      <trkpt lat="42.85749" lon="0.89877">
        <ele>1167.83</ele>
        <time>2014-07-08T12:14:34Z</time>
      </trkpt>
      <trkpt lat="42.85748" lon="0.89883">
        <ele>1166.47</ele>
        <time>2014-07-08T12:14:38Z</time>
      </trkpt>
      <trkpt lat="42.85747" lon="0.8989">
        <ele>1164.34</ele>
        <time>2014-07-08T12:14:43Z</time>
      </trkpt>
      <trkpt lat="42.85747" lon="0.89897">
        <ele>1158.86</ele>
        <time>2014-07-08T12:14:50Z</time>
      </trkpt>
      <trkpt lat="42.85744" lon="0.89903">
        <ele>1157.39</ele>
        <time>2014-07-08T12:14:54Z</time>
      </trkpt>
      <trkpt lat="42.85744" lon="0.89909">
        <ele>1157.58</ele>
        <time>2014-07-08T12:14:58Z</time>
      </trkpt>
      <trkpt lat="42.85747" lon="0.89915">
        <ele>1155.54</ele>
        <time>2014-07-08T12:15:03Z</time>
      </trkpt>
      <trkpt lat="42.85749" lon="0.8992">
        <ele>1154.97</ele>
        <time>2014-07-08T12:15:08Z</time>
      </trkpt>
      <trkpt lat="42.85748" lon="0.89926">
        <ele>1157.71</ele>
        <time>2014-07-08T12:15:12Z</time>
      </trkpt>
      <trkpt lat="42.85747" lon="0.89933">
        <ele>1158.57</ele>
        <time>2014-07-08T12:15:17Z</time>
      </trkpt>
      <trkpt lat="42.85747" lon="0.89939">
        <ele>1159.41</ele>
        <time>2014-07-08T12:15:21Z</time>
      </trkpt>
      <trkpt lat="42.85748" lon="0.89946">
        <ele>1159.73</ele>
        <time>2014-07-08T12:15:26Z</time>
      </trkpt>
      <trkpt lat="42.85748" lon="0.89953">
        <ele>1161.97</ele>
        <time>2014-07-08T12:15:31Z</time>
      </trkpt>
      <trkpt lat="42.85748" lon="0.89961">
        <ele>1160.49</ele>
        <time>2014-07-08T12:15:36Z</time>
      </trkpt>
      <trkpt lat="42.85747" lon="0.89967">
        <ele>1159.8</ele>
        <time>2014-07-08T12:15:41Z</time>
      </trkpt>
      <trkpt lat="42.85744" lon="0.89973">
        <ele>1156.83</ele>
        <time>2014-07-08T12:15:47Z</time>
      </trkpt>
      <trkpt lat="42.85743" lon="0.89979">
        <ele>1154.57</ele>
        <time>2014-07-08T12:15:53Z</time>
      </trkpt>
      <trkpt lat="42.85742" lon="0.89986">
        <ele>1153.22</ele>
        <time>2014-07-08T12:15:59Z</time>
      </trkpt>
      <trkpt lat="42.85743" lon="0.89992">
        <ele>1152.75</ele>
        <time>2014-07-08T12:16:06Z</time>
      </trkpt>
      <trkpt lat="42.85742" lon="0.89999">
        <ele>1149.39</ele>
        <time>2014-07-08T12:16:19Z</time>
      </trkpt>
      <trkpt lat="42.85741" lon="0.90005">
        <ele>1148.97</ele>
        <time>2014-07-08T12:16:28Z</time>
      </trkpt>
      <trkpt lat="42.85739" lon="0.90011">
        <ele>1148.39</ele>
        <time>2014-07-08T12:16:35Z</time>
      </trkpt>
      <trkpt lat="42.85738" lon="0.90018">
        <ele>1149.01</ele>
        <time>2014-07-08T12:16:41Z</time>
      </trkpt>
      <trkpt lat="42.8574" lon="0.90024">
        <ele>1149.81</ele>
        <time>2014-07-08T12:16:48Z</time>
      </trkpt>
      <trkpt lat="42.85741" lon="0.9003">
        <ele>1147.91</ele>
        <time>2014-07-08T12:16:53Z</time>
      </trkpt>
      <trkpt lat="42.85742" lon="0.90036">
        <ele>1146.57</ele>
        <time>2014-07-08T12:16:59Z</time>
      </trkpt>
      <trkpt lat="42.85746" lon="0.90042">
        <ele>1144.93</ele>
        <time>2014-07-08T12:17:05Z</time>
      </trkpt>
      <trkpt lat="42.85749" lon="0.90047">
        <ele>1145.32</ele>
        <time>2014-07-08T12:17:11Z</time>
      </trkpt>
      <trkpt lat="42.85752" lon="0.90053">
        <ele>1143.14</ele>
        <time>2014-07-08T12:17:19Z</time>
      </trkpt>
      <trkpt lat="42.85752" lon="0.90059">
        <ele>1141.16</ele>
        <time>2014-07-08T12:17:27Z</time>
      </trkpt>
      <trkpt lat="42.85754" lon="0.90065">
        <ele>1137.75</ele>
        <time>2014-07-08T12:17:33Z</time>
      </trkpt>
      <trkpt lat="42.85755" lon="0.90072">
        <ele>1136.77</ele>
        <time>2014-07-08T12:17:39Z</time>
      </trkpt>
      <trkpt lat="42.85756" lon="0.90078">
        <ele>1135.19</ele>
        <time>2014-07-08T12:17:44Z</time>
      </trkpt>
      <trkpt lat="42.85758" lon="0.90084">
        <ele>1134.69</ele>
        <time>2014-07-08T12:17:49Z</time>
      </trkpt>
      <trkpt lat="42.8576" lon="0.90091">
        <ele>1135.09</ele>
        <time>2014-07-08T12:17:54Z</time>
      </trkpt>
      <trkpt lat="42.85759" lon="0.90099">
        <ele>1136.69</ele>
        <time>2014-07-08T12:17:58Z</time>
      </trkpt>
      <trkpt lat="42.8576" lon="0.90106">
        <ele>1136.29</ele>
        <time>2014-07-08T12:18:02Z</time>
      </trkpt>
      <trkpt lat="42.85762" lon="0.90112">
        <ele>1132.02</ele>
        <time>2014-07-08T12:18:07Z</time>
      </trkpt>
      <trkpt lat="42.85766" lon="0.90117">
        <ele>1129.73</ele>
        <time>2014-07-08T12:18:12Z</time>
      </trkpt>
      <trkpt lat="42.85768" lon="0.90123">
        <ele>1129.17</ele>
        <time>2014-07-08T12:18:16Z</time>
      </trkpt>
      <trkpt lat="42.8577" lon="0.90128">
        <ele>1127.89</ele>
        <time>2014-07-08T12:18:20Z</time>
      </trkpt>
      <trkpt lat="42.8577" lon="0.90135">
        <ele>1126.65</ele>
        <time>2014-07-08T12:18:24Z</time>
      </trkpt>
      <trkpt lat="42.85771" lon="0.90142">
        <ele>1126.95</ele>
        <time>2014-07-08T12:18:29Z</time>
      </trkpt>
      <trkpt lat="42.85773" lon="0.90149">
        <ele>1126.59</ele>
        <time>2014-07-08T12:18:33Z</time>
      </trkpt>
      <trkpt lat="42.85776" lon="0.90155">
        <ele>1126.21</ele>
        <time>2014-07-08T12:18:37Z</time>
      </trkpt>
      <trkpt lat="42.85779" lon="0.9016">
        <ele>1127.88</ele>
        <time>2014-07-08T12:18:41Z</time>
      </trkpt>
      <trkpt lat="42.85781" lon="0.90166">
        <ele>1129.07</ele>
        <time>2014-07-08T12:18:47Z</time>
      </trkpt>
      <trkpt lat="42.85782" lon="0.90173">
        <ele>1129.64</ele>
        <time>2014-07-08T12:18:53Z</time>
      </trkpt>
      <trkpt lat="42.85783" lon="0.9018">
        <ele>1128.78</ele>
        <time>2014-07-08T12:18:58Z</time>
      </trkpt>
      <trkpt lat="42.85786" lon="0.90186">
        <ele>1126.92</ele>
        <time>2014-07-08T12:19:03Z</time>
      </trkpt>
      <trkpt lat="42.8579" lon="0.90191">
        <ele>1127.28</ele>
        <time>2014-07-08T12:19:07Z</time>
      </trkpt>
      <trkpt lat="42.85791" lon="0.90197">
        <ele>1126.74</ele>
        <time>2014-07-08T12:19:11Z</time>
      </trkpt>
      <trkpt lat="42.85793" lon="0.90203">
        <ele>1126.91</ele>
        <time>2014-07-08T12:19:15Z</time>
      </trkpt>
      <trkpt lat="42.85795" lon="0.90209">
        <ele>1122.48</ele>
        <time>2014-07-08T12:19:21Z</time>
      </trkpt>
      <trkpt lat="42.85799" lon="0.90213">
        <ele>1120.91</ele>
        <time>2014-07-08T12:19:26Z</time>
      </trkpt>
      <trkpt lat="42.85803" lon="0.90215">
        <ele>1119.2</ele>
        <time>2014-07-08T12:19:30Z</time>
      </trkpt>
      <trkpt lat="42.85807" lon="0.9022">
        <ele>1117.71</ele>
        <time>2014-07-08T12:19:34Z</time>
      </trkpt>
      <trkpt lat="42.8581" lon="0.90225">
        <ele>1118.24</ele>
        <time>2014-07-08T12:19:39Z</time>
      </trkpt>
      <trkpt lat="42.85815" lon="0.90226">
        <ele>1117.63</ele>
        <time>2014-07-08T12:19:43Z</time>
      </trkpt>
      <trkpt lat="42.8582" lon="0.90227">
        <ele>1118.6</ele>
        <time>2014-07-08T12:19:47Z</time>
      </trkpt>
      <trkpt lat="42.85826" lon="0.90227">
        <ele>1118.52</ele>
        <time>2014-07-08T12:19:51Z</time>
      </trkpt>
      <trkpt lat="42.8583" lon="0.90227">
        <ele>1118.42</ele>
        <time>2014-07-08T12:19:55Z</time>
      </trkpt>
      <trkpt lat="42.85835" lon="0.90227">
        <ele>1119.48</ele>
        <time>2014-07-08T12:19:59Z</time>
      </trkpt>
      <trkpt lat="42.8584" lon="0.90229">
        <ele>1119.94</ele>
        <time>2014-07-08T12:20:05Z</time>
      </trkpt>
      <trkpt lat="42.85845" lon="0.90231">
        <ele>1120.49</ele>
        <time>2014-07-08T12:20:12Z</time>
      </trkpt>
      <trkpt lat="42.8585" lon="0.90232">
        <ele>1119.72</ele>
        <time>2014-07-08T12:20:16Z</time>
      </trkpt>
      <trkpt lat="42.85855" lon="0.90232">
        <ele>1117.48</ele>
        <time>2014-07-08T12:20:21Z</time>
      </trkpt>
      <trkpt lat="42.85858" lon="0.90236">
        <ele>1117.07</ele>
        <time>2014-07-08T12:20:35Z</time>
      </trkpt>
      <trkpt lat="42.85863" lon="0.90241">
        <ele>1120.18</ele>
        <time>2014-07-08T12:20:42Z</time>
      </trkpt>
      <trkpt lat="42.85865" lon="0.90247">
        <ele>1122.68</ele>
        <time>2014-07-08T12:20:45Z</time>
      </trkpt>
      <trkpt lat="42.8587" lon="0.90251">
        <ele>1122.84</ele>
        <time>2014-07-08T12:20:48Z</time>
      </trkpt>
      <trkpt lat="42.85874" lon="0.90255">
        <ele>1121.87</ele>
        <time>2014-07-08T12:20:51Z</time>
      </trkpt>
      <trkpt lat="42.85878" lon="0.9026">
        <ele>1120.23</ele>
        <time>2014-07-08T12:20:54Z</time>
      </trkpt>
      <trkpt lat="42.85882" lon="0.90264">
        <ele>1119.78</ele>
        <time>2014-07-08T12:20:58Z</time>
      </trkpt>
      <trkpt lat="42.85886" lon="0.90268">
        <ele>1121.11</ele>
        <time>2014-07-08T12:21:02Z</time>
      </trkpt>
      <trkpt lat="42.85888" lon="0.90273">
        <ele>1123.67</ele>
        <time>2014-07-08T12:21:06Z</time>
      </trkpt>
      <trkpt lat="42.85892" lon="0.90278">
        <ele>1127.88</ele>
        <time>2014-07-08T12:21:11Z</time>
      </trkpt>
      <trkpt lat="42.85896" lon="0.90281">
        <ele>1131.61</ele>
        <time>2014-07-08T12:21:18Z</time>
      </trkpt>
      <trkpt lat="42.859" lon="0.90284">
        <ele>1132.17</ele>
        <time>2014-07-08T12:21:24Z</time>
      </trkpt>
      <trkpt lat="42.85904" lon="0.90288">
        <ele>1128.5</ele>
        <time>2014-07-08T12:21:30Z</time>
      </trkpt>
      <trkpt lat="42.85906" lon="0.90294">
        <ele>1131.09</ele>
        <time>2014-07-08T12:21:47Z</time>
      </trkpt>
      <trkpt lat="42.85905" lon="0.903">
        <ele>1133.69</ele>
        <time>2014-07-08T12:21:52Z</time>
      </trkpt>
      <trkpt lat="42.85901" lon="0.90306">
        <ele>1145.64</ele>
        <time>2014-07-08T12:26:39Z</time>
      </trkpt>
      <trkpt lat="42.859" lon="0.90313">
        <ele>1147.19</ele>
        <time>2014-07-08T12:26:43Z</time>
      </trkpt>
      <trkpt lat="42.85904" lon="0.90304">
        <ele>1147.26</ele>
        <time>2014-07-08T12:26:47Z</time>
      </trkpt>
      <trkpt lat="42.85906" lon="0.90298">
        <ele>1146.32</ele>
        <time>2014-07-08T12:26:51Z</time>
      </trkpt>
      <trkpt lat="42.85909" lon="0.90292">
        <ele>1144.68</ele>
        <time>2014-07-08T12:26:55Z</time>
      </trkpt>
      <trkpt lat="42.85914" lon="0.90294">
        <ele>1144.9</ele>
        <time>2014-07-08T12:27:09Z</time>
      </trkpt>
      <trkpt lat="42.85919" lon="0.90295">
        <ele>1146.03</ele>
        <time>2014-07-08T12:27:14Z</time>
      </trkpt>
      <trkpt lat="42.85924" lon="0.90295">
        <ele>1146.06</ele>
        <time>2014-07-08T12:27:22Z</time>
      </trkpt>
      <trkpt lat="42.85928" lon="0.90294">
        <ele>1144.58</ele>
        <time>2014-07-08T12:27:27Z</time>
      </trkpt>
      <trkpt lat="42.85932" lon="0.90289">
        <ele>1143.59</ele>
        <time>2014-07-08T12:27:31Z</time>
      </trkpt>
      <trkpt lat="42.85936" lon="0.90285">
        <ele>1142.7</ele>
        <time>2014-07-08T12:27:35Z</time>
      </trkpt>
      <trkpt lat="42.8594" lon="0.90283">
        <ele>1140.74</ele>
        <time>2014-07-08T12:27:40Z</time>
      </trkpt>
      <trkpt lat="42.85944" lon="0.90282">
        <ele>1140.25</ele>
        <time>2014-07-08T12:27:44Z</time>
      </trkpt>
      <trkpt lat="42.85949" lon="0.90284">
        <ele>1134.53</ele>
        <time>2014-07-08T12:27:48Z</time>
      </trkpt>
      <trkpt lat="42.85953" lon="0.90287">
        <ele>1129.02</ele>
        <time>2014-07-08T12:27:52Z</time>
      </trkpt>
      <trkpt lat="42.85957" lon="0.90292">
        <ele>1122.31</ele>
        <time>2014-07-08T12:27:56Z</time>
      </trkpt>
      <trkpt lat="42.8596" lon="0.90297">
        <ele>1120</ele>
        <time>2014-07-08T12:28:00Z</time>
      </trkpt>
      <trkpt lat="42.85964" lon="0.90299">
        <ele>1119.38</ele>
        <time>2014-07-08T12:28:05Z</time>
      </trkpt>
      <trkpt lat="42.85969" lon="0.90302">
        <ele>1119.5</ele>
        <time>2014-07-08T12:28:10Z</time>
      </trkpt>
      <trkpt lat="42.85974" lon="0.903">
        <ele>1120.09</ele>
        <time>2014-07-08T12:28:16Z</time>
      </trkpt>
      <trkpt lat="42.85979" lon="0.90302">
        <ele>1116.63</ele>
        <time>2014-07-08T12:28:22Z</time>
      </trkpt>
      <trkpt lat="42.85985" lon="0.90303">
        <ele>1117.89</ele>
        <time>2014-07-08T12:28:27Z</time>
      </trkpt>
      <trkpt lat="42.85989" lon="0.90304">
        <ele>1116.51</ele>
        <time>2014-07-08T12:28:41Z</time>
      </trkpt>
      <trkpt lat="42.85995" lon="0.90305">
        <ele>1116.35</ele>
        <time>2014-07-08T12:28:46Z</time>
      </trkpt>
      <trkpt lat="42.86" lon="0.90307">
        <ele>1117.96</ele>
        <time>2014-07-08T12:28:49Z</time>
      </trkpt>
      <trkpt lat="42.86005" lon="0.90309">
        <ele>1117.58</ele>
        <time>2014-07-08T12:28:54Z</time>
      </trkpt>
      <trkpt lat="42.86009" lon="0.90311">
        <ele>1117.83</ele>
        <time>2014-07-08T12:28:57Z</time>
      </trkpt>
      <trkpt lat="42.86013" lon="0.90313">
        <ele>1118.65</ele>
        <time>2014-07-08T12:29:00Z</time>
      </trkpt>
      <trkpt lat="42.86019" lon="0.90317">
        <ele>1116.93</ele>
        <time>2014-07-08T12:29:04Z</time>
      </trkpt>
      <trkpt lat="42.86024" lon="0.90319">
        <ele>1115.45</ele>
        <time>2014-07-08T12:29:08Z</time>
      </trkpt>
      <trkpt lat="42.86029" lon="0.90322">
        <ele>1113.03</ele>
        <time>2014-07-08T12:29:12Z</time>
      </trkpt>
      <trkpt lat="42.86033" lon="0.90325">
        <ele>1107.36</ele>
        <time>2014-07-08T12:29:16Z</time>
      </trkpt>
      <trkpt lat="42.86035" lon="0.90331">
        <ele>1102.24</ele>
        <time>2014-07-08T12:29:20Z</time>
      </trkpt>
      <trkpt lat="42.86039" lon="0.90335">
        <ele>1097.24</ele>
        <time>2014-07-08T12:29:25Z</time>
      </trkpt>
      <trkpt lat="42.86044" lon="0.90338">
        <ele>1096.03</ele>
        <time>2014-07-08T12:29:34Z</time>
      </trkpt>
      <trkpt lat="42.86049" lon="0.90337">
        <ele>1094.87</ele>
        <time>2014-07-08T12:29:39Z</time>
      </trkpt>
      <trkpt lat="42.86054" lon="0.90338">
        <ele>1096.47</ele>
        <time>2014-07-08T12:29:45Z</time>
      </trkpt>
      <trkpt lat="42.86057" lon="0.90342">
        <ele>1095.88</ele>
        <time>2014-07-08T12:29:48Z</time>
      </trkpt>
      <trkpt lat="42.86061" lon="0.90346">
        <ele>1095.99</ele>
        <time>2014-07-08T12:29:51Z</time>
      </trkpt>
      <trkpt lat="42.86066" lon="0.9035">
        <ele>1098.1</ele>
        <time>2014-07-08T12:29:55Z</time>
      </trkpt>
      <trkpt lat="42.86071" lon="0.9035">
        <ele>1101.22</ele>
        <time>2014-07-08T12:30:04Z</time>
      </trkpt>
      <trkpt lat="42.86076" lon="0.90351">
        <ele>1101.66</ele>
        <time>2014-07-08T12:30:09Z</time>
      </trkpt>
      <trkpt lat="42.86081" lon="0.90349">
        <ele>1101.9</ele>
        <time>2014-07-08T12:30:13Z</time>
      </trkpt>
      <trkpt lat="42.86085" lon="0.90345">
        <ele>1102.21</ele>
        <time>2014-07-08T12:30:17Z</time>
      </trkpt>
      <trkpt lat="42.8609" lon="0.90342">
        <ele>1101.98</ele>
        <time>2014-07-08T12:30:22Z</time>
      </trkpt>
      <trkpt lat="42.86094" lon="0.90339">
        <ele>1103.37</ele>
        <time>2014-07-08T12:30:26Z</time>
      </trkpt>
      <trkpt lat="42.861" lon="0.90339">
        <ele>1101.79</ele>
        <time>2014-07-08T12:30:29Z</time>
      </trkpt>
      <trkpt lat="42.86104" lon="0.90338">
        <ele>1101.67</ele>
        <time>2014-07-08T12:30:32Z</time>
      </trkpt>
      <trkpt lat="42.8611" lon="0.90335">
        <ele>1101.35</ele>
        <time>2014-07-08T12:30:36Z</time>
      </trkpt>
      <trkpt lat="42.86114" lon="0.90336">
        <ele>1099.26</ele>
        <time>2014-07-08T12:30:39Z</time>
      </trkpt>
      <trkpt lat="42.86119" lon="0.90337">
        <ele>1099.15</ele>
        <time>2014-07-08T12:30:42Z</time>
      </trkpt>
      <trkpt lat="42.86124" lon="0.9034">
        <ele>1096.36</ele>
        <time>2014-07-08T12:30:46Z</time>
      </trkpt>
      <trkpt lat="42.86129" lon="0.90344">
        <ele>1091.47</ele>
        <time>2014-07-08T12:30:50Z</time>
      </trkpt>
      <trkpt lat="42.86134" lon="0.90349">
        <ele>1088.31</ele>
        <time>2014-07-08T12:30:54Z</time>
      </trkpt>
      <trkpt lat="42.86137" lon="0.90353">
        <ele>1084.93</ele>
        <time>2014-07-08T12:30:57Z</time>
      </trkpt>
      <trkpt lat="42.86141" lon="0.90358">
        <ele>1082.76</ele>
        <time>2014-07-08T12:31:00Z</time>
      </trkpt>
      <trkpt lat="42.86146" lon="0.90359">
        <ele>1082.02</ele>
        <time>2014-07-08T12:31:04Z</time>
      </trkpt>
      <trkpt lat="42.8615" lon="0.90361">
        <ele>1083.39</ele>
        <time>2014-07-08T12:31:10Z</time>
      </trkpt>
      <trkpt lat="42.86155" lon="0.90362">
        <ele>1087.75</ele>
        <time>2014-07-08T12:31:15Z</time>
      </trkpt>
      <trkpt lat="42.86159" lon="0.90366">
        <ele>1090.18</ele>
        <time>2014-07-08T12:31:20Z</time>
      </trkpt>
      <trkpt lat="42.86163" lon="0.9037">
        <ele>1087.66</ele>
        <time>2014-07-08T12:31:27Z</time>
      </trkpt>
      <trkpt lat="42.86167" lon="0.90376">
        <ele>1080.1</ele>
        <time>2014-07-08T12:31:31Z</time>
      </trkpt>
      <trkpt lat="42.8617" lon="0.9038">
        <ele>1077.41</ele>
        <time>2014-07-08T12:31:36Z</time>
      </trkpt>
      <trkpt lat="42.86175" lon="0.90382">
        <ele>1076.35</ele>
        <time>2014-07-08T12:31:40Z</time>
      </trkpt>
      <trkpt lat="42.86179" lon="0.90385">
        <ele>1074.85</ele>
        <time>2014-07-08T12:31:44Z</time>
      </trkpt>
      <trkpt lat="42.86184" lon="0.90388">
        <ele>1074.41</ele>
        <time>2014-07-08T12:31:48Z</time>
      </trkpt>
      <trkpt lat="42.86188" lon="0.90391">
        <ele>1072.32</ele>
        <time>2014-07-08T12:31:51Z</time>
      </trkpt>
      <trkpt lat="42.86194" lon="0.90394">
        <ele>1069.36</ele>
        <time>2014-07-08T12:31:55Z</time>
      </trkpt>
      <trkpt lat="42.86198" lon="0.90398">
        <ele>1068.68</ele>
        <time>2014-07-08T12:31:59Z</time>
      </trkpt>
      <trkpt lat="42.86203" lon="0.904">
        <ele>1068.83</ele>
        <time>2014-07-08T12:32:06Z</time>
      </trkpt>
      <trkpt lat="42.86208" lon="0.90405">
        <ele>1066.9</ele>
        <time>2014-07-08T12:32:12Z</time>
      </trkpt>
      <trkpt lat="42.86212" lon="0.90408">
        <ele>1066.84</ele>
        <time>2014-07-08T12:32:15Z</time>
      </trkpt>
      <trkpt lat="42.86217" lon="0.90412">
        <ele>1069.4</ele>
        <time>2014-07-08T12:32:18Z</time>
      </trkpt>
      <trkpt lat="42.86221" lon="0.90416">
        <ele>1069.65</ele>
        <time>2014-07-08T12:32:22Z</time>
      </trkpt>
      <trkpt lat="42.86225" lon="0.90422">
        <ele>1068.62</ele>
        <time>2014-07-08T12:32:26Z</time>
      </trkpt>
      <trkpt lat="42.86229" lon="0.90428">
        <ele>1068.43</ele>
        <time>2014-07-08T12:32:30Z</time>
      </trkpt>
      <trkpt lat="42.86234" lon="0.90432">
        <ele>1069.28</ele>
        <time>2014-07-08T12:32:34Z</time>
      </trkpt>
      <trkpt lat="42.86238" lon="0.90435">
        <ele>1068.35</ele>
        <time>2014-07-08T12:32:37Z</time>
      </trkpt>
      <trkpt lat="42.8624" lon="0.90441">
        <ele>1066.49</ele>
        <time>2014-07-08T12:32:40Z</time>
      </trkpt>
      <trkpt lat="42.86245" lon="0.90448">
        <ele>1065.69</ele>
        <time>2014-07-08T12:32:43Z</time>
      </trkpt>
      <trkpt lat="42.86249" lon="0.90454">
        <ele>1064.85</ele>
        <time>2014-07-08T12:32:46Z</time>
      </trkpt>
      <trkpt lat="42.86253" lon="0.90459">
        <ele>1063.96</ele>
        <time>2014-07-08T12:32:49Z</time>
      </trkpt>
      <trkpt lat="42.86256" lon="0.90466">
        <ele>1066.14</ele>
        <time>2014-07-08T12:32:53Z</time>
      </trkpt>
      <trkpt lat="42.86258" lon="0.90474">
        <ele>1068.16</ele>
        <time>2014-07-08T12:32:56Z</time>
      </trkpt>
      <trkpt lat="42.86261" lon="0.90479">
        <ele>1067.17</ele>
        <time>2014-07-08T12:32:59Z</time>
      </trkpt>
      <trkpt lat="42.86265" lon="0.90484">
        <ele>1065.35</ele>
        <time>2014-07-08T12:33:02Z</time>
      </trkpt>
      <trkpt lat="42.86268" lon="0.90489">
        <ele>1064.51</ele>
        <time>2014-07-08T12:33:05Z</time>
      </trkpt>
      <trkpt lat="42.86268" lon="0.90496">
        <ele>1064.18</ele>
        <time>2014-07-08T12:33:09Z</time>
      </trkpt>
      <trkpt lat="42.86267" lon="0.90502">
        <ele>1065.51</ele>
        <time>2014-07-08T12:33:13Z</time>
      </trkpt>
      <trkpt lat="42.86269" lon="0.90507">
        <ele>1070.28</ele>
        <time>2014-07-08T12:33:40Z</time>
      </trkpt>
      <trkpt lat="42.86274" lon="0.90512">
        <ele>1072.86</ele>
        <time>2014-07-08T12:33:44Z</time>
      </trkpt>
      <trkpt lat="42.86278" lon="0.90516">
        <ele>1072.59</ele>
        <time>2014-07-08T12:33:47Z</time>
      </trkpt>
      <trkpt lat="42.86281" lon="0.90521">
        <ele>1071.2</ele>
        <time>2014-07-08T12:33:50Z</time>
      </trkpt>
      <trkpt lat="42.86283" lon="0.90527">
        <ele>1070.09</ele>
        <time>2014-07-08T12:33:53Z</time>
      </trkpt>
      <trkpt lat="42.86285" lon="0.90533">
        <ele>1069.35</ele>
        <time>2014-07-08T12:33:57Z</time>
      </trkpt>
      <trkpt lat="42.86287" lon="0.90539">
        <ele>1068.09</ele>
        <time>2014-07-08T12:34:03Z</time>
      </trkpt>
      <trkpt lat="42.8629" lon="0.90544">
        <ele>1069.99</ele>
        <time>2014-07-08T12:34:09Z</time>
      </trkpt>
      <trkpt lat="42.86296" lon="0.90547">
        <ele>1071.69</ele>
        <time>2014-07-08T12:34:13Z</time>
      </trkpt>
      <trkpt lat="42.863" lon="0.90551">
        <ele>1070.16</ele>
        <time>2014-07-08T12:34:17Z</time>
      </trkpt>
      <trkpt lat="42.86301" lon="0.90557">
        <ele>1067.22</ele>
        <time>2014-07-08T12:34:20Z</time>
      </trkpt>
      <trkpt lat="42.86304" lon="0.90564">
        <ele>1061.46</ele>
        <time>2014-07-08T12:34:24Z</time>
      </trkpt>
      <trkpt lat="42.86307" lon="0.90569">
        <ele>1057.58</ele>
        <time>2014-07-08T12:34:31Z</time>
      </trkpt>
      <trkpt lat="42.86308" lon="0.90576">
        <ele>1050.59</ele>
        <time>2014-07-08T12:34:37Z</time>
      </trkpt>
      <trkpt lat="42.86311" lon="0.90581">
        <ele>1050.38</ele>
        <time>2014-07-08T12:34:40Z</time>
      </trkpt>
      <trkpt lat="42.86315" lon="0.90586">
        <ele>1052.83</ele>
        <time>2014-07-08T12:34:44Z</time>
      </trkpt>
      <trkpt lat="42.86319" lon="0.90592">
        <ele>1051.83</ele>
        <time>2014-07-08T12:34:48Z</time>
      </trkpt>
      <trkpt lat="42.86321" lon="0.90597">
        <ele>1051.43</ele>
        <time>2014-07-08T12:34:52Z</time>
      </trkpt>
      <trkpt lat="42.86326" lon="0.90602">
        <ele>1052.01</ele>
        <time>2014-07-08T12:34:57Z</time>
      </trkpt>
      <trkpt lat="42.86332" lon="0.90603">
        <ele>1053.14</ele>
        <time>2014-07-08T12:35:01Z</time>
      </trkpt>
      <trkpt lat="42.86336" lon="0.90604">
        <ele>1053.87</ele>
        <time>2014-07-08T12:35:06Z</time>
      </trkpt>
      <trkpt lat="42.86342" lon="0.90607">
        <ele>1054.63</ele>
        <time>2014-07-08T12:35:11Z</time>
      </trkpt>
      <trkpt lat="42.86346" lon="0.9061">
        <ele>1055.19</ele>
        <time>2014-07-08T12:35:15Z</time>
      </trkpt>
      <trkpt lat="42.86352" lon="0.90611">
        <ele>1057.65</ele>
        <time>2014-07-08T12:35:19Z</time>
      </trkpt>
      <trkpt lat="42.86357" lon="0.90612">
        <ele>1058.21</ele>
        <time>2014-07-08T12:35:23Z</time>
      </trkpt>
      <trkpt lat="42.86362" lon="0.90613">
        <ele>1060.16</ele>
        <time>2014-07-08T12:35:27Z</time>
      </trkpt>
      <trkpt lat="42.86367" lon="0.90613">
        <ele>1058.24</ele>
        <time>2014-07-08T12:35:34Z</time>
      </trkpt>
      <trkpt lat="42.86372" lon="0.90613">
        <ele>1059.75</ele>
        <time>2014-07-08T12:35:42Z</time>
      </trkpt>
      <trkpt lat="42.86375" lon="0.90617">
        <ele>1056.48</ele>
        <time>2014-07-08T12:35:46Z</time>
      </trkpt>
      <trkpt lat="42.86379" lon="0.90622">
        <ele>1054.76</ele>
        <time>2014-07-08T12:35:50Z</time>
      </trkpt>
      <trkpt lat="42.86381" lon="0.90627">
        <ele>1055.55</ele>
        <time>2014-07-08T12:35:55Z</time>
      </trkpt>
      <trkpt lat="42.86385" lon="0.90631">
        <ele>1053.35</ele>
        <time>2014-07-08T12:35:59Z</time>
      </trkpt>
      <trkpt lat="42.86388" lon="0.90636">
        <ele>1052.9</ele>
        <time>2014-07-08T12:36:03Z</time>
      </trkpt>
      <trkpt lat="42.86392" lon="0.90641">
        <ele>1047.42</ele>
        <time>2014-07-08T12:36:08Z</time>
      </trkpt>
      <trkpt lat="42.86395" lon="0.90645">
        <ele>1045.88</ele>
        <time>2014-07-08T12:36:12Z</time>
      </trkpt>
      <trkpt lat="42.864" lon="0.90648">
        <ele>1045.17</ele>
        <time>2014-07-08T12:36:18Z</time>
      </trkpt>
      <trkpt lat="42.86403" lon="0.90653">
        <ele>1041.05</ele>
        <time>2014-07-08T12:36:23Z</time>
      </trkpt>
      <trkpt lat="42.86407" lon="0.90658">
        <ele>1036.72</ele>
        <time>2014-07-08T12:36:29Z</time>
      </trkpt>
      <trkpt lat="42.8641" lon="0.90663">
        <ele>1036.24</ele>
        <time>2014-07-08T12:36:42Z</time>
      </trkpt>
      <trkpt lat="42.86413" lon="0.9067">
        <ele>1032.82</ele>
        <time>2014-07-08T12:36:48Z</time>
      </trkpt>
      <trkpt lat="42.86416" lon="0.90674">
        <ele>1030.58</ele>
        <time>2014-07-08T12:36:52Z</time>
      </trkpt>
      <trkpt lat="42.86418" lon="0.9068">
        <ele>1028.03</ele>
        <time>2014-07-08T12:36:57Z</time>
      </trkpt>
      <trkpt lat="42.86421" lon="0.90687">
        <ele>1029.6</ele>
        <time>2014-07-08T12:37:01Z</time>
      </trkpt>
      <trkpt lat="42.86424" lon="0.90691">
        <ele>1032.11</ele>
        <time>2014-07-08T12:37:08Z</time>
      </trkpt>
      <trkpt lat="42.86426" lon="0.90697">
        <ele>1032.04</ele>
        <time>2014-07-08T12:37:16Z</time>
      </trkpt>
      <trkpt lat="42.86429" lon="0.90702">
        <ele>1036.06</ele>
        <time>2014-07-08T12:37:22Z</time>
      </trkpt>
      <trkpt lat="42.86433" lon="0.90706">
        <ele>1036.18</ele>
        <time>2014-07-08T12:37:29Z</time>
      </trkpt>
      <trkpt lat="42.86438" lon="0.90708">
        <ele>1037.86</ele>
        <time>2014-07-08T12:37:33Z</time>
      </trkpt>
      <trkpt lat="42.86442" lon="0.90711">
        <ele>1038.72</ele>
        <time>2014-07-08T12:37:36Z</time>
      </trkpt>
      <trkpt lat="42.86447" lon="0.90714">
        <ele>1040.32</ele>
        <time>2014-07-08T12:37:39Z</time>
      </trkpt>
      <trkpt lat="42.86451" lon="0.90716">
        <ele>1039.83</ele>
        <time>2014-07-08T12:37:42Z</time>
      </trkpt>
      <trkpt lat="42.86455" lon="0.90722">
        <ele>1036.96</ele>
        <time>2014-07-08T12:37:46Z</time>
      </trkpt>
      <trkpt lat="42.86458" lon="0.90728">
        <ele>1035.59</ele>
        <time>2014-07-08T12:37:50Z</time>
      </trkpt>
      <trkpt lat="42.8646" lon="0.90734">
        <ele>1036.46</ele>
        <time>2014-07-08T12:37:54Z</time>
      </trkpt>
      <trkpt lat="42.86461" lon="0.90741">
        <ele>1036.72</ele>
        <time>2014-07-08T12:37:58Z</time>
      </trkpt>
      <trkpt lat="42.86461" lon="0.90747">
        <ele>1035.14</ele>
        <time>2014-07-08T12:38:02Z</time>
      </trkpt>
      <trkpt lat="42.86461" lon="0.90754">
        <ele>1032.18</ele>
        <time>2014-07-08T12:38:06Z</time>
      </trkpt>
      <trkpt lat="42.86462" lon="0.9076">
        <ele>1029.51</ele>
        <time>2014-07-08T12:38:10Z</time>
      </trkpt>
      <trkpt lat="42.86461" lon="0.90767">
        <ele>1029.08</ele>
        <time>2014-07-08T12:38:14Z</time>
      </trkpt>
      <trkpt lat="42.86462" lon="0.90774">
        <ele>1029.06</ele>
        <time>2014-07-08T12:38:19Z</time>
      </trkpt>
      <trkpt lat="42.8646" lon="0.90781">
        <ele>1028.64</ele>
        <time>2014-07-08T12:38:28Z</time>
      </trkpt>
      <trkpt lat="42.86461" lon="0.90787">
        <ele>1026.41</ele>
        <time>2014-07-08T12:38:33Z</time>
      </trkpt>
      <trkpt lat="42.86465" lon="0.90792">
        <ele>1025.78</ele>
        <time>2014-07-08T12:38:37Z</time>
      </trkpt>
      <trkpt lat="42.86466" lon="0.90798">
        <ele>1025.99</ele>
        <time>2014-07-08T12:38:42Z</time>
      </trkpt>
      <trkpt lat="42.86465" lon="0.90806">
        <ele>1023.99</ele>
        <time>2014-07-08T12:38:46Z</time>
      </trkpt>
      <trkpt lat="42.86466" lon="0.90812">
        <ele>1022.92</ele>
        <time>2014-07-08T12:38:50Z</time>
      </trkpt>
      <trkpt lat="42.86469" lon="0.90818">
        <ele>1021</ele>
        <time>2014-07-08T12:38:56Z</time>
      </trkpt>
      <trkpt lat="42.86471" lon="0.90824">
        <ele>1019.99</ele>
        <time>2014-07-08T12:39:00Z</time>
      </trkpt>
      <trkpt lat="42.86472" lon="0.9083">
        <ele>1019.33</ele>
        <time>2014-07-08T12:39:04Z</time>
      </trkpt>
      <trkpt lat="42.86474" lon="0.90837">
        <ele>1019.63</ele>
        <time>2014-07-08T12:39:08Z</time>
      </trkpt>
      <trkpt lat="42.86475" lon="0.90844">
        <ele>1018.82</ele>
        <time>2014-07-08T12:39:12Z</time>
      </trkpt>
      <trkpt lat="42.86475" lon="0.90851">
        <ele>1016.96</ele>
        <time>2014-07-08T12:39:17Z</time>
      </trkpt>
      <trkpt lat="42.86475" lon="0.90857">
        <ele>1015.47</ele>
        <time>2014-07-08T12:39:22Z</time>
      </trkpt>
      <trkpt lat="42.86477" lon="0.90864">
        <ele>1016.46</ele>
        <time>2014-07-08T12:39:27Z</time>
      </trkpt>
      <trkpt lat="42.86479" lon="0.90869">
        <ele>1018.29</ele>
        <time>2014-07-08T12:39:31Z</time>
      </trkpt>
      <trkpt lat="42.86481" lon="0.90876">
        <ele>1017.91</ele>
        <time>2014-07-08T12:39:36Z</time>
      </trkpt>
      <trkpt lat="42.86483" lon="0.90883">
        <ele>1015.82</ele>
        <time>2014-07-08T12:39:42Z</time>
      </trkpt>
      <trkpt lat="42.86485" lon="0.90889">
        <ele>1014.52</ele>
        <time>2014-07-08T12:39:49Z</time>
      </trkpt>
      <trkpt lat="42.86484" lon="0.90896">
        <ele>1014.21</ele>
        <time>2014-07-08T12:39:55Z</time>
      </trkpt>
      <trkpt lat="42.86486" lon="0.90902">
        <ele>1013.85</ele>
        <time>2014-07-08T12:40:01Z</time>
      </trkpt>
      <trkpt lat="42.86483" lon="0.90907">
        <ele>1006.03</ele>
        <time>2014-07-08T12:40:11Z</time>
      </trkpt>
      <trkpt lat="42.86483" lon="0.90914">
        <ele>998.83</ele>
        <time>2014-07-08T12:40:19Z</time>
      </trkpt>
      <trkpt lat="42.86482" lon="0.9092">
        <ele>995.33</ele>
        <time>2014-07-08T12:40:25Z</time>
      </trkpt>
      <trkpt lat="42.86481" lon="0.90927">
        <ele>995.9</ele>
        <time>2014-07-08T12:40:30Z</time>
      </trkpt>
      <trkpt lat="42.8648" lon="0.90933">
        <ele>996.75</ele>
        <time>2014-07-08T12:40:35Z</time>
      </trkpt>
      <trkpt lat="42.86482" lon="0.90939">
        <ele>997.32</ele>
        <time>2014-07-08T12:40:41Z</time>
      </trkpt>
      <trkpt lat="42.86485" lon="0.90945">
        <ele>997.52</ele>
        <time>2014-07-08T12:40:49Z</time>
      </trkpt>
      <trkpt lat="42.86489" lon="0.90951">
        <ele>998.41</ele>
        <time>2014-07-08T12:40:54Z</time>
      </trkpt>
      <trkpt lat="42.86492" lon="0.90956">
        <ele>998.55</ele>
        <time>2014-07-08T12:40:58Z</time>
      </trkpt>
      <trkpt lat="42.86494" lon="0.90962">
        <ele>997.77</ele>
        <time>2014-07-08T12:41:02Z</time>
      </trkpt>
      <trkpt lat="42.86497" lon="0.90968">
        <ele>998.78</ele>
        <time>2014-07-08T12:41:05Z</time>
      </trkpt>
      <trkpt lat="42.865" lon="0.90974">
        <ele>998.74</ele>
        <time>2014-07-08T12:41:08Z</time>
      </trkpt>
      <trkpt lat="42.86503" lon="0.90978">
        <ele>998.9</ele>
        <time>2014-07-08T12:41:11Z</time>
      </trkpt>
      <trkpt lat="42.86506" lon="0.90983">
        <ele>998.9</ele>
        <time>2014-07-08T12:41:14Z</time>
      </trkpt>
      <trkpt lat="42.8651" lon="0.90989">
        <ele>1000.62</ele>
        <time>2014-07-08T12:41:18Z</time>
      </trkpt>
      <trkpt lat="42.86511" lon="0.90995">
        <ele>999.65</ele>
        <time>2014-07-08T12:41:22Z</time>
      </trkpt>
      <trkpt lat="42.86515" lon="0.91">
        <ele>999.03</ele>
        <time>2014-07-08T12:41:27Z</time>
      </trkpt>
      <trkpt lat="42.86519" lon="0.91004">
        <ele>999.64</ele>
        <time>2014-07-08T12:41:31Z</time>
      </trkpt>
      <trkpt lat="42.86522" lon="0.9101">
        <ele>1001.7</ele>
        <time>2014-07-08T12:41:34Z</time>
      </trkpt>
      <trkpt lat="42.86525" lon="0.91018">
        <ele>1002.32</ele>
        <time>2014-07-08T12:41:37Z</time>
      </trkpt>
      <trkpt lat="42.86528" lon="0.91023">
        <ele>1002.65</ele>
        <time>2014-07-08T12:41:41Z</time>
      </trkpt>
      <trkpt lat="42.86528" lon="0.9103">
        <ele>1004.49</ele>
        <time>2014-07-08T12:41:45Z</time>
      </trkpt>
      <trkpt lat="42.8653" lon="0.91036">
        <ele>1003.33</ele>
        <time>2014-07-08T12:41:49Z</time>
      </trkpt>
      <trkpt lat="42.86531" lon="0.91043">
        <ele>1002.17</ele>
        <time>2014-07-08T12:41:53Z</time>
      </trkpt>
      <trkpt lat="42.86532" lon="0.91049">
        <ele>1000.76</ele>
        <time>2014-07-08T12:41:57Z</time>
      </trkpt>
      <trkpt lat="42.86534" lon="0.91055">
        <ele>1000.18</ele>
        <time>2014-07-08T12:42:01Z</time>
      </trkpt>
      <trkpt lat="42.86535" lon="0.91062">
        <ele>1000.41</ele>
        <time>2014-07-08T12:42:05Z</time>
      </trkpt>
      <trkpt lat="42.86536" lon="0.9107">
        <ele>1000.17</ele>
        <time>2014-07-08T12:42:09Z</time>
      </trkpt>
      <trkpt lat="42.86536" lon="0.91077">
        <ele>997.44</ele>
        <time>2014-07-08T12:42:13Z</time>
      </trkpt>
      <trkpt lat="42.86536" lon="0.91083">
        <ele>997.32</ele>
        <time>2014-07-08T12:42:17Z</time>
      </trkpt>
      <trkpt lat="42.86537" lon="0.91089">
        <ele>996.7</ele>
        <time>2014-07-08T12:42:21Z</time>
      </trkpt>
      <trkpt lat="42.86539" lon="0.91095">
        <ele>994.46</ele>
        <time>2014-07-08T12:42:26Z</time>
      </trkpt>
      <trkpt lat="42.86542" lon="0.91101">
        <ele>993.15</ele>
        <time>2014-07-08T12:42:32Z</time>
      </trkpt>
      <trkpt lat="42.86545" lon="0.91108">
        <ele>992.34</ele>
        <time>2014-07-08T12:42:37Z</time>
      </trkpt>
      <trkpt lat="42.86545" lon="0.91114">
        <ele>989.65</ele>
        <time>2014-07-08T12:42:42Z</time>
      </trkpt>
      <trkpt lat="42.86546" lon="0.91121">
        <ele>990.44</ele>
        <time>2014-07-08T12:42:47Z</time>
      </trkpt>
      <trkpt lat="42.86547" lon="0.91128">
        <ele>989.12</ele>
        <time>2014-07-08T12:42:52Z</time>
      </trkpt>
      <trkpt lat="42.86548" lon="0.91135">
        <ele>987.7</ele>
        <time>2014-07-08T12:42:56Z</time>
      </trkpt>
      <trkpt lat="42.8655" lon="0.91141">
        <ele>987.33</ele>
        <time>2014-07-08T12:43:00Z</time>
      </trkpt>
      <trkpt lat="42.8655" lon="0.91148">
        <ele>987.38</ele>
        <time>2014-07-08T12:43:04Z</time>
      </trkpt>
      <trkpt lat="42.86551" lon="0.91155">
        <ele>988.66</ele>
        <time>2014-07-08T12:43:07Z</time>
      </trkpt>
      <trkpt lat="42.86551" lon="0.91162">
        <ele>988.24</ele>
        <time>2014-07-08T12:43:11Z</time>
      </trkpt>
      <trkpt lat="42.86553" lon="0.91169">
        <ele>987.13</ele>
        <time>2014-07-08T12:43:15Z</time>
      </trkpt>
      <trkpt lat="42.86553" lon="0.91175">
        <ele>986.4</ele>
        <time>2014-07-08T12:43:19Z</time>
      </trkpt>
      <trkpt lat="42.86551" lon="0.91181">
        <ele>984.96</ele>
        <time>2014-07-08T12:43:23Z</time>
      </trkpt>
      <trkpt lat="42.86549" lon="0.91187">
        <ele>984.54</ele>
        <time>2014-07-08T12:43:27Z</time>
      </trkpt>
      <trkpt lat="42.86551" lon="0.91194">
        <ele>985.89</ele>
        <time>2014-07-08T12:43:31Z</time>
      </trkpt>
      <trkpt lat="42.86552" lon="0.91201">
        <ele>985.48</ele>
        <time>2014-07-08T12:43:35Z</time>
      </trkpt>
      <trkpt lat="42.8655" lon="0.91207">
        <ele>984.26</ele>
        <time>2014-07-08T12:43:39Z</time>
      </trkpt>
      <trkpt lat="42.86551" lon="0.91214">
        <ele>985.31</ele>
        <time>2014-07-08T12:43:43Z</time>
      </trkpt>
      <trkpt lat="42.86553" lon="0.91221">
        <ele>985.5</ele>
        <time>2014-07-08T12:43:47Z</time>
      </trkpt>
      <trkpt lat="42.86556" lon="0.91227">
        <ele>985.42</ele>
        <time>2014-07-08T12:43:52Z</time>
      </trkpt>
      <trkpt lat="42.86559" lon="0.91233">
        <ele>984.76</ele>
        <time>2014-07-08T12:43:57Z</time>
      </trkpt>
      <trkpt lat="42.86561" lon="0.9124">
        <ele>981.63</ele>
        <time>2014-07-08T12:44:02Z</time>
      </trkpt>
      <trkpt lat="42.8656" lon="0.91246">
        <ele>977.34</ele>
        <time>2014-07-08T12:44:08Z</time>
      </trkpt>
      <trkpt lat="42.86559" lon="0.91253">
        <ele>974.64</ele>
        <time>2014-07-08T12:44:13Z</time>
      </trkpt>
      <trkpt lat="42.86557" lon="0.91259">
        <ele>972.28</ele>
        <time>2014-07-08T12:44:18Z</time>
      </trkpt>
      <trkpt lat="42.86558" lon="0.91266">
        <ele>969.87</ele>
        <time>2014-07-08T12:44:23Z</time>
      </trkpt>
      <trkpt lat="42.8656" lon="0.91272">
        <ele>969.89</ele>
        <time>2014-07-08T12:44:27Z</time>
      </trkpt>
      <trkpt lat="42.86563" lon="0.91279">
        <ele>972.99</ele>
        <time>2014-07-08T12:44:31Z</time>
      </trkpt>
      <trkpt lat="42.86565" lon="0.91286">
        <ele>973.76</ele>
        <time>2014-07-08T12:44:35Z</time>
      </trkpt>
      <trkpt lat="42.86568" lon="0.91292">
        <ele>974.57</ele>
        <time>2014-07-08T12:44:39Z</time>
      </trkpt>
      <trkpt lat="42.8657" lon="0.91299">
        <ele>977.87</ele>
        <time>2014-07-08T12:44:43Z</time>
      </trkpt>
      <trkpt lat="42.86573" lon="0.91305">
        <ele>978.48</ele>
        <time>2014-07-08T12:44:47Z</time>
      </trkpt>
      <trkpt lat="42.86574" lon="0.91311">
        <ele>971.52</ele>
        <time>2014-07-08T12:44:53Z</time>
      </trkpt>
      <trkpt lat="42.86575" lon="0.91318">
        <ele>970.82</ele>
        <time>2014-07-08T12:44:58Z</time>
      </trkpt>
      <trkpt lat="42.86578" lon="0.91324">
        <ele>969.11</ele>
        <time>2014-07-08T12:45:03Z</time>
      </trkpt>
      <trkpt lat="42.86581" lon="0.91329">
        <ele>969.69</ele>
        <time>2014-07-08T12:45:07Z</time>
      </trkpt>
      <trkpt lat="42.86583" lon="0.91336">
        <ele>969.47</ele>
        <time>2014-07-08T12:45:11Z</time>
      </trkpt>
      <trkpt lat="42.86586" lon="0.91342">
        <ele>970.22</ele>
        <time>2014-07-08T12:45:15Z</time>
      </trkpt>
      <trkpt lat="42.86589" lon="0.91348">
        <ele>971.36</ele>
        <time>2014-07-08T12:45:19Z</time>
      </trkpt>
      <trkpt lat="42.86591" lon="0.91355">
        <ele>971.7</ele>
        <time>2014-07-08T12:45:23Z</time>
      </trkpt>
      <trkpt lat="42.86593" lon="0.91361">
        <ele>972.41</ele>
        <time>2014-07-08T12:45:27Z</time>
      </trkpt>
      <trkpt lat="42.86596" lon="0.91365">
        <ele>973.64</ele>
        <time>2014-07-08T12:45:31Z</time>
      </trkpt>
      <trkpt lat="42.86598" lon="0.91371">
        <ele>974.17</ele>
        <time>2014-07-08T12:45:35Z</time>
      </trkpt>
      <trkpt lat="42.866" lon="0.91378">
        <ele>975.8</ele>
        <time>2014-07-08T12:45:40Z</time>
      </trkpt>
      <trkpt lat="42.86601" lon="0.91386">
        <ele>975.87</ele>
        <time>2014-07-08T12:45:44Z</time>
      </trkpt>
      <trkpt lat="42.86601" lon="0.91392">
        <ele>974.74</ele>
        <time>2014-07-08T12:45:48Z</time>
      </trkpt>
      <trkpt lat="42.86604" lon="0.91398">
        <ele>974.13</ele>
        <time>2014-07-08T12:45:52Z</time>
      </trkpt>
      <trkpt lat="42.86605" lon="0.91404">
        <ele>974.53</ele>
        <time>2014-07-08T12:45:56Z</time>
      </trkpt>
      <trkpt lat="42.86608" lon="0.91411">
        <ele>976.66</ele>
        <time>2014-07-08T12:46:00Z</time>
      </trkpt>
      <trkpt lat="42.86609" lon="0.91417">
        <ele>976.94</ele>
        <time>2014-07-08T12:46:04Z</time>
      </trkpt>
      <trkpt lat="42.86612" lon="0.91423">
        <ele>976.59</ele>
        <time>2014-07-08T12:46:09Z</time>
      </trkpt>
      <trkpt lat="42.86613" lon="0.9143">
        <ele>973.57</ele>
        <time>2014-07-08T12:46:15Z</time>
      </trkpt>
      <trkpt lat="42.86617" lon="0.91433">
        <ele>974.62</ele>
        <time>2014-07-08T12:46:23Z</time>
      </trkpt>
      <trkpt lat="42.86622" lon="0.91437">
        <ele>975.05</ele>
        <time>2014-07-08T12:46:27Z</time>
      </trkpt>
      <trkpt lat="42.86626" lon="0.91441">
        <ele>973.5</ele>
        <time>2014-07-08T12:46:30Z</time>
      </trkpt>
      <trkpt lat="42.86628" lon="0.91447">
        <ele>972.39</ele>
        <time>2014-07-08T12:46:33Z</time>
      </trkpt>
      <trkpt lat="42.86631" lon="0.91452">
        <ele>971.73</ele>
        <time>2014-07-08T12:46:37Z</time>
      </trkpt>
      <trkpt lat="42.86633" lon="0.91459">
        <ele>972.77</ele>
        <time>2014-07-08T12:46:41Z</time>
      </trkpt>
      <trkpt lat="42.86637" lon="0.91464">
        <ele>974.94</ele>
        <time>2014-07-08T12:46:44Z</time>
      </trkpt>
      <trkpt lat="42.86641" lon="0.91469">
        <ele>973.23</ele>
        <time>2014-07-08T12:46:48Z</time>
      </trkpt>
      <trkpt lat="42.86645" lon="0.91473">
        <ele>973.28</ele>
        <time>2014-07-08T12:46:52Z</time>
      </trkpt>
      <trkpt lat="42.86648" lon="0.9148">
        <ele>974.09</ele>
        <time>2014-07-08T12:46:56Z</time>
      </trkpt>
      <trkpt lat="42.86652" lon="0.91485">
        <ele>975.37</ele>
        <time>2014-07-08T12:47:00Z</time>
      </trkpt>
      <trkpt lat="42.86655" lon="0.91491">
        <ele>975.36</ele>
        <time>2014-07-08T12:47:04Z</time>
      </trkpt>
      <trkpt lat="42.86656" lon="0.91497">
        <ele>975.32</ele>
        <time>2014-07-08T12:47:12Z</time>
      </trkpt>
      <trkpt lat="42.86658" lon="0.91503">
        <ele>976.66</ele>
        <time>2014-07-08T12:47:17Z</time>
      </trkpt>
      <trkpt lat="42.86663" lon="0.91506">
        <ele>976.67</ele>
        <time>2014-07-08T12:47:23Z</time>
      </trkpt>
      <trkpt lat="42.86667" lon="0.9151">
        <ele>977.04</ele>
        <time>2014-07-08T12:47:27Z</time>
      </trkpt>
      <trkpt lat="42.86671" lon="0.9151">
        <ele>976.1</ele>
        <time>2014-07-08T12:47:31Z</time>
      </trkpt>
      <trkpt lat="42.86675" lon="0.91515">
        <ele>974.28</ele>
        <time>2014-07-08T12:47:42Z</time>
      </trkpt>
      <trkpt lat="42.86677" lon="0.91509">
        <ele>967.75</ele>
        <time>2014-07-08T12:48:00Z</time>
      </trkpt>
      <trkpt lat="42.86676" lon="0.91502">
        <ele>962.94</ele>
        <time>2014-07-08T12:48:11Z</time>
      </trkpt>
      <trkpt lat="42.86673" lon="0.91497">
        <ele>960.92</ele>
        <time>2014-07-08T12:48:17Z</time>
      </trkpt>
      <trkpt lat="42.86673" lon="0.91491">
        <ele>958.46</ele>
        <time>2014-07-08T12:48:24Z</time>
      </trkpt>
      <trkpt lat="42.86672" lon="0.91483">
        <ele>954.93</ele>
        <time>2014-07-08T12:48:33Z</time>
      </trkpt>
      <trkpt lat="42.86674" lon="0.91477">
        <ele>955.67</ele>
        <time>2014-07-08T12:48:41Z</time>
      </trkpt>
      <trkpt lat="42.86673" lon="0.91471">
        <ele>957.9</ele>
        <time>2014-07-08T12:48:55Z</time>
      </trkpt>
      <trkpt lat="42.86673" lon="0.91464">
        <ele>958.4</ele>
        <time>2014-07-08T12:49:03Z</time>
      </trkpt>
      <trkpt lat="42.86672" lon="0.91457">
        <ele>959.98</ele>
        <time>2014-07-08T12:49:12Z</time>
      </trkpt>
      <trkpt lat="42.86669" lon="0.91453">
        <ele>957.02</ele>
        <time>2014-07-08T12:49:17Z</time>
      </trkpt>
      <trkpt lat="42.8667" lon="0.91447">
        <ele>955.71</ele>
        <time>2014-07-08T12:49:30Z</time>
      </trkpt>
      <trkpt lat="42.86671" lon="0.91439">
        <ele>956.23</ele>
        <time>2014-07-08T12:49:41Z</time>
      </trkpt>
      <trkpt lat="42.86667" lon="0.91434">
        <ele>951.3</ele>
        <time>2014-07-08T12:49:47Z</time>
      </trkpt>
      <trkpt lat="42.86662" lon="0.9143">
        <ele>946.63</ele>
        <time>2014-07-08T12:49:52Z</time>
      </trkpt>
      <trkpt lat="42.8666" lon="0.91425">
        <ele>946.81</ele>
        <time>2014-07-08T12:49:58Z</time>
      </trkpt>
      <trkpt lat="42.86657" lon="0.91418">
        <ele>947.6</ele>
        <time>2014-07-08T12:50:06Z</time>
      </trkpt>
      <trkpt lat="42.86655" lon="0.91413">
        <ele>947.69</ele>
        <time>2014-07-08T12:50:10Z</time>
      </trkpt>
      <trkpt lat="42.86655" lon="0.91406">
        <ele>946.67</ele>
        <time>2014-07-08T12:50:14Z</time>
      </trkpt>
      <trkpt lat="42.86652" lon="0.91401">
        <ele>942.99</ele>
        <time>2014-07-08T12:50:19Z</time>
      </trkpt>
      <trkpt lat="42.86651" lon="0.91395">
        <ele>940.92</ele>
        <time>2014-07-08T12:50:26Z</time>
      </trkpt>
      <trkpt lat="42.86652" lon="0.91388">
        <ele>939.66</ele>
        <time>2014-07-08T12:50:36Z</time>
      </trkpt>
      <trkpt lat="42.86652" lon="0.91382">
        <ele>937.93</ele>
        <time>2014-07-08T12:50:42Z</time>
      </trkpt>
      <trkpt lat="42.8665" lon="0.91375">
        <ele>936.89</ele>
        <time>2014-07-08T12:50:47Z</time>
      </trkpt>
      <trkpt lat="42.86651" lon="0.91368">
        <ele>937.08</ele>
        <time>2014-07-08T12:50:52Z</time>
      </trkpt>
      <trkpt lat="42.86653" lon="0.9136">
        <ele>940.14</ele>
        <time>2014-07-08T12:50:57Z</time>
      </trkpt>
      <trkpt lat="42.86654" lon="0.91354">
        <ele>940.05</ele>
        <time>2014-07-08T12:51:02Z</time>
      </trkpt>
      <trkpt lat="42.86654" lon="0.91348">
        <ele>936.12</ele>
        <time>2014-07-08T12:51:09Z</time>
      </trkpt>
      <trkpt lat="42.86657" lon="0.91342">
        <ele>937.97</ele>
        <time>2014-07-08T12:51:14Z</time>
      </trkpt>
      <trkpt lat="42.86657" lon="0.91336">
        <ele>935.77</ele>
        <time>2014-07-08T12:51:19Z</time>
      </trkpt>
      <trkpt lat="42.86656" lon="0.91329">
        <ele>935.53</ele>
        <time>2014-07-08T12:51:25Z</time>
      </trkpt>
      <trkpt lat="42.8666" lon="0.91326">
        <ele>933.15</ele>
        <time>2014-07-08T12:51:34Z</time>
      </trkpt>
      <trkpt lat="42.86666" lon="0.91326">
        <ele>927.15</ele>
        <time>2014-07-08T12:51:53Z</time>
      </trkpt>
      <trkpt lat="42.8667" lon="0.91328">
        <ele>925.81</ele>
        <time>2014-07-08T12:51:57Z</time>
      </trkpt>
      <trkpt lat="42.86672" lon="0.91333">
        <ele>926.9</ele>
        <time>2014-07-08T12:52:02Z</time>
      </trkpt>
      <trkpt lat="42.86674" lon="0.9134">
        <ele>926.55</ele>
        <time>2014-07-08T12:52:08Z</time>
      </trkpt>
      <trkpt lat="42.86677" lon="0.91346">
        <ele>927.88</ele>
        <time>2014-07-08T12:52:14Z</time>
      </trkpt>
      <trkpt lat="42.8668" lon="0.91351">
        <ele>929.54</ele>
        <time>2014-07-08T12:52:19Z</time>
      </trkpt>
      <trkpt lat="42.86683" lon="0.91355">
        <ele>930.76</ele>
        <time>2014-07-08T12:52:23Z</time>
      </trkpt>
      <trkpt lat="42.86685" lon="0.91361">
        <ele>933.98</ele>
        <time>2014-07-08T12:52:28Z</time>
      </trkpt>
      <trkpt lat="42.86689" lon="0.91365">
        <ele>933.99</ele>
        <time>2014-07-08T12:52:44Z</time>
      </trkpt>
      <trkpt lat="42.86694" lon="0.91366">
        <ele>934.74</ele>
        <time>2014-07-08T12:52:48Z</time>
      </trkpt>
      <trkpt lat="42.86697" lon="0.9137">
        <ele>934.65</ele>
        <time>2014-07-08T12:52:57Z</time>
      </trkpt>
      <trkpt lat="42.86702" lon="0.91372">
        <ele>933.18</ele>
        <time>2014-07-08T12:53:02Z</time>
      </trkpt>
      <trkpt lat="42.86707" lon="0.91371">
        <ele>929.96</ele>
        <time>2014-07-08T12:53:05Z</time>
      </trkpt>
      <trkpt lat="42.86712" lon="0.91371">
        <ele>927.76</ele>
        <time>2014-07-08T12:53:08Z</time>
      </trkpt>
      <trkpt lat="42.86717" lon="0.91372">
        <ele>926.89</ele>
        <time>2014-07-08T12:53:11Z</time>
      </trkpt>
      <trkpt lat="42.86722" lon="0.91374">
        <ele>926.66</ele>
        <time>2014-07-08T12:53:15Z</time>
      </trkpt>
      <trkpt lat="42.86728" lon="0.91375">
        <ele>923.06</ele>
        <time>2014-07-08T12:53:20Z</time>
      </trkpt>
      <trkpt lat="42.86732" lon="0.91379">
        <ele>919.5</ele>
        <time>2014-07-08T12:53:26Z</time>
      </trkpt>
      <trkpt lat="42.86736" lon="0.91381">
        <ele>918.27</ele>
        <time>2014-07-08T12:53:31Z</time>
      </trkpt>
      <trkpt lat="42.8674" lon="0.91384">
        <ele>919.87</ele>
        <time>2014-07-08T12:53:35Z</time>
      </trkpt>
      <trkpt lat="42.86744" lon="0.91388">
        <ele>923.11</ele>
        <time>2014-07-08T12:53:38Z</time>
      </trkpt>
      <trkpt lat="42.86748" lon="0.91393">
        <ele>926.62</ele>
        <time>2014-07-08T12:53:41Z</time>
      </trkpt>
      <trkpt lat="42.86753" lon="0.91398">
        <ele>930.94</ele>
        <time>2014-07-08T12:53:44Z</time>
      </trkpt>
      <trkpt lat="42.86758" lon="0.91402">
        <ele>1020.92</ele>
        <time>2014-07-08T12:53:47Z</time>
      </trkpt>
      <trkpt lat="42.86762" lon="0.91406">
        <ele>987.65</ele>
        <time>2014-07-08T12:53:51Z</time>
      </trkpt>
      <trkpt lat="42.86766" lon="0.91411">
        <ele>946.04</ele>
        <time>2014-07-08T12:53:56Z</time>
      </trkpt>
      <trkpt lat="42.86769" lon="0.91417">
        <ele>939.05</ele>
        <time>2014-07-08T12:54:00Z</time>
      </trkpt>
      <trkpt lat="42.86771" lon="0.91422">
        <ele>935.56</ele>
        <time>2014-07-08T12:54:04Z</time>
      </trkpt>
      <trkpt lat="42.86773" lon="0.91428">
        <ele>934.44</ele>
        <time>2014-07-08T12:54:08Z</time>
      </trkpt>
      <trkpt lat="42.86776" lon="0.91434">
        <ele>935.7</ele>
        <time>2014-07-08T12:54:12Z</time>
      </trkpt>
      <trkpt lat="42.86776" lon="0.91441">
        <ele>937.83</ele>
        <time>2014-07-08T12:54:16Z</time>
      </trkpt>
      <trkpt lat="42.86776" lon="0.91448">
        <ele>937.63</ele>
        <time>2014-07-08T12:54:20Z</time>
      </trkpt>
      <trkpt lat="42.86779" lon="0.91451">
        <ele>936.08</ele>
        <time>2014-07-08T12:54:24Z</time>
      </trkpt>
      <trkpt lat="42.86783" lon="0.91457">
        <ele>936.35</ele>
        <time>2014-07-08T12:54:28Z</time>
      </trkpt>
      <trkpt lat="42.86786" lon="0.91464">
        <ele>937.55</ele>
        <time>2014-07-08T12:54:32Z</time>
      </trkpt>
      <trkpt lat="42.8679" lon="0.91467">
        <ele>936.6</ele>
        <time>2014-07-08T12:54:36Z</time>
      </trkpt>
      <trkpt lat="42.86794" lon="0.91472">
        <ele>935.24</ele>
        <time>2014-07-08T12:54:40Z</time>
      </trkpt>
      <trkpt lat="42.86795" lon="0.91478">
        <ele>934.26</ele>
        <time>2014-07-08T12:54:44Z</time>
      </trkpt>
      <trkpt lat="42.86795" lon="0.91486">
        <ele>933.79</ele>
        <time>2014-07-08T12:54:49Z</time>
      </trkpt>
      <trkpt lat="42.86795" lon="0.91492">
        <ele>933.19</ele>
        <time>2014-07-08T12:54:54Z</time>
      </trkpt>
      <trkpt lat="42.86796" lon="0.91499">
        <ele>934.07</ele>
        <time>2014-07-08T12:54:58Z</time>
      </trkpt>
      <trkpt lat="42.86799" lon="0.91504">
        <ele>933</ele>
        <time>2014-07-08T12:55:03Z</time>
      </trkpt>
      <trkpt lat="42.86799" lon="0.91511">
        <ele>931.9</ele>
        <time>2014-07-08T12:55:08Z</time>
      </trkpt>
      <trkpt lat="42.86802" lon="0.91517">
        <ele>932.4</ele>
        <time>2014-07-08T12:55:13Z</time>
      </trkpt>
      <trkpt lat="42.86803" lon="0.91523">
        <ele>933.46</ele>
        <time>2014-07-08T12:55:17Z</time>
      </trkpt>
      <trkpt lat="42.86805" lon="0.91529">
        <ele>933.1</ele>
        <time>2014-07-08T12:55:25Z</time>
      </trkpt>
      <trkpt lat="42.86804" lon="0.91536">
        <ele>932.51</ele>
        <time>2014-07-08T12:55:29Z</time>
      </trkpt>
      <trkpt lat="42.86806" lon="0.91542">
        <ele>930.45</ele>
        <time>2014-07-08T12:55:33Z</time>
      </trkpt>
      <trkpt lat="42.86807" lon="0.91549">
        <ele>928.33</ele>
        <time>2014-07-08T12:55:38Z</time>
      </trkpt>
      <trkpt lat="42.8681" lon="0.91556">
        <ele>928.92</ele>
        <time>2014-07-08T12:55:42Z</time>
      </trkpt>
      <trkpt lat="42.86811" lon="0.91563">
        <ele>929.08</ele>
        <time>2014-07-08T12:55:46Z</time>
      </trkpt>
      <trkpt lat="42.86814" lon="0.91569">
        <ele>929.25</ele>
        <time>2014-07-08T12:55:50Z</time>
      </trkpt>
      <trkpt lat="42.86813" lon="0.91577">
        <ele>930.79</ele>
        <time>2014-07-08T12:55:54Z</time>
      </trkpt>
      <trkpt lat="42.86813" lon="0.91585">
        <ele>931.47</ele>
        <time>2014-07-08T12:55:59Z</time>
      </trkpt>
      <trkpt lat="42.86815" lon="0.91591">
        <ele>930.15</ele>
        <time>2014-07-08T12:56:04Z</time>
      </trkpt>
      <trkpt lat="42.86817" lon="0.91598">
        <ele>931.17</ele>
        <time>2014-07-08T12:56:09Z</time>
      </trkpt>
      <trkpt lat="42.86818" lon="0.91605">
        <ele>930.96</ele>
        <time>2014-07-08T12:56:14Z</time>
      </trkpt>
      <trkpt lat="42.86819" lon="0.91612">
        <ele>930.5</ele>
        <time>2014-07-08T12:56:21Z</time>
      </trkpt>
      <trkpt lat="42.86816" lon="0.91618">
        <ele>930.99</ele>
        <time>2014-07-08T12:56:26Z</time>
      </trkpt>
      <trkpt lat="42.86816" lon="0.91624">
        <ele>930.07</ele>
        <time>2014-07-08T12:56:32Z</time>
      </trkpt>
      <trkpt lat="42.86814" lon="0.91631">
        <ele>930.77</ele>
        <time>2014-07-08T12:56:37Z</time>
      </trkpt>
      <trkpt lat="42.86814" lon="0.91637">
        <ele>929.59</ele>
        <time>2014-07-08T12:56:43Z</time>
      </trkpt>
      <trkpt lat="42.86816" lon="0.91643">
        <ele>928.62</ele>
        <time>2014-07-08T12:56:49Z</time>
      </trkpt>
      <trkpt lat="42.86817" lon="0.91649">
        <ele>926.5</ele>
        <time>2014-07-08T12:56:53Z</time>
      </trkpt>
      <trkpt lat="42.86817" lon="0.91656">
        <ele>926.86</ele>
        <time>2014-07-08T12:56:57Z</time>
      </trkpt>
      <trkpt lat="42.86819" lon="0.91662">
        <ele>925.55</ele>
        <time>2014-07-08T12:57:05Z</time>
      </trkpt>
      <trkpt lat="42.86821" lon="0.91669">
        <ele>922.29</ele>
        <time>2014-07-08T12:57:11Z</time>
      </trkpt>
      <trkpt lat="42.86824" lon="0.91674">
        <ele>919.25</ele>
        <time>2014-07-08T12:57:15Z</time>
      </trkpt>
      <trkpt lat="42.86828" lon="0.9168">
        <ele>917.63</ele>
        <time>2014-07-08T12:57:19Z</time>
      </trkpt>
      <trkpt lat="42.86831" lon="0.91686">
        <ele>918.13</ele>
        <time>2014-07-08T12:57:23Z</time>
      </trkpt>
      <trkpt lat="42.86835" lon="0.91692">
        <ele>918.1</ele>
        <time>2014-07-08T12:57:27Z</time>
      </trkpt>
      <trkpt lat="42.86837" lon="0.91698">
        <ele>916.46</ele>
        <time>2014-07-08T12:57:31Z</time>
      </trkpt>
      <trkpt lat="42.86838" lon="0.91704">
        <ele>916.48</ele>
        <time>2014-07-08T12:57:36Z</time>
      </trkpt>
      <trkpt lat="42.86838" lon="0.91712">
        <ele>919.69</ele>
        <time>2014-07-08T12:57:40Z</time>
      </trkpt>
      <trkpt lat="42.86837" lon="0.91718">
        <ele>920.9</ele>
        <time>2014-07-08T12:57:44Z</time>
      </trkpt>
      <trkpt lat="42.86834" lon="0.91724">
        <ele>922.95</ele>
        <time>2014-07-08T12:57:48Z</time>
      </trkpt>
      <trkpt lat="42.86833" lon="0.91731">
        <ele>922.47</ele>
        <time>2014-07-08T12:57:52Z</time>
      </trkpt>
      <trkpt lat="42.86834" lon="0.91737">
        <ele>919.99</ele>
        <time>2014-07-08T12:57:56Z</time>
      </trkpt>
      <trkpt lat="42.86834" lon="0.91745">
        <ele>918.34</ele>
        <time>2014-07-08T12:58:01Z</time>
      </trkpt>
      <trkpt lat="42.86835" lon="0.91751">
        <ele>917.35</ele>
        <time>2014-07-08T12:58:05Z</time>
      </trkpt>
      <trkpt lat="42.86838" lon="0.91756">
        <ele>916.72</ele>
        <time>2014-07-08T12:58:09Z</time>
      </trkpt>
      <trkpt lat="42.86843" lon="0.9176">
        <ele>914.32</ele>
        <time>2014-07-08T12:58:13Z</time>
      </trkpt>
      <trkpt lat="42.86848" lon="0.91761">
        <ele>911.47</ele>
        <time>2014-07-08T12:58:17Z</time>
      </trkpt>
      <trkpt lat="42.86853" lon="0.91764">
        <ele>913.64</ele>
        <time>2014-07-08T12:58:21Z</time>
      </trkpt>
      <trkpt lat="42.8685" lon="0.9177">
        <ele>917.2</ele>
        <time>2014-07-08T12:58:25Z</time>
      </trkpt>
      <trkpt lat="42.86849" lon="0.91776">
        <ele>917.72</ele>
        <time>2014-07-08T12:58:28Z</time>
      </trkpt>
      <trkpt lat="42.86846" lon="0.91784">
        <ele>918.58</ele>
        <time>2014-07-08T12:58:32Z</time>
      </trkpt>
      <trkpt lat="42.86845" lon="0.91791">
        <ele>919.87</ele>
        <time>2014-07-08T12:58:36Z</time>
      </trkpt>
      <trkpt lat="42.86845" lon="0.91798">
        <ele>922.9</ele>
        <time>2014-07-08T12:58:41Z</time>
      </trkpt>
      <trkpt lat="42.86845" lon="0.91805">
        <ele>923.39</ele>
        <time>2014-07-08T12:58:45Z</time>
      </trkpt>
      <trkpt lat="42.86845" lon="0.91812">
        <ele>924.17</ele>
        <time>2014-07-08T12:58:49Z</time>
      </trkpt>
      <trkpt lat="42.86846" lon="0.91818">
        <ele>925.02</ele>
        <time>2014-07-08T12:58:53Z</time>
      </trkpt>
      <trkpt lat="42.86846" lon="0.91824">
        <ele>926.01</ele>
        <time>2014-07-08T12:58:57Z</time>
      </trkpt>
      <trkpt lat="42.86846" lon="0.91831">
        <ele>924.8</ele>
        <time>2014-07-08T12:59:01Z</time>
      </trkpt>
      <trkpt lat="42.86848" lon="0.91837">
        <ele>925.76</ele>
        <time>2014-07-08T12:59:05Z</time>
      </trkpt>
      <trkpt lat="42.86847" lon="0.91844">
        <ele>924.74</ele>
        <time>2014-07-08T12:59:09Z</time>
      </trkpt>
      <trkpt lat="42.86846" lon="0.91851">
        <ele>924.11</ele>
        <time>2014-07-08T12:59:13Z</time>
      </trkpt>
      <trkpt lat="42.86847" lon="0.91858">
        <ele>921.55</ele>
        <time>2014-07-08T12:59:18Z</time>
      </trkpt>
      <trkpt lat="42.86849" lon="0.91864">
        <ele>920.35</ele>
        <time>2014-07-08T12:59:22Z</time>
      </trkpt>
      <trkpt lat="42.86848" lon="0.91871">
        <ele>918.45</ele>
        <time>2014-07-08T12:59:27Z</time>
      </trkpt>
      <trkpt lat="42.8685" lon="0.91878">
        <ele>918</ele>
        <time>2014-07-08T12:59:32Z</time>
      </trkpt>
      <trkpt lat="42.8685" lon="0.91884">
        <ele>920.68</ele>
        <time>2014-07-08T12:59:36Z</time>
      </trkpt>
      <trkpt lat="42.86851" lon="0.91891">
        <ele>919.98</ele>
        <time>2014-07-08T12:59:41Z</time>
      </trkpt>
      <trkpt lat="42.86851" lon="0.91898">
        <ele>918.79</ele>
        <time>2014-07-08T12:59:46Z</time>
      </trkpt>
      <trkpt lat="42.86849" lon="0.91904">
        <ele>919.06</ele>
        <time>2014-07-08T12:59:52Z</time>
      </trkpt>
      <trkpt lat="42.8685" lon="0.9191">
        <ele>918.81</ele>
        <time>2014-07-08T12:59:56Z</time>
      </trkpt>
      <trkpt lat="42.86851" lon="0.91917">
        <ele>918.58</ele>
        <time>2014-07-08T13:00:01Z</time>
      </trkpt>
      <trkpt lat="42.86853" lon="0.91922">
        <ele>917.53</ele>
        <time>2014-07-08T13:00:06Z</time>
      </trkpt>
      <trkpt lat="42.86855" lon="0.91928">
        <ele>916</ele>
        <time>2014-07-08T13:00:12Z</time>
      </trkpt>
      <trkpt lat="42.86855" lon="0.91934">
        <ele>914.89</ele>
        <time>2014-07-08T13:00:20Z</time>
      </trkpt>
      <trkpt lat="42.86852" lon="0.91939">
        <ele>917.67</ele>
        <time>2014-07-08T13:00:23Z</time>
      </trkpt>
      <trkpt lat="42.8685" lon="0.91945">
        <ele>917.95</ele>
        <time>2014-07-08T13:00:27Z</time>
      </trkpt>
      <trkpt lat="42.86847" lon="0.9195">
        <ele>917.45</ele>
        <time>2014-07-08T13:00:31Z</time>
      </trkpt>
      <trkpt lat="42.86846" lon="0.91956">
        <ele>914.55</ele>
        <time>2014-07-08T13:00:37Z</time>
      </trkpt>
      <trkpt lat="42.86847" lon="0.91963">
        <ele>914.45</ele>
        <time>2014-07-08T13:00:43Z</time>
      </trkpt>
      <trkpt lat="42.86849" lon="0.91968">
        <ele>910.06</ele>
        <time>2014-07-08T13:00:50Z</time>
      </trkpt>
      <trkpt lat="42.86854" lon="0.91971">
        <ele>904.41</ele>
        <time>2014-07-08T13:00:56Z</time>
      </trkpt>
      <trkpt lat="42.86857" lon="0.91974">
        <ele>903.31</ele>
        <time>2014-07-08T13:01:02Z</time>
      </trkpt>
      <trkpt lat="42.86859" lon="0.9198">
        <ele>902.16</ele>
        <time>2014-07-08T13:01:08Z</time>
      </trkpt>
      <trkpt lat="42.86862" lon="0.91986">
        <ele>898.32</ele>
        <time>2014-07-08T13:01:16Z</time>
      </trkpt>
      <trkpt lat="42.86866" lon="0.91988">
        <ele>896.85</ele>
        <time>2014-07-08T13:01:25Z</time>
      </trkpt>
      <trkpt lat="42.86866" lon="0.91995">
        <ele>898.79</ele>
        <time>2014-07-08T13:01:32Z</time>
      </trkpt>
      <trkpt lat="42.86869" lon="0.92">
        <ele>894.1</ele>
        <time>2014-07-08T13:01:38Z</time>
      </trkpt>
      <trkpt lat="42.86869" lon="0.92006">
        <ele>892.68</ele>
        <time>2014-07-08T13:01:44Z</time>
      </trkpt>
      <trkpt lat="42.86868" lon="0.92014">
        <ele>891.35</ele>
        <time>2014-07-08T13:01:50Z</time>
      </trkpt>
      <trkpt lat="42.86869" lon="0.92021">
        <ele>891.13</ele>
        <time>2014-07-08T13:01:55Z</time>
      </trkpt>
      <trkpt lat="42.8687" lon="0.92027">
        <ele>890.1</ele>
        <time>2014-07-08T13:01:59Z</time>
      </trkpt>
      <trkpt lat="42.86868" lon="0.92033">
        <ele>890.26</ele>
        <time>2014-07-08T13:02:03Z</time>
      </trkpt>
      <trkpt lat="42.8687" lon="0.9204">
        <ele>886.16</ele>
        <time>2014-07-08T13:02:11Z</time>
      </trkpt>
      <trkpt lat="42.86871" lon="0.92046">
        <ele>884.48</ele>
        <time>2014-07-08T13:02:15Z</time>
      </trkpt>
      <trkpt lat="42.8687" lon="0.92052">
        <ele>884.19</ele>
        <time>2014-07-08T13:02:19Z</time>
      </trkpt>
      <trkpt lat="42.86873" lon="0.92057">
        <ele>882.83</ele>
        <time>2014-07-08T13:02:25Z</time>
      </trkpt>
      <trkpt lat="42.86873" lon="0.92063">
        <ele>886.58</ele>
        <time>2014-07-08T13:03:02Z</time>
      </trkpt>
      <trkpt lat="42.86874" lon="0.92069">
        <ele>888.33</ele>
        <time>2014-07-08T13:03:07Z</time>
      </trkpt>
      <trkpt lat="42.86876" lon="0.92075">
        <ele>884.77</ele>
        <time>2014-07-08T13:03:13Z</time>
      </trkpt>
      <trkpt lat="42.86878" lon="0.92081">
        <ele>887.21</ele>
        <time>2014-07-08T13:03:19Z</time>
      </trkpt>
      <trkpt lat="42.86877" lon="0.92088">
        <ele>890.54</ele>
        <time>2014-07-08T13:03:29Z</time>
      </trkpt>
      <trkpt lat="42.86876" lon="0.92094">
        <ele>888.53</ele>
        <time>2014-07-08T13:03:42Z</time>
      </trkpt>
      <trkpt lat="42.86873" lon="0.92099">
        <ele>884.82</ele>
        <time>2014-07-08T13:03:48Z</time>
      </trkpt>
      <trkpt lat="42.8687" lon="0.92103">
        <ele>880.36</ele>
        <time>2014-07-08T13:03:58Z</time>
      </trkpt>
      <trkpt lat="42.86867" lon="0.92109">
        <ele>882.59</ele>
        <time>2014-07-08T13:04:11Z</time>
      </trkpt>
      <trkpt lat="42.86864" lon="0.92115">
        <ele>882.82</ele>
        <time>2014-07-08T13:04:21Z</time>
      </trkpt>
      <trkpt lat="42.8686" lon="0.92117">
        <ele>884.43</ele>
        <time>2014-07-08T13:04:27Z</time>
      </trkpt>
      <trkpt lat="42.86858" lon="0.92123">
        <ele>883.16</ele>
        <time>2014-07-08T13:04:37Z</time>
      </trkpt>
      <trkpt lat="42.86854" lon="0.92128">
        <ele>882.4</ele>
        <time>2014-07-08T13:04:42Z</time>
      </trkpt>
      <trkpt lat="42.86853" lon="0.92135">
        <ele>877.71</ele>
        <time>2014-07-08T13:04:54Z</time>
      </trkpt>
      <trkpt lat="42.86851" lon="0.92142">
        <ele>875.86</ele>
        <time>2014-07-08T13:04:59Z</time>
      </trkpt>
      <trkpt lat="42.86848" lon="0.9215">
        <ele>869.92</ele>
        <time>2014-07-08T13:05:07Z</time>
      </trkpt>
      <trkpt lat="42.86847" lon="0.92156">
        <ele>852.4</ele>
        <time>2014-07-08T13:05:13Z</time>
      </trkpt>
      <trkpt lat="42.86847" lon="0.92162">
        <ele>843.76</ele>
        <time>2014-07-08T13:05:18Z</time>
      </trkpt>
      <trkpt lat="42.86844" lon="0.92167">
        <ele>844.45</ele>
        <time>2014-07-08T13:05:23Z</time>
      </trkpt>
      <trkpt lat="42.8684" lon="0.92171">
        <ele>849.57</ele>
        <time>2014-07-08T13:05:28Z</time>
      </trkpt>
      <trkpt lat="42.86838" lon="0.92177">
        <ele>851.59</ele>
        <time>2014-07-08T13:06:05Z</time>
      </trkpt>
      <trkpt lat="42.86837" lon="0.92185">
        <ele>851.38</ele>
        <time>2014-07-08T13:06:10Z</time>
      </trkpt>
      <trkpt lat="42.86836" lon="0.92191">
        <ele>851.04</ele>
        <time>2014-07-08T13:06:15Z</time>
      </trkpt>
      <trkpt lat="42.86839" lon="0.92197">
        <ele>852.72</ele>
        <time>2014-07-08T13:06:21Z</time>
      </trkpt>
      <trkpt lat="42.8684" lon="0.92204">
        <ele>854.57</ele>
        <time>2014-07-08T13:06:31Z</time>
      </trkpt>
      <trkpt lat="42.86842" lon="0.9221">
        <ele>852.78</ele>
        <time>2014-07-08T13:06:37Z</time>
      </trkpt>
      <trkpt lat="42.86841" lon="0.92217">
        <ele>851.7</ele>
        <time>2014-07-08T13:06:42Z</time>
      </trkpt>
      <trkpt lat="42.86841" lon="0.92223">
        <ele>849.86</ele>
        <time>2014-07-08T13:06:46Z</time>
      </trkpt>
      <trkpt lat="42.86841" lon="0.9223">
        <ele>849</ele>
        <time>2014-07-08T13:06:50Z</time>
      </trkpt>
      <trkpt lat="42.86841" lon="0.92237">
        <ele>849.38</ele>
        <time>2014-07-08T13:06:54Z</time>
      </trkpt>
      <trkpt lat="42.8684" lon="0.92244">
        <ele>847.54</ele>
        <time>2014-07-08T13:06:58Z</time>
      </trkpt>
      <trkpt lat="42.86838" lon="0.9225">
        <ele>846.23</ele>
        <time>2014-07-08T13:07:03Z</time>
      </trkpt>
      <trkpt lat="42.8684" lon="0.92256">
        <ele>845.04</ele>
        <time>2014-07-08T13:07:09Z</time>
      </trkpt>
      <trkpt lat="42.86843" lon="0.92263">
        <ele>844.7</ele>
        <time>2014-07-08T13:07:15Z</time>
      </trkpt>
      <trkpt lat="42.86841" lon="0.92269">
        <ele>846.1</ele>
        <time>2014-07-08T13:07:25Z</time>
      </trkpt>
      <trkpt lat="42.86838" lon="0.92276">
        <ele>850.8</ele>
        <time>2014-07-08T13:07:28Z</time>
      </trkpt>
      <trkpt lat="42.86834" lon="0.9228">
        <ele>853.93</ele>
        <time>2014-07-08T13:07:32Z</time>
      </trkpt>
      <trkpt lat="42.86834" lon="0.92287">
        <ele>853.01</ele>
        <time>2014-07-08T13:07:43Z</time>
      </trkpt>
      <trkpt lat="42.86831" lon="0.92292">
        <ele>852.03</ele>
        <time>2014-07-08T13:07:47Z</time>
      </trkpt>
      <trkpt lat="42.86827" lon="0.92296">
        <ele>851.31</ele>
        <time>2014-07-08T13:07:51Z</time>
      </trkpt>
      <trkpt lat="42.86823" lon="0.923">
        <ele>850.51</ele>
        <time>2014-07-08T13:07:55Z</time>
      </trkpt>
      <trkpt lat="42.86819" lon="0.92304">
        <ele>850.79</ele>
        <time>2014-07-08T13:07:59Z</time>
      </trkpt>
      <trkpt lat="42.86817" lon="0.9231">
        <ele>849.85</ele>
        <time>2014-07-08T13:08:04Z</time>
      </trkpt>
      <trkpt lat="42.86816" lon="0.92317">
        <ele>847.5</ele>
        <time>2014-07-08T13:08:11Z</time>
      </trkpt>
      <trkpt lat="42.86815" lon="0.92323">
        <ele>847.86</ele>
        <time>2014-07-08T13:08:17Z</time>
      </trkpt>
      <trkpt lat="42.86814" lon="0.9233">
        <ele>848.33</ele>
        <time>2014-07-08T13:08:23Z</time>
      </trkpt>
      <trkpt lat="42.86811" lon="0.92336">
        <ele>848.07</ele>
        <time>2014-07-08T13:08:29Z</time>
      </trkpt>
      <trkpt lat="42.8681" lon="0.92342">
        <ele>846.53</ele>
        <time>2014-07-08T13:08:38Z</time>
      </trkpt>
      <trkpt lat="42.86808" lon="0.92347">
        <ele>845.83</ele>
        <time>2014-07-08T13:08:44Z</time>
      </trkpt>
      <trkpt lat="42.86806" lon="0.92354">
        <ele>847.69</ele>
        <time>2014-07-08T13:08:49Z</time>
      </trkpt>
      <trkpt lat="42.86804" lon="0.92359">
        <ele>847.72</ele>
        <time>2014-07-08T13:08:53Z</time>
      </trkpt>
      <trkpt lat="42.86802" lon="0.92365">
        <ele>847.19</ele>
        <time>2014-07-08T13:08:58Z</time>
      </trkpt>
      <trkpt lat="42.86802" lon="0.92372">
        <ele>847.11</ele>
        <time>2014-07-08T13:09:04Z</time>
      </trkpt>
      <trkpt lat="42.86804" lon="0.92378">
        <ele>843.61</ele>
        <time>2014-07-08T13:09:11Z</time>
      </trkpt>
      <trkpt lat="42.86805" lon="0.92385">
        <ele>841.65</ele>
        <time>2014-07-08T13:09:18Z</time>
      </trkpt>
      <trkpt lat="42.86807" lon="0.9239">
        <ele>840.43</ele>
        <time>2014-07-08T13:09:24Z</time>
      </trkpt>
      <trkpt lat="42.86806" lon="0.92397">
        <ele>840.1</ele>
        <time>2014-07-08T13:09:29Z</time>
      </trkpt>
      <trkpt lat="42.86809" lon="0.92402">
        <ele>836.86</ele>
        <time>2014-07-08T13:09:36Z</time>
      </trkpt>
      <trkpt lat="42.86809" lon="0.9241">
        <ele>837.91</ele>
        <time>2014-07-08T13:09:43Z</time>
      </trkpt>
      <trkpt lat="42.8681" lon="0.92416">
        <ele>838.47</ele>
        <time>2014-07-08T13:09:50Z</time>
      </trkpt>
      <trkpt lat="42.86807" lon="0.92421">
        <ele>839.76</ele>
        <time>2014-07-08T13:09:58Z</time>
      </trkpt>
      <trkpt lat="42.86805" lon="0.92428">
        <ele>836.55</ele>
        <time>2014-07-08T13:10:09Z</time>
      </trkpt>
      <trkpt lat="42.86803" lon="0.92433">
        <ele>832.19</ele>
        <time>2014-07-08T13:10:13Z</time>
      </trkpt>
      <trkpt lat="42.86801" lon="0.9244">
        <ele>831.09</ele>
        <time>2014-07-08T13:10:17Z</time>
      </trkpt>
      <trkpt lat="42.86801" lon="0.92446">
        <ele>829.88</ele>
        <time>2014-07-08T13:10:22Z</time>
      </trkpt>
      <trkpt lat="42.86802" lon="0.92454">
        <ele>831.09</ele>
        <time>2014-07-08T13:10:27Z</time>
      </trkpt>
      <trkpt lat="42.86802" lon="0.92461">
        <ele>831.05</ele>
        <time>2014-07-08T13:10:32Z</time>
      </trkpt>
      <trkpt lat="42.86801" lon="0.92469">
        <ele>829.19</ele>
        <time>2014-07-08T13:10:37Z</time>
      </trkpt>
      <trkpt lat="42.86798" lon="0.92475">
        <ele>828.88</ele>
        <time>2014-07-08T13:10:42Z</time>
      </trkpt>
      <trkpt lat="42.86797" lon="0.92482">
        <ele>831.16</ele>
        <time>2014-07-08T13:10:46Z</time>
      </trkpt>
      <trkpt lat="42.86797" lon="0.92489">
        <ele>833.76</ele>
        <time>2014-07-08T13:10:50Z</time>
      </trkpt>
      <trkpt lat="42.86797" lon="0.92496">
        <ele>835.14</ele>
        <time>2014-07-08T13:10:54Z</time>
      </trkpt>
      <trkpt lat="42.86797" lon="0.92503">
        <ele>836.09</ele>
        <time>2014-07-08T13:10:58Z</time>
      </trkpt>
      <trkpt lat="42.86797" lon="0.9251">
        <ele>835.42</ele>
        <time>2014-07-08T13:11:04Z</time>
      </trkpt>
      <trkpt lat="42.86797" lon="0.92517">
        <ele>839.52</ele>
        <time>2014-07-08T13:11:11Z</time>
      </trkpt>
      <trkpt lat="42.86801" lon="0.92521">
        <ele>839.56</ele>
        <time>2014-07-08T13:11:17Z</time>
      </trkpt>
      <trkpt lat="42.868" lon="0.92528">
        <ele>836.28</ele>
        <time>2014-07-08T13:11:23Z</time>
      </trkpt>
      <trkpt lat="42.86801" lon="0.92534">
        <ele>835.55</ele>
        <time>2014-07-08T13:11:29Z</time>
      </trkpt>
      <trkpt lat="42.86799" lon="0.9254">
        <ele>836.01</ele>
        <time>2014-07-08T13:11:34Z</time>
      </trkpt>
      <trkpt lat="42.86798" lon="0.92546">
        <ele>834.46</ele>
        <time>2014-07-08T13:11:39Z</time>
      </trkpt>
      <trkpt lat="42.86799" lon="0.92552">
        <ele>833.81</ele>
        <time>2014-07-08T13:11:47Z</time>
      </trkpt>
      <trkpt lat="42.86802" lon="0.92558">
        <ele>834.98</ele>
        <time>2014-07-08T13:11:54Z</time>
      </trkpt>
      <trkpt lat="42.86805" lon="0.92563">
        <ele>836.61</ele>
        <time>2014-07-08T13:12:00Z</time>
      </trkpt>
      <trkpt lat="42.86805" lon="0.92569">
        <ele>839.58</ele>
        <time>2014-07-08T13:12:05Z</time>
      </trkpt>
      <trkpt lat="42.86805" lon="0.92575">
        <ele>840.29</ele>
        <time>2014-07-08T13:12:12Z</time>
      </trkpt>
      <trkpt lat="42.86804" lon="0.92582">
        <ele>842.97</ele>
        <time>2014-07-08T13:12:18Z</time>
      </trkpt>
      <trkpt lat="42.86803" lon="0.92589">
        <ele>846.95</ele>
        <time>2014-07-08T13:12:26Z</time>
      </trkpt>
      <trkpt lat="42.86804" lon="0.92595">
        <ele>846.06</ele>
        <time>2014-07-08T13:12:34Z</time>
      </trkpt>
      <trkpt lat="42.86804" lon="0.92602">
        <ele>839.29</ele>
        <time>2014-07-08T13:12:39Z</time>
      </trkpt>
      <trkpt lat="42.86802" lon="0.92608">
        <ele>835.66</ele>
        <time>2014-07-08T13:12:43Z</time>
      </trkpt>
      <trkpt lat="42.86801" lon="0.92615">
        <ele>834.84</ele>
        <time>2014-07-08T13:12:48Z</time>
      </trkpt>
      <trkpt lat="42.86801" lon="0.92622">
        <ele>834.22</ele>
        <time>2014-07-08T13:12:53Z</time>
      </trkpt>
      <trkpt lat="42.86802" lon="0.92628">
        <ele>835.21</ele>
        <time>2014-07-08T13:12:59Z</time>
      </trkpt>
      <trkpt lat="42.86805" lon="0.92634">
        <ele>835.48</ele>
        <time>2014-07-08T13:13:04Z</time>
      </trkpt>
      <trkpt lat="42.86806" lon="0.9264">
        <ele>836.27</ele>
        <time>2014-07-08T13:13:09Z</time>
      </trkpt>
      <trkpt lat="42.86804" lon="0.92646">
        <ele>834.69</ele>
        <time>2014-07-08T13:13:17Z</time>
      </trkpt>
      <trkpt lat="42.86803" lon="0.92653">
        <ele>829.16</ele>
        <time>2014-07-08T13:13:22Z</time>
      </trkpt>
      <trkpt lat="42.86803" lon="0.9266">
        <ele>827.52</ele>
        <time>2014-07-08T13:13:26Z</time>
      </trkpt>
      <trkpt lat="42.86802" lon="0.92667">
        <ele>825.43</ele>
        <time>2014-07-08T13:13:30Z</time>
      </trkpt>
      <trkpt lat="42.86801" lon="0.92675">
        <ele>825.72</ele>
        <time>2014-07-08T13:13:34Z</time>
      </trkpt>
      <trkpt lat="42.86799" lon="0.92683">
        <ele>825.62</ele>
        <time>2014-07-08T13:13:38Z</time>
      </trkpt>
      <trkpt lat="42.86798" lon="0.9269">
        <ele>824.88</ele>
        <time>2014-07-08T13:13:42Z</time>
      </trkpt>
      <trkpt lat="42.86796" lon="0.92696">
        <ele>823.74</ele>
        <time>2014-07-08T13:13:46Z</time>
      </trkpt>
      <trkpt lat="42.86795" lon="0.92703">
        <ele>822.41</ele>
        <time>2014-07-08T13:13:51Z</time>
      </trkpt>
      <trkpt lat="42.86794" lon="0.9271">
        <ele>822.61</ele>
        <time>2014-07-08T13:13:56Z</time>
      </trkpt>
      <trkpt lat="42.86792" lon="0.92716">
        <ele>822.98</ele>
        <time>2014-07-08T13:14:00Z</time>
      </trkpt>
      <trkpt lat="42.86789" lon="0.92723">
        <ele>824.54</ele>
        <time>2014-07-08T13:14:04Z</time>
      </trkpt>
      <trkpt lat="42.86785" lon="0.92729">
        <ele>826.38</ele>
        <time>2014-07-08T13:14:08Z</time>
      </trkpt>
      <trkpt lat="42.86783" lon="0.92734">
        <ele>828.26</ele>
        <time>2014-07-08T13:14:12Z</time>
      </trkpt>
      <trkpt lat="42.86785" lon="0.92739">
        <ele>829.79</ele>
        <time>2014-07-08T13:14:29Z</time>
      </trkpt>
      <trkpt lat="42.86782" lon="0.92745">
        <ele>825.46</ele>
        <time>2014-07-08T13:14:53Z</time>
      </trkpt>
      <trkpt lat="42.86782" lon="0.92752">
        <ele>824.36</ele>
        <time>2014-07-08T13:14:57Z</time>
      </trkpt>
      <trkpt lat="42.86781" lon="0.92759">
        <ele>824.02</ele>
        <time>2014-07-08T13:15:02Z</time>
      </trkpt>
      <trkpt lat="42.86781" lon="0.92765">
        <ele>821.73</ele>
        <time>2014-07-08T13:15:11Z</time>
      </trkpt>
      <trkpt lat="42.86777" lon="0.92768">
        <ele>823.64</ele>
        <time>2014-07-08T13:15:31Z</time>
      </trkpt>
    </trkseg>
  </trk>
</gpx>